[[{"header":{"parameterUnit":"m.s-1","parameterCategory":1,"la1":31.0,"la2":29.5877,"lo1":-88.7671,"lo2":-86.6584,"dy":0.0162,"dx":0.0185,"nx":115,"ny":88,"refTime":"2024-08-01T18:00:00:Z","depth":0,"parameterNumber":2,"parameterNumberName":"U-component_of_WINDS"},"data":[0.0,0.0,0.0,0.0,0.0,0.0,0.0,0.0,0.0,0.0,0.0,0.0,0.0,0.0,0.0,0.0,0.0,0.0,0.0,0.0,0.0,0.0,0.0,0.0,0.0,0.0,0.0,0.0,0.0,0.0,0.0,0.0,0.0,0.0,0.0,0.0,0.0,0.0,0.0,0.0,0.0,0.0,0.0,0.0,0.0,0.0,0.0,0.0,0.0,0.0,0.0,0.0,0.0,0.0,0.0,0.0,0.0,0.0,0.0,0.0,0.0,0.0,0.0,0.0,0.0,0.0,0.0,0.0,0.0,0.0,0.0,0.0,0.0,0.0,0.0,0.0,0.0,0.0,0.0,0.0,0.0,0.0,0.0,0.0,0.0,0.0,0.0,0.0,0.0,0.0,0.0,0.0,0.0,0.0,0.0,0.0,0.0,0.0,0.0,0.0,0.0,0.0,0.0,0.0,0.0,0.0,0.0,0.0,0.0,0.0,0.0,0.0,0.0,0.0,0.0,0.0,0.0,0.0,0.0,0.0,0.0,0.0,0.0,0.0,0.0,0.0,0.0,0.0,0.0,0.0,0.0,0.0,0.0,0.0,0.0,0.0,0.0,0.0,0.0,0.0,0.0,0.0,0.0,0.0,0.0,0.0,0.0,0.0,0.0,0.0,0.0,0.0,0.0,0.0,0.0,0.0,0.0,0.0,0.0,0.0,0.0,0.0,0.0,0.0,0.0,0.0,0.0,0.0,0.0,0.0,0.0,0.0,0.0,0.0,0.0,0.0,0.0,0.0,0.0,0.0,0.0,0.0,0.0,0.0,0.0,0.0,0.0,0.0,0.0,0.0,0.0,0.0,0.0,0.0,0.0,0.0,0.0,0.0,0.0,0.0,0.0,0.0,0.0,0.0,0.0,0.0,0.0,0.0,0.0,0.0,0.0,0.0,0.0,0.0,0.0,0.0,0.0,0.0,0.0,0.0,0.0,0.0,0.0,0.0,0.0,0.0,0.0,0.0,0.0,0.0,0.0,0.0,0.0,0.0,0.0,0.0,0.0,0.0,0.0,0.0,0.0,0.0,0.0,0.0,0.0,0.0,0.0,0.0,0.0,0.0,0.0,0.0,0.0,0.0,0.0,0.0,0.0,0.0,0.0,0.0,0.0,0.0,0.0,0.0,0.0,0.0,0.0,0.0,0.0,0.0,0.0,0.0,0.0,0.0,0.0,0.0,0.0,0.0,0.0,0.0,0.0,0.0,0.0,0.0,0.0,0.0,0.0,0.0,0.0,0.0,0.0,0.0,0.0,0.0,0.0,0.0,0.0,0.0,0.0,0.0,0.0,0.0,0.0,0.0,0.0,0.0,0.0,0.0,0.0,0.0,0.0,0.0,0.0,0.0,0.0,0.0,0.0,0.0,0.0,0.0,0.0,0.0,0.0,0.0,0.0,0.0,0.0,0.0,0.0,0.0,0.0,0.0,0.0,0.0,0.0,0.0,0.0,0.0,0.0,0.0,0.0,0.0,0.0,0.0,0.0,0.0,0.0,0.0,0.0,0.0,0.0,0.0,0.0,0.0,0.0,0.0,0.0,0.0,0.0,0.0,0.0,0.0,0.0,0.0,0.0,0.0,0.0,0.0,0.0,0.0,0.0,0.0,0.0,0.0,0.0,0.0,0.0,0.0,0.0,0.0,0.0,0.0,0.0,0.0,0.0,0.0,0.0,0.0,0.0,0.0,0.0,0.0,0.0,0.0,0.0,0.0,0.0,0.0,0.0,0.0,0.0,0.0,0.0,0.0,0.0,0.0,0.0,0.0,0.0,0.0,0.0,0.0,0.0,0.0,0.0,0.0,0.0,0.0,0.0,0.0,0.0,0.0,0.0,0.0,0.0,0.0,0.0,0.0,0.0,0.0,0.0,0.0,0.0,0.0,0.0,0.0,0.0,0.0,0.0,0.0,0.0,0.0,0.0,0.0,0.0,0.0,0.0,0.0,0.0,0.0,0.0,0.0,0.0,0.0,0.0,0.0,0.0,0.0,0.0,0.0,0.0,0.0,0.0,0.0,0.0,0.0,0.0,0.0,0.0,0.0,0.0,0.0,0.0,0.0,0.0,0.0,0.0,0.0,0.0,0.0,0.0,0.0,0.0,0.0,0.0,0.0,0.0,0.0,0.0,0.0,0.0,0.0,0.0,0.0,0.0,0.0,0.0,0.0,0.0,0.0,0.0,0.0,0.0,0.0,0.0,0.0,0.0,0.0,0.0,0.0,0.0,0.0,0.0,0.0,0.0,0.0,0.0,0.0,0.0,0.0,0.0,0.0,0.0,0.0,0.0,0.0,0.0,0.0,0.0,0.0,0.0,0.0,0.0,0.0,0.0,0.0,0.0,0.0,0.0,0.0,0.0,0.0,0.0,0.0,0.0,0.0,0.0,0.0,0.0,0.0,0.0,0.0,0.0,0.0,0.0,0.0,0.0,0.0,0.0,0.0,0.0,0.0,0.0,0.0,0.0,0.0,0.0,0.0,0.0,0.0,0.0,0.0,0.0,0.0,0.0,0.0,0.0,0.0,0.0,0.0,0.0,0.0,0.0,0.0,0.0,0.0,0.0,0.0,0.0,0.0,0.0,0.0,0.0,0.0,0.0,0.0,0.0,0.0,0.0,0.0,0.0,0.0,0.0,0.0,0.0,0.0,0.0,0.0,0.0,0.0,0.0,0.0,0.0,0.0,0.0,0.0,0.0,0.0,0.0,0.0,0.0,0.0,0.0,0.0,0.0,0.0,0.0,0.0,0.0,0.0,0.0,0.0,0.0,0.0,0.0,0.0,0.0,0.0,0.0,0.0,0.0,0.0,0.0,0.0,0.0,0.0,0.0,0.0,0.0,0.0,0.0,0.0,0.0,0.0,0.0,0.0,0.0,0.0,0.0,0.0,0.0,0.0,0.0,0.0,0.0,0.0,0.0,0.0,0.0,0.0,0.0,0.0,0.0,0.0,0.0,0.0,0.0,0.0,0.0,0.0,0.0,0.0,0.0,0.0,0.0,0.0,0.0,0.0,0.0,0.0,0.0,0.0,0.0,0.0,0.0,0.0,0.0,0.0,0.0,0.0,0.0,0.0,0.0,0.0,0.0,0.0,0.0,0.0,0.0,0.0,0.0,0.0,0.0,0.0,0.0,0.0,0.0,0.0,0.0,0.0,0.0,0.0,0.0,0.0,0.0,0.0,0.0,0.0,0.0,0.0,0.0,0.0,0.0,0.0,0.0,0.0,0.0,0.0,0.0,0.0,0.0,0.0,0.0,0.0,0.0,0.0,0.0,0.0,0.0,0.0,0.0,0.0,0.0,0.0,0.0,0.0,0.0,0.0,0.0,0.0,0.0,0.0,0.0,0.0,0.0,0.0,0.0,0.0,0.0,0.0,0.0,0.0,0.0,0.0,0.0,0.0,0.0,0.0,0.0,0.0,0.0,0.0,0.0,0.0,0.0,0.0,0.0,0.0,0.0,0.0,0.0,0.0,0.0,0.0,0.0,0.0,0.0,0.0,0.0,0.0,0.0,0.0,0.0,0.0,0.0,0.0,0.0,0.0,0.0,0.0,0.0,0.0,0.0,0.0,0.0,0.0,0.0,0.0,0.0,0.0,0.0,0.0,0.0,0.0,0.0,0.0,0.0,0.0,0.0,0.0,0.0,0.0,0.0,0.0,0.0,0.0,0.0,0.0,0.0,0.0,0.0,0.0,0.0,0.0,0.0,0.0,0.0,0.0,0.0,0.0,0.0,0.0,0.0,0.0,0.0,0.0,0.0,0.0,0.0,0.0,0.0,0.0,0.0,0.0,0.0,0.0,0.0,0.0,0.0,0.0,0.0,0.0,0.0,0.0,0.0,0.0,0.0,0.0,0.0,0.0,0.0,0.0,0.0,0.0,0.0,0.0,0.0,0.0,0.0,0.0,0.0,0.0,0.0,0.0,0.0,0.0,0.0,0.0,0.0,0.0,0.0,0.0,0.0,0.0,0.0,0.0,0.0,0.0,0.0,0.0,0.0,0.0,0.0,0.0,0.0,0.0,0.0,0.0,0.0,0.0,0.0,0.0,0.0,0.0,0.0,0.0,0.0,0.0,0.0,0.0,0.0,0.0,0.0,0.0,0.0,0.0,0.0,0.0,0.0,0.0,0.0,0.0,0.0,0.0,0.0,0.0,0.0,0.0,0.0,0.0,0.0,0.0,0.0,0.0,0.0,0.0,0.0,0.0,0.0,0.0,0.0,0.0,0.0,0.0,0.0,0.0,-2.0115,0.0,0.0,0.0,0.0,0.0,0.0,0.0,0.0,0.0,0.0,0.0,0.0,0.0,0.0,0.0,0.0,0.0,0.0,0.0,0.0,0.0,0.0,0.0,0.0,0.0,0.0,0.0,0.0,0.0,0.0,0.0,0.0,0.0,0.0,0.0,0.0,0.0,0.0,0.0,0.0,0.0,0.0,0.0,0.0,0.0,0.0,0.0,0.0,0.0,0.0,0.0,0.0,0.0,0.0,0.0,0.0,0.0,0.0,0.0,0.0,0.0,0.0,0.0,0.0,0.0,0.0,0.0,0.0,0.0,0.0,0.0,0.0,0.0,0.0,0.0,0.0,0.0,0.0,0.0,0.0,0.0,0.0,0.0,0.0,0.0,0.0,0.0,0.0,0.0,0.0,0.0,0.0,0.0,0.0,0.0,0.0,0.0,0.0,0.0,0.0,0.0,0.0,0.0,0.0,0.0,0.0,0.0,0.0,0.0,0.0,-2.133,-2.3972,-2.5627,-2.6677,-2.6904,0.0,0.0,0.0,0.0,0.0,0.0,0.0,0.0,0.0,0.0,0.0,0.0,0.0,0.0,0.0,0.0,0.0,0.0,0.0,0.0,0.0,0.0,0.0,0.0,0.0,0.0,0.0,0.0,0.0,0.0,0.0,0.0,0.0,0.0,0.0,0.0,0.0,0.0,0.0,0.0,0.0,0.0,0.0,0.0,0.0,0.0,0.0,0.0,0.0,0.0,0.0,0.0,0.0,0.0,0.0,0.0,0.0,0.0,0.0,0.0,0.0,0.0,0.0,0.0,0.0,0.0,0.0,0.0,0.0,0.0,0.0,0.0,0.0,0.0,0.0,0.0,0.0,0.0,0.0,0.0,0.0,0.0,0.0,0.0,0.0,0.0,0.0,0.0,0.0,0.0,0.0,0.0,0.0,0.0,0.0,0.0,0.0,0.0,0.0,0.0,0.0,0.0,0.0,0.0,0.0,0.0,0.0,0.0,0.0,0.0,0.0,0.0,-3.2019,-3.2915,-3.3123,0.0,0.0,0.0,0.0,0.0,0.0,0.0,0.0,0.0,0.0,0.0,0.0,0.0,0.0,0.0,0.0,0.0,0.0,0.0,0.0,0.0,0.0,0.0,0.0,0.0,0.0,0.0,0.0,0.0,0.0,0.0,0.0,0.0,0.0,0.0,0.0,0.0,0.0,0.0,0.0,0.0,0.0,0.0,0.0,0.0,0.0,0.0,0.0,0.0,0.0,0.0,0.0,0.0,0.0,0.0,0.0,0.0,0.0,0.0,0.0,0.0,0.0,0.0,0.0,0.0,0.0,0.0,0.0,0.0,0.0,0.0,0.0,0.0,0.0,0.0,0.0,0.0,0.0,0.0,0.0,0.0,0.0,0.0,0.0,0.0,0.0,0.0,0.0,0.0,0.0,0.0,0.0,0.0,0.0,0.0,0.0,0.0,0.0,0.0,0.0,0.0,0.0,0.0,0.0,0.0,0.0,0.0,0.0,0.0,0.0,-3.3785,-3.583,-3.7397,0.0,-3.8364,0.0,0.0,0.0,0.0,0.0,0.0,0.0,0.0,0.0,0.0,0.0,0.0,0.0,0.0,0.0,0.0,0.0,0.0,0.0,0.0,0.0,0.0,0.0,0.0,0.0,0.0,0.0,0.0,0.0,0.0,0.0,0.0,0.0,0.0,0.0,0.0,0.0,0.0,0.0,0.0,0.0,0.0,0.0,0.0,0.0,0.0,0.0,0.0,0.0,0.0,0.0,0.0,0.0,0.0,0.0,0.0,0.0,0.0,0.0,0.0,0.0,0.0,0.0,0.0,0.0,0.0,0.0,0.0,0.0,0.0,0.0,0.0,0.0,0.0,0.0,0.0,0.0,0.0,0.0,0.0,0.0,0.0,0.0,0.0,0.0,0.0,0.0,0.0,0.0,0.0,0.0,0.0,0.0,0.0,0.0,0.0,0.0,0.0,0.0,0.0,0.0,0.0,0.0,0.0,0.0,0.0,0.0,0.0,0.0,0.0,-3.886,-4.0542,-4.1592,-4.175,0.0,0.0,0.0,0.0,0.0,0.0,0.0,0.0,0.0,0.0,0.0,0.0,0.0,0.0,0.0,0.0,0.0,0.0,0.0,0.0,0.0,0.0,0.0,0.0,0.0,0.0,0.0,0.0,0.0,0.0,0.0,0.0,0.0,0.0,0.0,0.0,0.0,0.0,0.0,0.0,0.0,0.0,0.0,0.0,0.0,0.0,0.0,0.0,0.0,0.0,0.0,0.0,0.0,0.0,0.0,0.0,0.0,0.0,0.0,0.0,0.0,0.0,0.0,0.0,0.0,0.0,0.0,0.0,0.0,0.0,0.0,0.0,0.0,0.0,0.0,0.0,0.0,0.0,0.0,0.0,0.0,0.0,0.0,0.0,0.0,0.0,0.0,0.0,0.0,0.0,0.0,0.0,0.0,0.0,0.0,0.0,0.0,0.0,0.0,0.0,0.0,0.0,0.0,0.0,0.0,0.0,0.0,0.0,0.0,0.0,-4.086,-4.2857,-4.4132,-4.4729,-4.4206,-4.2477,0.0,0.0,0.0,0.0,0.0,0.0,0.0,0.0,0.0,0.0,0.0,0.0,0.0,0.0,0.0,0.0,0.0,0.0,0.0,0.0,0.0,0.0,0.0,0.0,0.0,0.0,0.0,0.0,0.0,0.0,0.0,0.0,0.0,0.0,0.0,0.0,0.0,0.0,0.0,0.0,0.0,0.0,0.0,0.0,0.0,0.0,0.0,0.0,0.0,0.0,0.0,0.0,0.0,0.0,0.0,0.0,0.0,0.0,0.0,0.0,0.0,0.0,0.0,0.0,0.0,0.0,0.0,0.0,0.0,0.0,0.0,0.0,0.0,0.0,0.0,0.0,0.0,0.0,0.0,0.0,0.0,0.0,0.0,0.0,0.0,0.0,0.0,0.0,0.0,0.0,0.0,0.0,0.0,0.0,0.0,0.0,0.0,0.0,0.0,0.0,0.0,0.0,0.0,0.0,0.0,0.0,0.0,0.0,0.0,-4.4359,-4.5494,-4.643,-4.6629,-4.5544,0.0,0.0,0.0,0.0,0.0,0.0,0.0,0.0,0.0,0.0,0.0,0.0,0.0,0.0,0.0,0.0,0.0,0.0,0.0,0.0,0.0,0.0,0.0,0.0,0.0,0.0,0.0,0.0,0.0,0.0,0.0,0.0,0.0,0.0,0.0,0.0,0.0,0.0,0.0,0.0,0.0,0.0,0.0,0.0,0.0,0.0,0.0,0.0,0.0,0.0,0.0,0.0,0.0,0.0,0.0,0.0,0.0,0.0,0.0,0.0,0.0,0.0,0.0,0.0,0.0,0.0,0.0,0.0,0.0,0.0,0.0,0.0,0.0,0.0,0.0,0.0,0.0,0.0,0.0,0.0,0.0,0.0,0.0,0.0,0.0,0.0,0.0,0.0,0.0,0.0,0.0,0.0,0.0,0.0,0.0,0.0,0.0,0.0,0.0,0.0,0.0,0.0,0.0,0.0,0.0,0.0,0.0,0.0,0.0,-4.5076,-4.6963,-4.8008,-4.8304,-4.7786,-4.6278,0.0,0.0,0.0,0.0,0.0,0.0,0.0,0.0,0.0,0.0,0.0,0.0,0.0,0.0,0.0,0.0,0.0,0.0,0.0,0.0,0.0,0.0,0.0,0.0,0.0,0.0,0.0,0.0,0.0,0.0,0.0,0.0,0.0,0.0,0.0,0.0,0.0,0.0,0.0,0.0,0.0,0.0,0.0,0.0,0.0,0.0,0.0,0.0,0.0,0.0,0.0,0.0,0.0,0.0,0.0,0.0,0.0,0.0,0.0,0.0,0.0,0.0,0.0,0.0,0.0,0.0,0.0,0.0,0.0,0.0,0.0,0.0,0.0,0.0,0.0,0.0,0.0,0.0,0.0,0.0,0.0,0.0,0.0,0.0,0.0,0.0,0.0,0.0,0.0,0.0,0.0,0.0,0.0,0.0,0.0,0.0,0.0,0.0,0.0,0.0,0.0,0.0,0.0,0.0,0.0,0.0,0.0,0.0,0.0,-4.7344,0.0,-4.979,0.0,-4.8452,-4.6674,0.0,0.0,0.0,0.0,0.0,0.0,0.0,0.0,0.0,0.0,0.0,0.0,0.0,0.0,0.0,0.0,0.0,0.0,0.0,0.0,0.0,0.0,0.0,0.0,0.0,0.0,0.0,0.0,0.0,0.0,0.0,0.0,0.0,0.0,0.0,0.0,0.0,0.0,0.0,0.0,0.0,0.0,0.0,0.0,0.0,0.0,0.0,0.0,0.0,0.0,0.0,0.0,0.0,0.0,0.0,0.0,0.0,0.0,0.0,0.0,0.0,0.0,0.0,0.0,0.0,0.0,0.0,0.0,0.0,0.0,0.0,0.0,0.0,0.0,0.0,0.0,0.0,0.0,0.0,0.0,0.0,0.0,0.0,0.0,0.0,0.0,0.0,0.0,0.0,0.0,0.0,0.0,0.0,0.0,0.0,0.0,0.0,0.0,0.0,0.0,0.0,0.0,0.0,0.0,0.0,0.0,0.0,0.0,-4.6894,-4.9892,-5.0658,-5.052,-4.9635,-4.8645,-4.6794,0.0,0.0,0.0,0.0,0.0,0.0,0.0,0.0,0.0,0.0,0.0,0.0,0.0,0.0,0.0,0.0,0.0,0.0,0.0,0.0,0.0,0.0,0.0,0.0,0.0,0.0,0.0,0.0,0.0,0.0,0.0,0.0,0.0,0.0,0.0,0.0,0.0,0.0,0.0,0.0,0.0,0.0,0.0,0.0,0.0,0.0,0.0,0.0,0.0,0.0,0.0,0.0,0.0,0.0,0.0,0.0,0.0,0.0,0.0,0.0,0.0,0.0,0.0,0.0,0.0,0.0,0.0,0.0,0.0,0.0,0.0,0.0,0.0,0.0,0.0,0.0,0.0,0.0,0.0,0.0,0.0,0.0,0.0,0.0,0.0,0.0,0.0,0.0,0.0,0.0,0.0,0.0,0.0,0.0,0.0,0.0,0.0,0.0,0.0,0.0,0.0,0.0,0.0,0.0,0.0,0.0,0.0,0.0,0.0,-4.9229,-4.989,-5.0172,-5.012,-4.868,-4.6875,0.0,0.0,0.0,0.0,0.0,0.0,0.0,0.0,0.0,0.0,0.0,0.0,0.0,0.0,0.0,0.0,0.0,0.0,0.0,0.0,0.0,0.0,0.0,0.0,0.0,0.0,0.0,0.0,0.0,0.0,0.0,0.0,0.0,0.0,0.0,0.0,0.0,0.0,0.0,0.0,0.0,0.0,0.0,0.0,0.0,0.0,0.0,0.0,0.0,0.0,0.0,0.0,0.0,0.0,0.0,0.0,0.0,0.0,0.0,0.0,0.0,0.0,0.0,0.0,0.0,0.0,0.0,0.0,0.0,0.0,0.0,0.0,0.0,0.0,0.0,0.0,0.0,0.0,0.0,0.0,0.0,0.0,0.0,0.0,0.0,0.0,0.0,0.0,0.0,0.0,0.0,0.0,0.0,0.0,0.0,0.0,0.0,0.0,0.0,0.0,0.0,0.0,0.0,0.0,0.0,0.0,0.0,0.0,0.0,-4.8912,-4.9903,-5.0466,-5.0624,-4.8964,-4.7052,-4.5007,0.0,0.0,0.0,0.0,0.0,0.0,0.0,0.0,0.0,0.0,0.0,0.0,0.0,0.0,0.0,0.0,0.0,0.0,0.0,0.0,0.0,0.0,0.0,0.0,0.0,0.0,0.0,0.0,0.0,0.0,0.0,0.0,0.0,0.0,0.0,0.0,0.0,0.0,0.0,0.0,0.0,0.0,0.0,0.0,0.0,0.0,0.0,0.0,0.0,0.0,0.0,0.0,0.0,0.0,0.0,0.0,0.0,0.0,0.0,0.0,0.0,0.0,0.0,0.0,0.0,0.0,0.0,0.0,0.0,0.0,0.0,0.0,0.0,0.0,0.0,0.0,0.0,0.0,0.0,0.0,0.0,0.0,0.0,0.0,0.0,0.0,0.0,0.0,0.0,0.0,0.0,0.0,0.0,0.0,0.0,0.0,0.0,0.0,0.0,0.0,0.0,0.0,0.0,0.0,0.0,0.0,0.0,0.0,-4.8993,-5.0559,-5.1263,-5.0911,-4.9327,-4.7362,0.0,0.0,0.0,0.0,0.0,0.0,0.0,0.0,0.0,0.0,0.0,0.0,0.0,0.0,0.0,0.0,0.0,0.0,0.0,0.0,0.0,0.0,0.0,0.0,0.0,0.0,0.0,0.0,0.0,0.0,0.0,0.0,0.0,0.0,0.0,0.0,0.0,0.0,0.0,0.0,0.0,0.0,0.0,0.0,0.0,0.0,0.0,0.0,0.0,0.0,0.0,0.0,0.0,0.0,0.0,0.0,0.0,0.0,0.0,0.0,0.0,0.0,0.0,0.0,0.0,0.0,0.0,0.0,0.0,0.0,0.0,0.0,0.0,0.0,0.0,0.0,0.0,0.0,0.0,0.0,0.0,0.0,0.0,0.0,0.0,0.0,0.0,0.0,0.0,0.0,0.0,0.0,0.0,0.0,0.0,0.0,0.0,0.0,0.0,0.0,0.0,0.0,0.0,0.0,0.0,0.0,0.0,0.0,0.0,-4.926,-5.0691,-5.1056,-5.0283,-4.8895,-4.7021,0.0,0.0,0.0,0.0,0.0,0.0,0.0,0.0,0.0,0.0,0.0,0.0,0.0,0.0,0.0,0.0,0.0,0.0,0.0,0.0,0.0,0.0,0.0,0.0,0.0,0.0,0.0,0.0,0.0,0.0,0.0,0.0,0.0,0.0,0.0,0.0,0.0,0.0,0.0,0.0,0.0,0.0,0.0,0.0,0.0,0.0,0.0,0.0,0.0,0.0,0.0,0.0,0.0,0.0,0.0,0.0,0.0,0.0,0.0,0.0,0.0,0.0,0.0,0.0,0.0,0.0,0.0,0.0,0.0,0.0,0.0,0.0,0.0,0.0,0.0,0.0,0.0,0.0,0.0,0.0,0.0,0.0,0.0,0.0,0.0,0.0,0.0,0.0,0.0,0.0,0.0,0.0,0.0,0.0,0.0,0.0,0.0,0.0,0.0,0.0,0.0,0.0,0.0,0.0,0.0,0.0,0.0,0.0,-4.8048,-4.8918,-5.014,-5.0422,-4.9693,-4.8895,-4.7325,0.0,0.0,0.0,0.0,0.0,0.0,0.0,0.0,0.0,0.0,0.0,0.0,0.0,0.0,0.0,0.0,0.0,0.0,0.0,0.0,0.0,0.0,0.0,0.0,0.0,0.0,0.0,0.0,0.0,0.0,0.0,0.0,0.0,0.0,0.0,0.0,0.0,0.0,0.0,0.0,0.0,0.0,0.0,0.0,0.0,0.0,0.0,0.0,0.0,0.0,0.0,0.0,0.0,0.0,0.0,0.0,0.0,0.0,0.0,0.0,0.0,0.0,0.0,0.0,0.0,0.0,0.0,0.0,0.0,0.0,0.0,0.0,0.0,0.0,0.0,0.0,0.0,0.0,0.0,0.0,0.0,0.0,0.0,0.0,0.0,0.0,0.0,0.0,0.0,0.0,0.0,0.0,0.0,0.0,0.0,0.0,0.0,0.0,0.0,0.0,0.0,0.0,0.0,0.0,0.0,0.0,0.0,0.0,-4.7069,-4.8285,-4.9205,-4.9564,-4.9147,-4.901,-4.7707,0.0,0.0,0.0,0.0,0.0,0.0,0.0,0.0,0.0,0.0,0.0,0.0,0.0,0.0,0.0,0.0,0.0,0.0,0.0,0.0,0.0,0.0,0.0,0.0,0.0,0.0,0.0,0.0,0.0,0.0,0.0,0.0,0.0,0.0,0.0,0.0,0.0,0.0,0.0,0.0,0.0,0.0,0.0,0.0,0.0,0.0,0.0,0.0,0.0,0.0,0.0,0.0,0.0,0.0,0.0,0.0,0.0,0.0,0.0,0.0,0.0,0.0,0.0,0.0,0.0,0.0,0.0,0.0,0.0,0.0,0.0,0.0,0.0,0.0,0.0,0.0,0.0,0.0,0.0,0.0,0.0,0.0,0.0,0.0,0.0,0.0,0.0,0.0,0.0,0.0,0.0,0.0,0.0,0.0,0.0,0.0,0.0,0.0,0.0,0.0,0.0,0.0,0.0,0.0,0.0,0.0,0.0,0.0,-4.6678,-4.7338,-4.8748,-4.9074,-4.8552,-4.8153,-4.6707,0.0,0.0,0.0,0.0,0.0,0.0,0.0,0.0,0.0,0.0,0.0,0.0,0.0,0.0,0.0,0.0,0.0,0.0,0.0,0.0,0.0,0.0,0.0,0.0,0.0,0.0,0.0,0.0,0.0,0.0,0.0,0.0,0.0,0.0,0.0,0.0,0.0,0.0,0.0,0.0,0.0,0.0,0.0,0.0,0.0,0.0,0.0,0.0,3.2368,0.0,0.0,0.0,0.0,0.0,0.0,0.0,0.0,0.0,0.0,0.0,0.0,0.0,0.0,0.0,0.0,0.0,0.0,0.0,0.0,0.0,0.0,0.0,0.0,0.0,0.0,0.0,0.0,0.0,0.0,0.0,0.0,0.0,0.0,0.0,0.0,0.0,0.0,0.0,0.0,0.0,0.0,0.0,0.0,0.0,0.0,0.0,0.0,0.0,0.0,0.0,0.0,0.0,0.0,0.0,0.0,0.0,0.0,0.0,-4.6296,-4.7163,-4.8309,-4.8698,-4.8132,-4.7415,-4.6051,0.0,0.0,0.0,0.0,0.0,0.0,0.0,0.0,0.0,0.0,0.0,0.0,0.0,0.0,0.0,0.0,0.0,0.0,0.0,0.0,0.0,0.0,0.0,0.0,0.0,0.0,0.0,0.0,0.0,0.0,0.0,0.0,0.0,0.0,0.0,0.0,0.0,0.0,0.0,0.0,0.0,0.0,0.0,0.0,0.0,0.0,0.0,0.0,0.0,0.0,0.0,0.0,0.0,0.0,0.0,0.0,0.0,0.0,0.0,0.0,0.0,0.0,0.0,0.0,0.0,0.0,0.0,0.0,0.0,0.0,0.0,0.0,0.0,0.0,0.0,0.0,0.0,0.0,0.0,0.0,0.0,0.0,0.0,0.0,0.0,0.0,0.0,0.0,0.0,0.0,0.0,0.0,0.0,0.0,0.0,0.0,0.0,0.0,0.0,0.0,0.0,0.0,0.0,0.0,0.0,0.0,0.0,-4.4275,-4.5804,-4.6997,-4.786,-4.8057,-4.7585,-4.648,-4.5341,-4.4174,0.0,0.0,0.0,0.0,0.0,0.0,0.0,0.0,0.0,0.0,0.0,0.0,0.0,0.0,0.0,0.0,0.0,0.0,0.0,0.0,0.0,0.0,0.0,0.0,0.0,0.0,0.0,0.0,0.0,0.0,0.0,0.0,0.0,0.0,0.0,0.0,0.0,0.0,4.436,4.6557,0.0,0.0,0.0,0.0,0.0,0.0,0.0,0.0,1.3366,0.0,0.0,0.0,0.0,0.0,0.0,0.0,0.0,0.0,0.0,0.0,0.0,0.0,0.0,0.0,0.0,0.0,0.0,0.0,0.0,0.0,0.0,0.0,0.0,0.0,0.0,0.0,0.0,0.0,0.0,0.0,0.0,0.0,0.0,0.0,0.0,0.0,0.0,0.0,0.0,0.0,0.0,0.0,0.0,0.0,0.0,0.0,0.0,0.0,0.0,0.0,0.0,0.0,0.0,0.0,0.0,-4.1884,-4.3809,-4.5249,-4.6082,-4.6826,-4.6812,-4.5989,-4.4803,-4.3471,-4.1942,0.0,0.0,0.0,0.0,0.0,0.0,0.0,0.0,0.0,0.0,0.0,0.0,0.0,0.0,0.0,0.0,0.0,0.0,0.0,0.0,0.0,0.0,0.0,0.0,0.0,0.0,0.0,0.0,0.0,0.0,0.0,0.0,0.0,0.0,0.0,0.0,0.0,0.0,0.0,4.4887,4.3138,0.0,0.0,0.0,0.0,0.0,0.0,0.0,0.0,0.2057,0.0,0.0,0.0,0.0,0.0,0.0,0.0,0.0,0.0,0.0,0.0,0.0,0.0,0.0,0.0,0.0,0.0,0.0,0.0,0.0,0.0,0.0,0.0,0.0,0.0,0.0,0.0,0.0,0.0,0.0,0.0,0.0,0.0,0.0,0.0,0.0,0.0,0.0,0.0,0.0,0.0,0.0,0.0,0.0,0.0,0.0,0.0,0.0,0.0,0.0,0.0,0.0,0.0,0.0,0.0,-4.1752,-4.3666,-4.5064,-4.5716,-4.642,-4.6167,-4.5084,-4.3831,-4.2466,0.0,0.0,0.0,0.0,0.0,0.0,0.0,0.0,0.0,0.0,0.0,0.0,0.0,0.0,0.0,0.0,0.0,0.0,0.0,0.0,0.0,0.0,0.0,0.0,0.0,0.0,0.0,0.0,0.0,0.0,0.0,0.0,0.0,0.0,0.0,0.0,0.0,0.0,0.0,0.0,3.8042,3.5283,3.051,0.0,0.0,0.0,0.0,0.0,0.0,-0.6593,-0.7971,0.0,0.0,0.0,0.0,0.0,0.0,0.0,0.0,0.0,0.0,0.0,0.0,0.0,0.0,0.0,0.0,0.0,0.0,0.0,0.0,0.0,0.0,0.0,0.0,0.0,0.0,0.0,0.0,0.0,0.0,0.0,0.0,0.0,0.0,0.0,0.0,0.0,0.0,0.0,0.0,0.0,0.0,0.0,0.0,0.0,0.0,0.0,0.0,0.0,0.0,0.0,0.0,0.0,0.0,0.0,-4.1522,-4.3448,-4.4752,-4.5387,-4.6018,-4.5696,-4.4292,-4.3027,-4.1762,0.0,0.0,0.0,0.0,0.0,0.0,0.0,0.0,0.0,0.0,0.0,0.0,0.0,0.0,0.0,0.0,0.0,0.0,0.0,0.0,0.0,0.0,0.0,0.0,0.0,0.0,0.0,0.0,0.0,0.0,0.0,0.0,0.0,0.0,0.0,0.0,0.0,0.0,0.0,0.0,0.0,2.5386,1.9094,1.3685,0.0,0.0,0.0,0.0,-1.244,-1.4962,0.0,0.0,0.0,0.0,0.0,0.0,0.0,0.0,0.0,0.0,0.0,0.0,0.0,0.0,0.0,0.0,0.0,0.0,0.0,0.0,0.0,0.0,0.0,0.0,0.0,0.0,0.0,0.0,0.0,0.0,0.0,0.0,0.0,0.0,0.0,0.0,0.0,0.0,0.0,0.0,0.0,0.0,0.0,0.0,0.0,0.0,0.0,0.0,0.0,0.0,0.0,0.0,0.0,0.0,0.0,0.0,-4.0783,-4.2636,-4.4038,-4.4689,-4.508,-4.4538,-4.3162,-4.188,-4.0631,0.0,0.0,0.0,0.0,0.0,0.0,0.0,0.0,0.0,0.0,0.0,0.0,0.0,0.0,0.0,0.0,0.0,0.0,0.0,0.0,0.0,0.0,0.0,0.0,0.0,0.0,0.0,0.0,0.0,0.0,0.0,0.0,0.0,0.0,0.0,0.0,0.0,0.0,0.0,0.0,0.0,1.3604,0.8974,0.3315,-0.3077,0.0,0.0,-1.772,-1.9761,-2.0614,0.0,0.0,0.0,0.0,0.0,0.0,0.0,0.0,0.0,0.0,0.0,0.0,0.0,0.0,0.0,0.0,0.0,0.0,0.0,0.0,0.0,0.0,0.0,0.0,0.0,0.0,0.0,0.0,0.0,0.0,0.0,0.0,0.0,0.0,0.0,0.0,0.0,0.0,0.0,0.0,0.0,0.0,0.0,0.0,0.0,0.0,0.0,0.0,0.0,0.0,0.0,0.0,0.0,0.0,0.0,-4.0099,-4.0922,-4.2333,-4.333,-4.3777,-4.4243,-4.3686,-4.191,-4.0808,-3.9673,0.0,0.0,0.0,0.0,0.0,0.0,0.0,0.0,0.0,0.0,0.0,0.0,0.0,0.0,0.0,0.0,0.0,0.0,0.0,0.0,0.0,0.0,0.0,0.0,0.0,0.0,0.0,0.0,0.0,0.0,0.0,0.0,0.0,0.0,0.0,0.0,0.0,0.0,0.0,0.0,0.0,0.0,-0.3592,-0.7434,0.0,0.0,0.0,-2.2299,-2.3276,0.0,0.0,0.0,0.0,0.0,0.0,0.0,0.0,0.0,0.0,0.0,0.0,0.0,0.0,0.0,0.0,0.0,0.0,0.0,0.0,0.0,0.0,0.0,0.0,0.0,0.0,0.0,0.0,0.0,0.0,0.0,0.0,0.0,0.0,0.0,0.0,0.0,0.0,0.0,0.0,0.0,0.0,0.0,0.0,0.0,0.0,0.0,0.0,0.0,0.0,0.0,0.0,0.0,0.0,0.0,0.0,0.0,-4.0734,-4.1784,-4.2389,-4.2665,-4.3259,-4.2629,-4.0803,-3.9916,0.0,0.0,0.0,0.0,0.0,0.0,0.0,0.0,0.0,0.0,0.0,0.0,0.0,0.0,0.0,0.0,0.0,0.0,0.0,0.0,0.0,0.0,0.0,0.0,0.0,0.0,0.0,-1.1348,0.0,0.0,0.0,0.0,0.0,0.0,0.0,0.0,0.0,0.0,0.0,0.0,0.0,0.0,-1.0583,-1.4328,-1.6495,-1.9387,0.0,0.0,-2.5718,-2.6061,-2.5554,-2.4527,0.0,0.0,0.0,0.0,0.0,0.0,0.0,0.0,0.0,0.0,0.0,0.0,0.0,0.0,0.0,0.0,0.0,0.0,0.0,0.0,0.0,0.0,0.0,0.0,0.0,0.0,0.0,0.0,0.0,0.0,0.0,0.0,0.0,0.0,0.0,0.0,0.0,0.0,0.0,0.0,0.0,0.0,0.0,0.0,0.0,0.0,0.0,0.0,0.0,0.0,0.0,0.0,0.0,0.0,0.0,-3.966,-4.0531,-4.1191,-4.1589,-4.1989,-4.1506,-4.005,-3.9253,-3.8546,0.0,0.0,0.0,0.0,0.0,0.0,0.0,0.0,0.0,0.0,0.0,0.0,0.0,0.0,0.0,0.0,0.0,0.0,0.0,0.0,0.0,0.0,0.0,0.0,0.0,0.0,0.0,0.0,0.0,0.0,0.0,0.0,0.0,0.0,0.0,0.0,0.0,0.0,0.0,0.0,0.0,-1.8993,-2.1754,-2.2634,-2.4466,0.0,0.0,-2.8587,-2.9125,-2.8094,-2.6559,-2.4606,0.0,0.0,0.0,0.0,0.0,0.0,0.0,0.0,0.0,0.0,0.0,0.0,0.0,0.0,0.0,0.0,0.0,0.0,0.0,0.0,0.0,0.0,0.0,0.0,0.0,0.0,0.0,0.0,0.0,0.0,0.0,0.0,0.0,0.0,0.0,0.0,0.0,0.0,0.0,0.0,0.0,0.0,0.0,0.0,0.0,0.0,0.0,0.0,0.0,0.0,0.0,0.0,0.0,-3.7971,-3.9427,-3.9648,-4.0014,-4.0549,-4.109,-4.0624,-3.9284,-3.8882,-3.8182,0.0,0.0,0.0,0.0,0.0,0.0,0.0,0.0,0.0,0.0,0.0,0.0,0.0,0.0,0.0,0.0,0.0,0.0,0.0,0.0,0.0,0.0,0.0,0.0,0.0,0.0,0.0,0.0,-1.8787,-1.8847,-1.8832,0.0,0.0,0.0,0.0,0.0,0.0,0.0,0.0,0.0,0.0,-2.413,-2.4766,-2.6113,0.0,0.0,-3.0211,-3.0033,-2.9471,-2.851,-2.7245,-2.5677,-2.5797,0.0,0.0,0.0,0.0,0.0,0.0,0.0,0.0,0.0,0.0,0.0,0.0,0.0,0.0,0.0,0.0,0.0,0.0,0.0,0.0,0.0,0.0,0.0,0.0,0.0,0.0,0.0,0.0,0.0,0.0,0.0,0.0,0.0,0.0,0.0,0.0,0.0,0.0,0.0,0.0,0.0,0.0,0.0,0.0,0.0,0.0,0.0,0.0,0.0,0.0,0.0,0.0,-3.7181,-3.8664,-3.871,-3.8948,-3.9547,-4.0145,-3.9873,-3.8605,-3.8453,-3.7808,0.0,0.0,0.0,0.0,0.0,0.0,0.0,0.0,0.0,0.0,0.0,0.0,0.0,0.0,0.0,0.0,0.0,0.0,0.0,0.0,0.0,0.0,0.0,0.0,0.0,0.0,0.0,0.0,-2.2775,-2.3261,-2.3881,0.0,0.0,0.0,0.0,0.0,0.0,0.0,0.0,0.0,0.0,-2.7139,-2.7344,-2.8567,-2.9847,-3.0907,-3.1161,-3.0888,-2.9911,-2.898,-2.7818,-2.6474,0.0,0.0,0.0,0.0,0.0,0.0,0.0,0.0,0.0,0.0,0.0,0.0,0.0,0.0,0.0,0.0,0.0,0.0,0.0,0.0,0.0,0.0,0.0,0.0,0.0,0.0,0.0,0.0,0.0,0.0,-3.176,0.0,0.0,0.0,0.0,0.0,0.0,0.0,0.0,0.0,0.0,0.0,0.0,0.0,0.0,0.0,0.0,0.0,0.0,0.0,0.0,0.0,0.0,-3.6324,-3.7202,-3.7498,-3.7965,-3.863,-3.9143,-3.8918,-3.8015,-3.7947,-3.7346,-3.6087,0.0,0.0,0.0,0.0,0.0,0.0,0.0,0.0,0.0,0.0,0.0,0.0,0.0,0.0,0.0,0.0,0.0,0.0,0.0,0.0,0.0,0.0,0.0,0.0,0.0,0.0,-2.5909,-2.5702,-2.6073,0.0,0.0,0.0,0.0,0.0,0.0,0.0,0.0,0.0,0.0,-2.8527,-2.8044,-2.978,-3.0138,-3.0525,-3.1913,-3.1892,-3.1367,-3.0509,-2.9665,-2.8581,0.0,0.0,0.0,0.0,0.0,0.0,0.0,0.0,0.0,0.0,0.0,0.0,0.0,0.0,0.0,0.0,0.0,0.0,0.0,0.0,0.0,0.0,0.0,0.0,0.0,0.0,0.0,-3.0538,-3.0821,0.0,0.0,0.0,0.0,0.0,0.0,0.0,0.0,0.0,0.0,0.0,-3.4866,-3.4925,0.0,0.0,0.0,0.0,0.0,0.0,0.0,0.0,0.0,0.0,0.0,0.0,-3.6253,-3.6895,-3.7061,-3.739,-3.7973,-3.869,-3.8693,-3.8015,-3.8133,-3.7638,-3.635,0.0,0.0,0.0,0.0,0.0,0.0,0.0,0.0,0.0,0.0,0.0,0.0,0.0,0.0,0.0,0.0,0.0,0.0,0.0,0.0,0.0,0.0,0.0,0.0,0.0,-2.8077,0.0,0.0,0.0,0.0,0.0,0.0,0.0,0.0,0.0,0.0,0.0,-3.0478,-2.9437,-2.9008,-2.9171,-2.9814,-3.0626,-3.1494,0.0,0.0,0.0,0.0,0.0,0.0,0.0,0.0,0.0,0.0,0.0,0.0,0.0,0.0,-1.1178,-1.0123,-1.0071,-1.0207,-1.05,0.0,0.0,0.0,0.0,0.0,0.0,0.0,0.0,0.0,0.0,0.0,0.0,0.0,0.0,-3.0778,0.0,-3.1394,0.0,0.0,0.0,0.0,0.0,0.0,0.0,0.0,-3.5466,-3.5546,-3.5478,-3.5336,-3.542,0.0,-3.5894,-3.5953,0.0,0.0,0.0,0.0,0.0,0.0,0.0,0.0,-3.6168,-3.6663,-3.6734,-3.7011,-3.7475,-3.8189,-3.8391,-3.8015,-3.7834,-3.7322,-3.6374,-3.561,-3.5008,0.0,0.0,0.0,0.0,0.0,0.0,0.0,0.0,0.0,0.0,0.0,0.0,0.0,0.0,0.0,0.0,0.0,0.0,0.0,0.0,0.0,0.0,0.0,-2.9875,0.0,0.0,0.0,0.0,0.0,0.0,0.0,0.0,0.0,-3.1699,-3.1574,-3.1133,-2.9665,-2.9636,-2.9921,-3.0446,0.0,0.0,0.0,0.0,0.0,0.0,0.0,-2.8773,-2.7102,-2.5062,-2.275,-2.016,-1.6375,-1.285,-1.0222,0.0,0.0,-0.7912,-0.7868,-0.8008,-0.8553,-0.8423,-0.8288,-0.8153,-0.7346,-0.6533,0.0,0.0,0.0,0.0,0.0,0.0,0.0,0.0,-3.1158,-3.1265,0.0,-3.1928,0.0,0.0,0.0,0.0,0.0,-3.5271,0.0,0.0,-3.6199,-3.6498,-3.6113,-3.6113,-3.6113,-3.6113,-3.6498,-3.6558,-3.6366,-3.6058,0.0,0.0,0.0,0.0,0.0,0.0,-3.6087,-3.6411,-3.6519,-3.6801,-3.7111,-3.7713,-3.8015,-3.799,-3.7203,-3.6557,-3.6171,-3.5219,-3.4891,-3.5223,-3.4597,0.0,0.0,0.0,0.0,0.0,0.0,0.0,0.0,0.0,0.0,0.0,0.0,0.0,0.0,0.0,0.0,0.0,0.0,0.0,0.0,-3.0719,0.0,0.0,0.0,0.0,0.0,0.0,0.0,0.0,0.0,0.0,-3.2747,-3.1604,-3.085,-3.077,0.0,0.0,0.0,0.0,-3.2525,-3.3144,-3.2667,-3.1886,-3.1115,-2.9904,-2.8395,-2.6628,0.0,0.0,-1.6716,-1.362,-1.0933,-0.8399,-0.6913,-0.5922,-0.6465,-0.5873,-0.5597,-0.6295,-0.6434,-0.6577,-0.6864,-0.6302,-0.56,-3.0736,0.0,0.0,0.0,0.0,-3.1942,-3.2176,-3.1743,-3.1577,-3.2113,-3.3032,-3.255,0.0,0.0,0.0,0.0,0.0,0.0,-3.5389,-3.6139,-3.6326,-3.6393,-3.6504,-3.6345,-3.6345,-3.6529,-3.6687,-3.6664,-3.6545,-3.655,-3.6189,-3.5301,0.0,0.0,0.0,0.0,-3.6199,-3.6813,-3.6483,-3.6437,-3.6679,-3.7513,-3.799,-3.799,-3.7713,-3.7102,-3.6065,-3.5801,-3.5418,-3.4643,-3.4766,0.0,0.0,0.0,0.0,0.0,0.0,0.0,0.0,0.0,0.0,0.0,0.0,0.0,0.0,0.0,0.0,0.0,0.0,0.0,-3.0674,-3.1064,-3.1567,0.0,0.0,0.0,0.0,0.0,0.0,0.0,0.0,0.0,-3.3598,-3.2745,-3.1865,0.0,0.0,-3.1742,-3.2275,-3.2671,-3.2897,-3.2897,-3.2402,0.0,0.0,-2.8977,-2.7334,-2.5657,-2.2149,-1.8461,-1.5793,-1.32,-1.1096,-0.9237,-0.7386,-0.5946,-0.5623,-0.4892,-0.4605,-0.4751,-0.4751,-0.4751,-0.461,-0.4325,-0.4035,-3.2423,-3.2387,-3.2133,-3.1612,-3.129,-3.272,-3.3186,-3.2956,-3.2822,-3.3095,-3.3727,-3.3683,-3.3705,-3.3683,-3.3882,0.0,0.0,0.0,-3.5642,-3.6288,-3.6632,-3.6684,-3.6653,-3.686,-3.6985,-3.7031,-3.7273,-3.7311,-3.7143,-3.7217,-3.6831,-3.5869,0.0,0.0,-3.4774,-3.5667,-3.6639,-3.7391,-3.6996,-3.6836,-3.701,-3.7889,-3.8241,-3.8015,-3.799,-3.7434,-3.6117,-3.6024,-3.5724,-3.4813,-3.4868,-3.4331,0.0,0.0,0.0,0.0,0.0,0.0,0.0,0.0,0.0,0.0,0.0,-3.0214,-3.0537,0.0,0.0,0.0,-3.1158,-3.1298,-3.1453,-3.1825,0.0,0.0,0.0,0.0,0.0,0.0,0.0,-3.5583,-3.5255,-3.4862,-3.4465,-3.3819,-3.3223,-3.2562,-3.2727,-3.3019,-3.3038,0.0,-3.3277,-3.2902,-3.2315,-3.1502,-3.014,-2.8593,-2.6456,-2.3747,-2.0119,-1.7106,-1.5132,-1.3174,-1.1312,-0.9723,-0.8275,-0.6986,-0.6151,-0.543,-0.4689,-0.4231,-0.3935,-0.3791,-0.3354,-0.3354,-0.35,-3.4356,-3.4745,-3.3384,-3.2559,-3.2418,-3.3401,-3.3991,-3.449,-3.4459,-3.4244,-3.3961,-3.5127,-3.5325,-3.4726,-3.5175,0.0,-3.543,-3.5941,-3.6157,-3.6008,-3.7115,-3.7207,-3.6574,-3.7565,-3.7841,-3.7642,-3.8162,-3.8212,-3.7965,-3.7973,-3.7585,-3.6792,-3.6573,-3.6025,-3.5186,-3.6109,-3.7025,-3.7971,-3.7782,-3.7804,-3.8065,-3.8542,-3.8542,-3.8015,-3.7965,-3.7437,-3.6408,-3.6067,-3.5811,-3.5379,-3.5105,-3.4451,-3.345,0.0,0.0,0.0,0.0,0.0,0.0,0.0,0.0,0.0,0.0,0.0,0.0,0.0,0.0,0.0,-3.2606,0.0,-3.2279,-3.2836,0.0,0.0,0.0,-3.4779,-3.5335,-3.5216,-3.5211,-3.5725,0.0,0.0,-3.5171,-3.4969,-3.457,-3.4219,-3.4152,-3.3981,-3.3961,-3.3816,-3.367,-3.2892,-3.2256,-3.1359,-2.9865,-2.8113,-2.5544,-2.1596,-1.8865,-1.6997,-1.5186,-1.3491,-1.1907,-1.0649,-0.9468,-0.8629,-0.7703,-0.6833,-0.5779,-0.4836,-0.4097,-0.3512,-0.337,-0.3518,-0.3958,-3.5095,-3.5765,-3.5079,-3.4388,-3.372,-3.4749,-3.5445,-3.5833,-3.5635,-3.5441,-3.5511,-3.5394,-3.5152,-3.4726,-3.4816,-3.5133,-3.5445,-3.5663,-3.61,-3.688,-3.7157,-3.7337,-3.7294,-3.7766,-3.8139,-3.8338,-3.8139,-3.8114,-3.799,-3.7962,-3.7837,-3.7711,-3.7627,-3.6868,-3.5403,-3.6252,-3.7108,-3.7977,-3.7934,-3.8189,-3.8642,-3.8366,-3.8165,-3.8015,-3.7613,-3.7061,-3.6383,-3.6326,-3.5823,-3.4956,-3.4958,-3.4346,-3.2816,-3.2803,0.0,0.0,0.0,0.0,0.0,0.0,0.0,0.0,0.0,-3.154,-3.1785,0.0,-3.2581,0.0,-3.366,-3.3594,-3.3443,-3.3498,0.0,0.0,-3.4955,-3.5479,-3.6662,-3.6046,-3.5785,-3.6074,-3.5537,-3.5111,-3.5289,-3.5185,-3.5198,-3.5416,-3.4913,-3.429,-3.4034,-3.374,-3.3292,-3.2568,-3.18,-3.0732,-2.943,-2.6988,-2.4317,-2.1534,-1.9703,-1.8174,-1.6654,-1.5102,-1.3849,-1.3088,-1.1791,-1.0767,-1.0048,-0.8865,-0.7968,-0.7344,-0.5992,-0.4499,-0.4496,-0.4798,-0.5098,-3.6152,-3.6928,-3.6597,-3.6185,-3.56,-3.5719,-3.6007,-3.6347,-3.6148,-3.6168,-3.6168,-3.5937,-3.5705,-3.5454,-3.5454,-3.5604,-3.5931,-3.6157,-3.6609,-3.7211,-3.7688,-3.7891,-3.7717,-3.8467,-3.8894,-3.9095,-3.8894,-3.8768,-3.8768,-3.8768,-3.8642,-3.8391,-3.8391,-3.7841,-3.6868,-3.7182,-3.7758,-3.8741,-3.8516,-3.8542,-3.8843,-3.8291,-3.7889,-3.7638,-3.7337,-3.691,-3.6383,-3.6358,-3.5981,-3.5152,-3.5168,-3.464,-3.3593,-3.3376,-3.331,0.0,0.0,0.0,0.0,0.0,0.0,0.0,0.0,0.0,0.0,0.0,-3.4222,-3.498,-3.4969,-3.4903,-3.4623,-3.4558,-3.4723,-3.5244,-3.5349,-3.567,-3.6316,-3.6019,-3.5906,-3.5972,-3.5659,-3.5441,-3.5605,-3.5583,-3.5638,-3.5894,-3.5343,-3.4851,-3.4394,-3.4141,-3.3598,-3.2711,-3.1797,-3.0434,-2.8642,-2.6448,-2.4219,-2.2167,-2.0592,-1.9206,-1.7898,-1.6613,-1.5345,-1.4547,-1.3386,-1.2366,-1.1678,-1.0492,-0.9602,-0.9193,-0.8139,-0.6884,-0.606,-0.6197,-0.6351,-3.73,-3.8103,-3.7765,-3.7668,-3.7568,-3.6696,-3.6322,-3.6538,-3.6433,-3.6358,-3.6358,-3.6358,-3.6358,-3.6358,-3.6358,-3.6408,-3.6508,-3.696,-3.7262,-3.7462,-3.8417,-3.8692,-3.8289,-3.9268,-3.9697,-3.9697,-3.9697,-3.9697,-3.9697,-3.9697,-3.9446,-3.8994,-3.8969,-3.8944,-3.8742,-3.8342,-3.8767,-3.9652,-3.9272,-3.8944,-3.8868,-3.8291,-3.7739,-3.7211,-3.7111,-3.686,-3.6383,-3.6358,-3.6107,-3.5579,-3.5437,-3.5186,-3.4751,-3.4324,-3.4324,0.0,-3.4449,0.0,0.0,0.0,0.0,0.0,0.0,0.0,0.0,-3.5867,-3.6207,-3.6508,-3.6511,-3.6226,-3.5799,-3.5664,-3.5382,-3.5274,-3.5634,-3.581,-3.5562,-3.5753,-3.5902,-3.5944,-3.5736,-3.5625,-3.5937,-3.6035,-3.6016,-3.5976,-3.5684,-3.5179,-3.4848,-3.4634,-3.3973,-3.2721,-3.1801,-3.0238,-2.7809,-2.6238,-2.4862,-2.3106,-2.1462,-2.0172,-1.903,-1.7723,-1.6702,-1.5685,-1.467,-1.3664,-1.2733,-1.1848,-1.1121,-1.091,-1.0153,-0.9166,-0.7951,-0.7456,-0.7591,-3.7853,-3.8644,-3.8128,-3.8163,-3.8617,-3.7866,-3.7487,-3.7232,-3.6679,-3.6358,-3.6358,-3.6358,-3.6358,-3.6358,-3.6358,-3.6609,-3.7036,-3.7136,-3.7688,-3.8567,-3.8768,-3.9094,-3.9368,-3.9622,-3.9697,-3.9697,-3.9697,-3.9697,-3.9697,-3.9697,-3.9647,-3.9546,-3.9546,-3.9546,-3.9521,0.0,0.0,0.0,-3.9546,-3.932,-3.8868,-3.8291,-3.7739,-3.7211,-3.6759,0.0,-3.6383,-3.6358,-3.6107,-3.5579,-3.5915,0.0,0.0,0.0,0.0,0.0,0.0,0.0,0.0,0.0,0.0,0.0,-3.7531,-3.7453,-3.6795,-3.7629,-3.8072,-3.7613,-3.753,-3.7247,-3.6816,-3.6124,-3.5891,-3.6265,-3.6123,-3.614,-3.6582,-3.6456,-3.6323,-3.634,-3.615,-3.5937,-3.5996,-3.6035,-3.6035,-3.6016,-3.5685,-3.5335,-3.4948,-3.4356,-3.3558,-3.2721,-3.1313,-2.9663,-2.7852,-2.6677,-2.5385,-2.3838,-2.2443,-2.1281,-1.9959,-1.8821,-1.7862,-1.6944,-1.5785,-1.471,-1.4444,-1.3223,-1.2152,-1.2185,-1.1417,-1.0624,-0.9341,-0.8712,-0.8562,-3.8022,0.0,-3.8546,-3.8757,0.0,-3.8668,-3.8291,-3.8114,-3.7136,-3.6609,-3.6383,-3.6634,-3.6759,-3.6784,-3.7061,-3.7337,-3.7588,-3.7889,-3.8316,-3.8868,-3.9145,-3.9421,-3.9697,-3.9697,-3.9697,-3.9697,-3.9697,-3.9697,-3.9697,-3.9697,-3.9697,-3.9697,-3.9697,-3.9697,-3.9697,-3.9697,-3.9697,-3.9697,-3.9421,-3.9145,-3.8868,-3.8316,-3.7739,-3.7186,0.0,0.0,0.0,0.0,0.0,0.0,0.0,0.0,0.0,0.0,0.0,-3.6497,-3.6746,-3.7022,-3.7568,-3.7666,-3.7731,-3.7621,-3.897,-3.931,-3.8379,-3.89,-3.9101,-3.8671,-3.8478,-3.8136,-3.7577,-3.6905,-3.6581,-3.654,-3.6708,-3.6742,-3.682,-3.6881,-3.6683,-3.6459,-3.6268,-3.6035,-3.6035,-3.6035,-3.6035,-3.6016,-3.5743,-3.5333,-3.4883,-3.4289,-3.3329,-3.2098,-3.0855,-2.9412,-2.8162,-2.6967,-2.5855,-2.4543,-2.3369,-2.2068,-2.098,-1.981,-1.8803,-1.7854,-1.6653,-1.5735,-1.4968,-1.3891,-1.2965,-1.2811,-1.2192,-1.1417,-1.0486,-1.0019,-0.9553,-3.8128,-3.8841,-3.8841,-3.9154,-3.9647,-3.922,-3.8969,-3.8793,0.0,0.0,0.0,-3.7136,-3.7312,-3.7362,-3.7814,-3.8065,-3.8191,-3.8642,-3.8919,-3.9044,-3.9471,-3.9697,-3.9697,-3.9697,-3.9697,-3.9697,-3.9697,-3.9697,-3.9697,-3.9697,-3.9697,-3.9697,-3.9697,-3.9697,-3.9697,-3.9697,-3.9697,-3.9672,-3.9245,-3.8969,-3.8868,-3.8417,-3.7889,-3.7337,-3.7312,-3.7111,-3.6684,-3.7232,-3.7484,-3.7362,-3.8111,-3.829,-3.7916,-3.7717,-3.7692,-3.7692,-3.7639,-3.7857,-3.83,-3.8712,-3.8655,-3.776,-3.9738,-4.0588,-3.9801,-3.9826,-3.973,-3.9588,-3.9267,-3.8732,-3.8074,-3.7703,-3.7335,-3.6834,-3.717,-3.7353,-3.7156,-3.7104,-3.6924,-3.6654,-3.6268,-3.6035,-3.6035,-3.6035,-3.6016,-3.5899,-3.5606,-3.5196,-3.4646,-3.378,-3.2892,-3.135,-3.0326,-2.9361,-2.831,-2.7156,-2.6107,-2.5267,-2.3909,-2.2694,-2.1648,-2.0597,-1.9531,-1.8329,-1.7416,-1.6501,-1.5429,-1.4353,-1.3583,-1.3274,-1.2501,-1.1882,-1.1417,-1.0952,-1.0486,-3.8526,-3.8841,-3.9154,-3.9387,-3.9697,-3.9622,-3.932,-3.8818,-3.8165,-3.7839,-3.7789,-3.7864,-3.7889,-3.7889,-3.7965,-3.8266,-3.8743,-3.8843,-3.912,0.0,-3.9647,-3.9697,-3.9697,-3.9697,-3.9697,-3.9697,-3.9697,-3.9697,-3.9697,-3.9697,-3.9697,-3.9697,-3.9697,-3.9697,-3.9697,-3.9697,-3.9697,-3.9697,-3.9622,-3.9346,-3.8894,-3.8793,-3.8492,-3.7939,-3.7889,-3.7864,-3.7789,-3.764,-3.7592,-3.7889,-3.7991,-3.7967,-3.7668,-3.7888,-3.7931,-3.798,-3.8792,-3.9357,-3.9431,-3.9707,-3.9757,-3.9546,-3.982,-4.0101,-4.0242,-4.0488,-4.0405,-4.0129,-3.9522,-3.898,-3.8403,-3.8133,-3.7935,-3.7657,-3.774,-3.7942,-3.8005,-3.7441,-3.7079,-3.6944,-3.6423,-3.6035,-3.6035,-3.6035,-3.5879,-3.5606,-3.5196,-3.4508,-3.34,-3.2684,-3.1982,-3.1135,-3.0157,-2.9138,-2.8243,-2.71,-2.6121,-2.5281,-2.4071,-2.2843,-2.181,-2.0898,-1.9844,-1.8643,-1.7569,-1.6653,-1.605,-1.4822,-1.3898,-1.359,-1.2965,-1.2192,-1.1417,-1.1107,-1.0796,-3.8526,-3.8841,-3.9154,-3.949,-3.9697,-3.9697,-3.9546,-3.9295,-3.9044,-3.8567,-3.8065,-3.8341,-3.8467,-3.8492,-3.8793,-3.9069,-3.932,-3.932,-3.9471,-3.9672,-3.9697,-3.9697,-3.9697,-3.9697,-3.9697,-3.9697,-3.9697,-3.9697,-3.9697,-3.9697,-3.9697,-3.9697,-3.9697,-3.9697,-3.9697,-3.9697,-3.9697,-3.9697,-3.9697,-3.9572,-3.9346,-3.932,-3.9044,-3.8492,-3.8467,-3.8316,-3.8015,-3.8017,-3.8066,-3.8241,-3.8388,-3.8358,-3.8231,-3.8118,-3.8178,-3.8388,-3.8634,-3.8923,-3.9522,-4.0074,-4.023,-4.0077,-4.0011,-4.0058,-4.0263,-4.0337,-4.0363,-4.0013,-3.9544,-3.9072,-3.8522,-3.8321,-3.8189,-3.7784,-3.8102,-3.8178,-3.8088,-3.7502,-3.7079,-3.7079,-3.6403,-3.6016,-3.6035,-3.5879,-3.5743,-3.547,-3.4921,-3.3955,-3.2859,-3.1999,-3.1277,-3.071,-2.9728,-2.8707,-2.7955,-2.6808,-2.5828,-2.5026,-2.4084,-2.3005,-2.1798,-2.1048,-2.0145,-1.8946,-1.7721,-1.6959,-1.6357,-1.4822,-1.3898,-1.359,-1.2811,-1.2037,-1.1417,-1.0796,-1.0175,-3.8729,-3.8841,-3.9258,-3.949,-3.9697,-3.9697,-3.9697,-3.9697,-3.9697,-3.9195,-3.8517,-3.8868,-3.9044,-3.9094,-3.9496,-3.9697,-3.9697,-3.9697,-3.9697,-3.9697,-3.9697,-3.9697,-3.9697,-3.9697,-3.9697,-3.9697,-3.9697,-3.9697,-3.9697,-3.9697,-3.9697,-3.9697,-3.9697,-3.9697,-3.9697,-3.9697,-3.9697,-3.9697,-3.9697,-3.9697,-3.9697,-3.9697,-3.9496,-3.9094,-3.9044,-3.8843,-3.8342,-3.8465,-3.8587,-3.8534,-3.8718,-3.8802,-3.8827,-3.8393,-3.8335,-3.8742,-3.8422,-3.8559,-3.9335,-3.9966,-4.006,-3.9873,-3.9709,-3.9592,-3.9755,-3.9755,-3.9779,-3.9661,-3.9308,-3.8834,-3.8447,-3.8454,-3.8444,-3.7954,-3.823,-3.8414,-3.8109,-3.7502,-3.7079,-3.6944,-3.6403,-3.6035,-3.6035,-3.5762,-3.5333,-3.5059,-3.4232,-3.326,-3.2561,-3.1576,-3.0726,-3.0157,-2.9282,-2.8388,-2.762,-2.6634,-2.5534,-2.4743,-2.3948,-2.3005,-2.1948,-2.121,-2.0307,-1.8946,-1.7873,-1.7111,-1.6203,-1.4822,-1.3898,-1.359,-1.2811,-1.1727,-1.0952,-1.0052,-0.9266,-3.9177,-3.8865,-3.9387,-3.9697,-3.9697,-3.9697,-3.9697,-3.9697,-3.9697,-3.9672,-3.9496,-3.9597,-3.9597,-3.9622,-3.9672,-3.9697,-3.9697,-3.9697,-3.9697,-3.9697,-3.9697,-3.9697,-3.9697,-3.9697,-3.9697,-3.9697,-3.9697,-3.9697,-3.9697,-3.9697,-3.9697,-3.9697,-3.9697,-3.9697,-3.9697,-3.9697,-3.9697,-3.9697,-3.9697,-3.9697,-3.9697,-3.9697,-3.9672,-3.9622,-3.9622,-3.9494,-3.9137,-3.9262,-3.908,-3.8816,-3.8776,-3.8851,-3.8791,-3.8627,-3.8689,-3.8648,-3.8821,-3.8989,-3.9288,-3.9144,-3.893,-3.893,-3.8716,-3.8596,-3.8619,-3.8619,-3.8834,-3.9072,-3.8834,-3.838,-3.8043,-3.8451,-3.8477,-3.7848,-3.8333,-3.8374,-3.7729,-3.7348,-3.6944,-3.6519,-3.6268,-3.6035,-3.5879,-3.5606,-3.5059,-3.4232,-3.34,-3.2561,-3.1859,-3.101,-3.0157,-2.9441,-2.8722,-2.7939,-2.7156,-2.6328,-2.5387,-2.4581,-2.3948,-2.2856,-2.1798,-2.0898,-1.9995,-1.8795,-1.7721,-1.6806,-1.605,-1.4976,-1.3744,-1.3472,-1.2535,-1.1436,-1.0347,-0.9484,-0.8883,-3.9505,-3.9283,-3.9615,-3.9697,-3.9697,-3.9697,-3.9697,-3.9697,-3.9697,-3.9697,-3.9697,-3.9697,-3.9697,-3.9697,-3.9697,-3.9697,-3.9697,-3.9697,-3.9697,-3.9697,-3.9697,-3.9697,-3.9697,-3.9697,-3.9697,-3.9697,-3.9697,-3.9697,-3.9697,-3.9697,-3.9697,-3.9697,-3.9697,-3.9697,-3.9697,-3.9697,-3.9697,-3.9697,-3.9697,-3.9697,-3.9697,-3.9697,-3.9697,-3.9697,-3.9594,-3.9387,-3.9308,-3.9241,-3.9096,-3.8825,-3.8875,-3.8943,-3.8722,-3.8353,-3.8271,-3.8572,-3.8618,-3.8748,-3.8716,-3.8477,-3.8216,-3.8216,-3.7976,-3.7758,-3.7758,-3.7616,-3.7616,-3.7856,-3.7856,-3.7758,-3.7703,-3.8,-3.8059,-3.7699,-3.8026,-3.8171,-3.7616,-3.7079,-3.6654,-3.6519,-3.6132,-3.5879,-3.5606,-3.4921,-3.4232,-3.3539,-3.2701,-3.1999,-3.1559,-3.0584,-2.9585,-2.8995,-2.813,-2.7346,-2.6663,-2.5716,-2.4931,-2.4071,-2.3166,-2.2247,-2.151,-2.0597,-1.9682,-1.8481,-1.7416,-1.6501,-1.5582,-1.4669,-1.3605,-1.3064,-1.1944,-1.0708,-0.9919,-0.8997,-0.8198,-3.9682,-3.9472,-3.9586,-3.9594,-3.9697,-3.9697,-3.9697,-3.9697,-3.9697,-3.9697,-3.9594,-3.9594,-3.949,-3.949,-3.9594,-3.9569,-3.9594,-3.949,-3.949,-3.949,-3.949,-3.9465,-3.9362,-3.949,-3.949,-3.949,-3.949,-3.949,-3.949,-3.949,-3.9465,-3.949,-3.9594,-3.9594,-3.9594,-3.9697,-3.9697,-3.9697,-3.9697,-3.9697,-3.9722,-3.9744,-3.9744,-3.9619,-3.9536,-3.9481,-3.9297,-3.9258,-3.9225,-3.8923,-3.8959,-3.8906,-3.8591,-3.8114,-3.802,-3.8128,-3.8037,-3.7878,-3.79,-3.7637,-3.7517,-3.7517,-3.7253,-3.7132,-3.7154,-3.6889,-3.6767,-3.6767,-3.6889,-3.6889,-3.7119,-3.7502,-3.753,-3.7252,-3.7632,-3.7883,-3.7348,-3.6789,-3.6384,-3.6248,-3.6016,-3.5606,-3.5196,-3.437,-3.3678,-3.2981,-3.2123,-3.1277,-3.0993,-3.0014,-2.9154,-2.8418,-2.742,-2.6794,-2.6242,-2.5437,-2.4327,-2.3476,-2.2731,-2.1948,-2.106,-2.0145,-1.9239,-1.8025,-1.7111,-1.6203,-1.5292,-1.4376,-1.3092,-1.2127,-1.1124,-1.0061,-0.9225,-0.8293,-0.7502,-4.0147,-3.9282,-3.9272,-3.949,-3.9697,-3.9697,-3.9697,-3.9594,-3.9697,-3.9594,-3.9362,-3.9258,-3.9154,-3.8945,-3.9154,-3.9258,-3.9258,-3.905,-3.8995,-3.9149,-3.897,-3.8816,-3.8662,-3.8816,-3.8841,-3.8945,-3.8945,-3.8945,-3.8841,-3.8841,-3.8841,-3.8841,-3.9154,-3.9258,-3.9362,-3.949,-3.9697,-3.9644,-3.9644,-3.9747,-3.9798,-3.991,-3.9804,-3.9457,-3.978,-3.9709,-3.9331,-3.9358,-3.9316,-3.9094,-3.8801,-3.8527,-3.8435,-3.8376,-3.8007,-3.7451,-3.711,-3.6889,-3.6667,-3.6545,-3.6545,-3.6423,-3.6423,-3.6423,-3.63,-3.6279,-3.6279,-3.6423,-3.5788,-3.5788,-3.6364,-3.6876,-3.704,-3.6867,-3.7217,-3.7287,-3.6654,-3.6519,-3.6268,-3.5743,-3.547,-3.5196,-3.4508,-3.4094,-3.3242,-3.2403,-3.1841,-3.1135,-2.9871,-2.9441,-2.8578,-2.7565,-2.6692,-2.6239,-2.5786,-2.4904,-2.4084,-2.308,-2.2295,-2.1648,-2.0447,-1.939,-1.8481,-1.7588,-1.6536,-1.5633,-1.4855,-1.3708,-1.2298,-1.1296,-1.0556,-0.9622,-0.868,-0.8052,-0.7252,-4.0282,-3.9414,-3.9431,-3.9371,-3.9179,-3.9154,-3.9154,-3.9179,-3.9179,-3.905,-3.8945,-3.8945,-3.8945,-3.8841,-3.8526,-3.8631,-3.8945,-3.8841,-3.8841,-3.8841,-3.8841,-3.8712,-3.8662,-3.8712,-3.8841,-3.8841,-3.8841,-3.8841,-3.8841,-3.8841,-3.8841,-3.8841,-3.8945,-3.8945,-3.8945,-3.905,-3.9327,-3.9649,-3.9674,-3.9848,-4.0145,-4.0285,-4.0045,-3.979,-3.9937,-3.9818,-3.9406,-3.9666,-3.9391,-3.8733,-3.8873,-3.8798,-3.8111,-3.7648,-3.7132,-3.6603,-3.6624,-3.6545,-3.6423,-3.6178,-3.5932,-3.5788,-3.5541,-3.5418,-3.517,-3.517,-3.517,-3.5046,-3.4922,-3.4922,-3.521,-3.5865,-3.6289,-3.6261,-3.6648,-3.6789,-3.6519,-3.6132,-3.5743,-3.547,-3.4921,-3.4232,-3.3955,-3.3242,-3.2544,-3.1841,-3.0993,-3.014,-2.9441,-2.8578,-2.7565,-2.6983,-2.596,-2.5212,-2.5065,-2.4327,-2.3464,-2.2619,-2.1719,-2.091,-1.9833,-1.8633,-1.7731,-1.7023,-1.5975,-1.4828,-1.4079,-1.2668,-1.1206,-1.0622,-0.9866,-0.8912,-0.8136,-0.7312,-0.6334,-4.039,-3.9951,-3.956,-3.9324,-3.9006,-3.8915,-3.8841,-3.8841,-3.8841,-3.8736,-3.8631,-3.8631,-3.8526,-3.8315,-3.7868,-3.7868,-3.821,-3.821,-3.8185,-3.8161,-3.8185,-3.8185,-3.8161,-3.8185,-3.821,-3.8185,-3.821,-3.8185,-3.8315,-3.8291,-3.8315,-3.8421,-3.8526,-3.8729,-3.8851,-3.9006,-3.9357,-3.98,-3.9898,-4.0094,-4.033,-4.0416,-4.0269,-4.0072,-4.0081,-3.997,-3.9627,-3.9651,-3.9475,-3.8849,-3.8771,-3.8335,-3.7495,-3.6889,-3.638,-3.6013,-3.589,-3.5932,-3.5788,-3.5562,-3.5294,-3.5046,-3.4922,-3.4673,-3.4423,-3.4423,-3.4423,-3.4423,-3.4298,-3.4173,-3.4332,-3.4843,-3.5361,-3.5611,-3.6003,-3.6248,-3.6132,-3.5606,-3.5196,-3.4784,-3.4232,-3.3678,-3.326,-3.2544,-3.17,-3.1135,-3.0283,-2.9441,-2.8578,-2.771,-2.6692,-2.6253,-2.5373,-2.4488,-2.3883,-2.3141,-2.257,-2.1707,-2.0944,-2.0156,-1.9088,-1.8035,-1.7005,-1.6291,-1.5302,-1.417,-1.2881,-1.1427,-1.0536,-0.9937,-0.9146,-0.8173,-0.7201,-0.6211,-0.5541,-4.0491,-4.0474,-3.9661,-3.9223,-3.9291,-3.8851,-3.8736,-3.8631,-3.8736,-3.8526,-3.8315,-3.808,-3.7892,-3.7596,-3.7251,-3.712,-3.7143,-3.712,-3.712,-3.7227,-3.7143,-3.7143,-3.712,-3.7227,-3.7227,-3.712,-3.712,-3.712,-3.7251,-3.7251,-3.7358,-3.7619,-3.7964,-3.8441,-3.9223,-3.9355,-3.9707,-4.0123,-4.0245,-4.0269,-4.0428,-4.0338,-4.0242,-4.029,-4.0124,-4.0009,-3.9812,-3.9453,-3.9239,-3.9003,-3.8074,-3.7132,-3.6545,-3.6055,-3.5788,-3.5397,-3.5046,-3.4797,-3.4548,-3.4548,-3.4548,-3.4423,-3.4423,-3.4423,-3.4298,-3.4298,-3.4298,-3.4173,-3.4047,-3.3796,-3.3788,-3.407,-3.4576,-3.5179,-3.5622,-3.5724,-3.547,-3.5196,-3.4627,-3.3955,-3.34,-3.2981,-3.2263,-3.17,-3.0993,-3.014,-2.9425,-2.8707,-2.7565,-2.6983,-2.6253,-2.5226,-2.4327,-2.3735,-2.2694,-2.1786,-2.1383,-2.0955,-2.0167,-1.9229,-1.8349,-1.7149,-1.6326,-1.5613,-1.42,-1.2888,-1.1769,-1.042,-0.9623,-0.9008,-0.8215,-0.7391,-0.6389,-0.5552,-0.471,-4.0144,-3.9855,-3.9165,-3.8666,-3.8394,-3.7893,-3.7655,-3.7679,-3.7655,-3.7572,-3.7465,-3.7441,-3.7251,-3.6928,-3.6712,-3.6472,-3.6254,-3.6059,-3.6277,-3.6688,-3.6603,-3.658,-3.6495,-3.6495,-3.658,-3.6603,-3.6603,-3.6712,-3.682,-3.682,-3.7176,-3.7722,-3.7878,-3.8271,-3.888,-3.8927,-3.9276,-3.973,-3.9777,-3.9944,-4.0278,-4.0239,-4.0103,-4.0011,-3.9686,-3.9428,-3.9173,-3.9216,-3.8812,-3.8096,-3.7616,-3.6889,-3.5911,-3.5418,-3.5025,-3.4612,-3.4528,-3.4548,-3.4423,-3.4423,-3.4298,-3.4173,-3.4047,-3.3922,-3.3796,-3.367,-3.367,-3.3418,-3.3292,-3.3165,-3.3046,-3.3551,-3.4011,-3.4483,-3.495,-3.5196,-3.4921,-3.4508,-3.3817,-3.3121,-3.2561,-3.1982,-3.17,-3.1135,-3.014,-2.9425,-2.8707,-2.7695,-2.6983,-2.596,-2.5212,-2.4314,-2.3587,-2.2694,-2.1786,-2.077,-2.0222,-1.98,-1.917,-1.8389,-1.7339,-1.6498,-1.5655,-1.4515,-1.3068,-1.1913,-1.0766,-0.9677,-0.886,-0.7873,-0.7219,-0.6389,-0.5552,-0.488,-0.4038,-4.0035,-3.9706,-3.9188,-3.8671,-3.8154,-3.7637,-3.7308,-3.7143,-3.712,-3.7012,-3.7036,-3.6975,-3.6735,-3.6363,-3.6036,-3.5708,-3.5511,-3.5179,-3.5312,-3.573,-3.595,-3.595,-3.584,-3.584,-3.584,-3.584,-3.595,-3.615,-3.642,-3.6576,-3.6916,-3.7576,-3.7646,-3.8125,-3.8704,-3.8887,-3.9145,-3.9729,-3.9776,-3.9755,-3.9873,-3.9849,-3.9755,-3.9403,-3.9072,-3.8716,-3.8335,-3.8455,-3.8216,-3.7495,-3.7011,-3.6156,-3.5294,-3.4922,-3.4528,-3.4133,-3.4153,-3.4173,-3.4047,-3.4047,-3.3922,-3.3796,-3.367,-3.3544,-3.3292,-3.3165,-3.3058,-3.2785,-3.2657,-3.2676,-3.2535,-3.2918,-3.3369,-3.3558,-3.4139,-3.4314,-3.4075,-3.3521,-3.2963,-3.2263,-3.17,-3.1135,-3.0567,-3.014,-2.9138,-2.8578,-2.784,-2.6823,-2.6253,-2.5079,-2.4327,-2.3426,-2.2533,-2.1637,-2.0748,-1.9898,-1.8907,-1.8478,-1.8182,-1.7423,-1.6516,-1.573,-1.4892,-1.3283,-1.1794,-1.0727,-0.9697,-0.8874,-0.8219,-0.7223,-0.6221,-0.5382,-0.4712,-0.4208,-0.3535,-4.0106,-4.0036,-3.952,-3.8844,-3.8353,-3.7793,-3.7302,-3.6975,-3.6904,-3.682,-3.6626,-3.661,-3.6369,-3.573,-3.5312,-3.5046,-3.4935,-3.4843,-3.464,-3.4731,-3.5045,-3.5246,-3.5002,-3.4935,-3.4979,-3.4957,-3.5224,-3.5536,-3.5892,-3.6027,-3.6544,-3.7223,-3.7405,-3.7862,-3.8735,-3.8943,-3.9314,-4.0083,-4.0106,-3.9686,-3.9288,-3.9239,-3.9072,-3.8693,-3.8477,-3.7998,-3.7495,-3.7374,-3.7253,-3.7132,-3.6034,-3.5294,-3.4922,-3.4548,-3.4173,-3.3922,-3.3922,-3.3796,-3.3544,-3.3418,-3.3418,-3.3418,-3.3292,-3.3184,-3.2931,-3.2931,-3.2676,-3.2422,-3.2294,-3.2294,-3.2298,-3.2374,-3.257,-3.2637,-3.3258,-3.3363,-3.2701,-3.2263,-3.1982,-3.1418,-3.0835,-3.0124,-2.9425,-2.8851,-2.813,-2.7274,-2.6838,-2.596,-2.5065,-2.4018,-2.3277,-2.2384,-2.1337,-2.0502,-1.9626,-1.8927,-1.7942,-1.729,-1.6841,-1.6233,-1.5442,-1.4623,-1.3807,-1.2162,-1.0766,-0.9682,-0.872,-0.8056,-0.7223,-0.6218,-0.5382,-0.4712,-0.4208,-0.3703,-0.3367,-3.8834,-3.8744,-3.7904,-3.7451,-3.7224,-3.643,-3.5999,-3.5863,-3.5863,-3.5886,-3.5776,-3.5556,-3.5402,-3.4891,-3.4862,-3.4674,-3.4554,-3.4697,-3.4868,-3.4752,-3.4984,-3.4668,-3.4167,-3.4339,-3.4468,-3.4354,-3.4841,-3.5121,-3.5143,-3.5461,-3.6114,-3.7066,-3.7206,-3.7708,-3.863,-3.8653,-3.8744,-3.914,-3.8999,-3.8834,-3.867,-3.8574,-3.8358,-3.7856,-3.7758,-3.7374,-3.6667,-3.6156,-3.5911,-3.5911,-3.5418,-3.4797,-3.4298,-3.4047,-3.3922,-3.367,-3.3544,-3.3544,-3.3418,-3.3165,-3.3038,-3.3058,-3.2785,-3.2676,-3.2549,-3.2549,-3.2422,-3.2038,-3.1782,-3.1525,-3.1395,-3.1601,-3.1826,-3.1878,-3.228,-3.2246,-3.1982,-3.1559,-3.0993,-3.0425,-2.9855,-2.9282,-2.8547,-2.784,-2.7114,-2.6239,-2.5653,-2.4918,-2.4018,-2.298,-2.2235,-2.1337,-2.0307,-1.9343,-1.8508,-1.7807,-1.6988,-1.6064,-1.5504,-1.5081,-1.4113,-1.3339,-1.2181,-1.0992,-0.9833,-0.872,-0.7889,-0.7052,-0.6218,-0.5379,-0.4542,-0.3871,-0.3703,-0.3365,-0.303,-3.7948,-3.7859,-3.6867,-3.6515,-3.6293,-3.5736,-3.538,-3.5268,-3.5402,-3.5379,-3.5178,-3.515,-3.5011,-3.469,-3.4833,-3.4593,-3.4307,-3.44,-3.4386,-3.417,-3.4129,-3.4094,-3.4012,-3.4297,-3.4223,-3.4085,-3.4731,-3.4901,-3.5007,-3.535,-3.6027,-3.6655,-3.6861,-3.7298,-3.8043,-3.79,-3.7878,-3.8043,-3.8021,-3.7856,-3.7407,-3.7594,-3.7495,-3.7011,-3.7032,-3.6646,-3.6034,-3.5294,-3.5046,-3.5046,-3.4797,-3.4298,-3.3922,-3.3796,-3.367,-3.3418,-3.3292,-3.3165,-3.3165,-3.2931,-3.2676,-3.2676,-3.2549,-3.2294,-3.2038,-3.2019,-3.1782,-3.1267,-3.1138,-3.0952,-3.0829,-3.0898,-3.1029,-3.0842,-3.0835,-3.0993,-3.0852,-3.0567,-2.9997,-2.9282,-2.8707,-2.813,-2.739,-2.6677,-2.6093,-2.5359,-2.4623,-2.387,-2.298,-2.2097,-2.121,-2.0167,-1.9333,-1.8384,-1.7611,-1.6773,-1.5922,-1.496,-1.376,-1.3336,-1.2684,-1.1867,-1.0952,-0.9873,-0.872,-0.7725,-0.7056,-0.6218,-0.5379,-0.4542,-0.3871,-0.3367,-0.3197,-0.3199,-0.2864,-3.706,-3.692,-3.6158,-3.572,-3.5619,-3.5508,-3.5087,-3.5023,-3.5197,-3.5032,-3.4798,-3.5113,-3.5104,-3.4901,-3.4762,-3.461,-3.3994,-3.4159,-3.3799,-3.3599,-3.3599,-3.3758,-3.4336,-3.4232,-3.4232,-3.4212,-3.4728,-3.4882,-3.4993,-3.5381,-3.5876,-3.6131,-3.6237,-3.6667,-3.7219,-3.7032,-3.6989,-3.711,-3.7253,-3.6967,-3.6639,-3.6703,-3.6767,-3.6401,-3.6156,-3.5788,-3.5294,-3.4797,-3.4548,-3.4797,-3.4173,-3.3922,-3.3796,-3.3544,-3.3418,-3.3292,-3.3058,-3.2931,-3.2804,-3.2549,-3.2294,-3.2294,-3.2166,-3.2038,-3.1377,-3.1249,-3.0991,-3.049,-3.0248,-3.018,-3.0066,-3.0138,-3.0053,-2.9867,-2.9425,-2.9282,-2.9441,-2.9298,-2.8851,-2.797,-2.726,-2.6677,-2.6239,-2.5653,-2.4918,-2.4179,-2.3438,-2.2831,-2.1936,-2.1037,-2.0038,-1.9191,-1.8221,-1.7272,-1.666,-1.5872,-1.4854,-1.3838,-1.2275,-1.1334,-1.0997,-1.018,-0.9535,-0.8729,-0.7725,-0.6888,-0.605,-0.5211,-0.4542,-0.4038,-0.3533,-0.3199,-0.2862,-0.2864,-0.2697,-3.5756,-3.5478,-3.4868,-3.479,-3.4934,-3.4318,-3.4081,-3.4194,-3.4197,-3.4432,-3.4444,-3.4891,-3.4749,-3.4212,-3.4445,-3.4247,-3.3923,-3.4146,-3.4265,-3.4141,-3.4141,-3.4141,-3.4288,-3.4146,-3.4004,-3.4045,-3.435,-3.4512,-3.4553,-3.4821,-3.5314,-3.5644,-3.5809,-3.6178,-3.6566,-3.6423,-3.6194,-3.6009,-3.6338,-3.6524,-3.6237,-3.6258,-3.6156,-3.5665,-3.517,-3.4797,-3.4548,-3.4173,-3.4047,-3.4047,-3.3922,-3.367,-3.3544,-3.3418,-3.3292,-3.3058,-3.2931,-3.2804,-3.2549,-3.2166,-3.191,-3.1635,-3.1396,-3.1009,-3.062,-3.0343,-3.0083,-2.9822,-2.9447,-2.9192,-2.9104,-2.8923,-2.8818,-2.8821,-2.8418,-2.784,-2.771,-2.784,-2.755,-2.6969,-2.6385,-2.58,-2.5079,-2.4623,-2.3883,-2.2992,-2.2247,-2.1798,-2.0887,-1.9844,-1.9008,-1.8019,-1.7235,-1.6285,-1.5377,-1.4562,-1.3356,-1.2275,-1.0854,-0.9731,-0.923,-0.8896,-0.8227,-0.7562,-0.6724,-0.5882,-0.5211,-0.4539,-0.3871,-0.3533,-0.3197,-0.303,-0.2695,-0.2695,-0.1685,-3.4678,-3.4519,-3.3843,-3.379,-3.404,-3.3671,-3.343,-3.3713,-3.3896,-3.4031,-3.4122,-3.4727,-3.4654,-3.4228,-3.4329,-3.4205,-3.3873,-3.3928,-3.3922,-3.3902,-3.3902,-3.3902,-3.3902,-3.3723,-3.3709,-3.3977,-3.4282,-3.4258,-3.4258,-3.4403,-3.4777,-3.4922,-3.517,-3.548,-3.5769,-3.5706,-3.5253,-3.5067,-3.5253,-3.5418,-3.5418,-3.5418,-3.5418,-3.4922,-3.4423,-3.4173,-3.4173,-3.3796,-3.3544,-3.3418,-3.3418,-3.3292,-3.3165,-3.3165,-3.3058,-3.2676,-3.2549,-3.2294,-3.191,-3.1653,-3.1267,-3.1009,-3.062,-3.0213,-2.9952,-2.9561,-2.9299,-2.9036,-2.8709,-2.8259,-2.8292,-2.8005,-2.791,-2.7674,-2.726,-2.6531,-2.6107,-2.6385,-2.6385,-2.5667,-2.5212,-2.4623,-2.3883,-2.3438,-2.2682,-2.1936,-2.1199,-2.0586,-1.9682,-1.8795,-1.7836,-1.7016,-1.6233,-1.5297,-1.4385,-1.3214,-1.1641,-1.0688,-0.9711,-0.8562,-0.7893,-0.7391,-0.6724,-0.6221,-0.5885,-0.5214,-0.4374,-0.3871,-0.3197,-0.2524,-0.2356,-0.2525,-0.219,-0.101,0.0168,-3.3749,-3.3592,-3.2871,-3.2747,-3.3131,-3.309,-3.2955,-3.3101,-3.3699,-3.3772,-3.3638,-3.4328,-3.4427,-3.4278,-3.4238,-3.4173,-3.3796,-3.3524,-3.3544,-3.3544,-3.3544,-3.3544,-3.3524,-3.3505,-3.3591,-3.3988,-3.4153,-3.4027,-3.4007,-3.4278,-3.4298,-3.4298,-3.4423,-3.4733,-3.5064,-3.4754,-3.4383,-3.4342,-3.4507,-3.4548,-3.4548,-3.4548,-3.4548,-3.4298,-3.4047,-3.3796,-3.367,-3.3418,-3.3184,-3.2912,-3.2785,-3.2804,-3.2676,-3.2785,-3.2657,-3.2294,-3.2038,-3.1653,-3.1249,-3.0861,-3.062,-3.0248,-2.9822,-2.943,-2.9036,-2.8642,-2.8378,-2.7981,-2.7632,-2.7336,-2.7462,-2.7009,-2.6801,-2.6576,-2.6093,-2.5359,-2.477,-2.4918,-2.477,-2.4488,-2.3883,-2.3438,-2.2694,-2.2097,-2.1487,-2.0737,-1.9984,-1.9229,-1.8471,-1.7607,-1.6635,-1.5861,-1.49,-1.3807,-1.2867,-1.1617,-1.02,-0.9383,-0.8395,-0.7391,-0.6553,-0.5885,-0.5382,-0.5382,-0.4878,-0.4376,-0.3871,-0.3535,-0.2862,-0.1851,-0.101,-0.0505,0.0168,0.0842,0.1684,-3.2809,-3.2465,-3.2174,-3.233,-3.2662,-3.2309,-3.2133,-3.216,-3.2791,-3.3055,-3.3216,-3.351,-3.3823,-3.3902,-3.3922,-3.3796,-3.3544,-3.3418,-3.3418,-3.3418,-3.3418,-3.3418,-3.3418,-3.3418,-3.3418,-3.3524,-3.3544,-3.365,-3.365,-3.3796,-3.3922,-3.4047,-3.4173,-3.4463,-3.4463,-3.4423,-3.4113,-3.3803,-3.4113,-3.4298,-3.4298,-3.4298,-3.4173,-3.3922,-3.3544,-3.3292,-3.3184,-3.3038,-3.2785,-3.2549,-3.2422,-3.2147,-3.1891,-3.2166,-3.2019,-3.1635,-3.1506,-3.112,-3.062,-3.0213,-2.9822,-2.9561,-2.9168,-2.8642,-2.8114,-2.7584,-2.7318,-2.6918,-2.6445,-2.5997,-2.621,-2.5964,-2.5669,-2.5444,-2.5065,-2.4475,-2.3722,-2.3277,-2.2992,-2.2843,-2.2545,-2.2247,-2.1499,-2.0887,-2.0285,-1.9531,-1.8926,-1.7864,-1.6797,-1.6247,-1.5416,-1.4649,-1.3713,-1.2456,-1.1322,-1.0019,-0.8887,-0.8052,-0.7223,-0.6221,-0.5382,-0.4544,-0.404,-0.4038,-0.4038,-0.3871,-0.3367,-0.32,-0.2357,-0.1179,0.0168,0.1516,0.1684,0.1852,0.1851,-3.2477,-3.2248,-3.1903,-3.1923,-3.2079,-3.1923,-3.1767,-3.1752,-3.2276,-3.2554,-3.2953,-3.3178,-3.3466,-3.365,-3.367,-3.3544,-3.3418,-3.3418,-3.3418,-3.3418,-3.3418,-3.3418,-3.3418,-3.3418,-3.3418,-3.3418,-3.3418,-3.3418,-3.3418,-3.3544,-3.367,-3.367,-3.3796,-3.3922,-3.3922,-3.3796,-3.3757,-3.3572,-3.3757,-3.3922,-3.3796,-3.3796,-3.3544,-3.3292,-3.3038,-3.2804,-3.2676,-3.2676,-3.2403,-3.2019,-3.191,-3.1525,-3.112,-3.0991,-3.0991,-3.0861,-3.0732,-3.0343,-2.9839,-2.943,-2.9036,-2.851,-2.8114,-2.7716,-2.7185,-2.6651,-2.6115,-2.5577,-2.5337,-2.5042,-2.5087,-2.4734,-2.461,-2.4462,-2.3883,-2.329,-2.2682,-2.1786,-2.1487,-2.1349,-2.1187,-2.0737,-2.0296,-1.9542,-1.8926,-1.8319,-1.7711,-1.6644,-1.542,-1.47,-1.4159,-1.2992,-1.2037,-1.0891,-0.9692,-0.8711,-0.7725,-0.6888,-0.605,-0.5214,-0.4544,-0.3871,-0.3197,-0.2691,-0.2692,-0.2525,-0.3032,-0.2695,-0.1685,-0.0505,0.1011,0.219,0.2525,0.2692,0.2692,-3.2133,-3.2018,-3.1787,-3.1536,-3.1401,-3.1536,-3.1536,-3.1424,-3.182,-3.2234,-3.2611,-3.3034,-3.3301,-3.3398,-3.3418,-3.3418,-3.3418,-3.3418,-3.3292,-3.3292,-3.3292,-3.3292,-3.3311,-3.3184,-3.3184,-3.3204,-3.3165,-3.3292,-3.3418,-3.3418,-3.3418,-3.3418,-3.3418,-3.3418,-3.3418,-3.3544,-3.3418,-3.3272,-3.3292,-3.3292,-3.3165,-3.2912,-3.2785,-3.2785,-3.2549,-3.2422,-3.2147,-3.2166,-3.1782,-3.1377,-3.112,-3.075,-3.023,-2.9822,-2.9691,-2.9839,-2.9691,-2.943,-2.9036,-2.8642,-2.8114,-2.7584,-2.7067,-2.68,-2.6249,-2.5712,-2.5037,-2.4495,-2.4238,-2.4218,-2.4045,-2.3599,-2.3471,-2.342,-2.2694,-2.1798,-2.1337,-2.0737,-1.9833,-1.9682,-1.9682,-1.938,-1.8774,-1.8168,-1.7559,-1.6797,-1.6186,-1.5259,-1.4191,-1.3414,-1.2603,-1.1296,-1.0182,-0.9146,-0.8215,-0.7379,-0.6556,-0.6056,-0.5214,-0.4374,-0.404,-0.3535,-0.2692,-0.1682,-0.0673,-0.0673,-0.1515,-0.1853,-0.0337,0.101,0.219,0.2695,0.303,0.3199,0.3197,-3.1672,-3.1441,-3.1112,-3.0995,-3.0995,-3.0995,-3.0995,-3.1054,-3.1072,-3.1498,-3.225,-3.2637,-3.2961,-3.3214,-3.3418,-3.3418,-3.3292,-3.3292,-3.3165,-3.3058,-3.2931,-3.295,-3.2861,-3.2568,-3.2676,-3.2696,-3.2676,-3.2931,-3.3165,-3.3292,-3.3292,-3.3292,-3.3292,-3.3418,-3.3311,-3.3292,-3.3126,-3.2727,-3.2892,-3.2785,-3.2549,-3.2549,-3.2422,-3.2422,-3.2294,-3.2038,-3.1506,-3.1506,-3.112,-3.062,-3.0213,-2.9822,-2.943,-2.9036,-2.8625,-2.8362,-2.8362,-2.8642,-2.7981,-2.7584,-2.72,-2.6651,-2.6264,-2.5727,-2.5172,-2.4631,-2.3952,-2.3543,-2.327,-2.3086,-2.3117,-2.2574,-2.231,-2.2005,-2.1625,-2.0725,-2.0285,-1.9682,-1.8785,-1.7864,-1.7702,-1.7559,-1.7264,-1.6797,-1.6186,-1.542,-1.4499,-1.3729,-1.2817,-1.1901,-1.1041,-0.9532,-0.8552,-0.7663,-0.6881,-0.6047,-0.5549,-0.5048,-0.4206,-0.3533,-0.3029,-0.2356,-0.1683,-0.0673,0.0505,0.101,0.0337,0.0505,0.1515,0.2021,0.2694,0.303,0.3367,0.3703,0.3871,-3.1441,-3.1325,-3.0995,-3.0898,-3.0898,-3.0898,-3.0898,-3.0976,-3.1171,-3.1463,-3.1894,-3.25,-3.2883,-3.3087,-3.3165,-3.3038,-3.2931,-3.2931,-3.2804,-3.2676,-3.2549,-3.2568,-3.2568,-3.2441,-3.2422,-3.211,-3.2275,-3.2549,-3.2785,-3.2785,-3.2804,-3.2931,-3.2931,-3.295,-3.3077,-3.2931,-3.2638,-3.2365,-3.2511,-3.2549,-3.2294,-3.2038,-3.1782,-3.1782,-3.1525,-3.1138,-3.0879,-3.0602,-3.0343,-2.9839,-2.943,-2.8905,-2.851,-2.8114,-2.7584,-2.7318,-2.7185,-2.7185,-2.7051,-2.6532,-2.613,-2.5712,-2.5172,-2.4631,-2.3952,-2.3406,-2.2859,-2.2448,-2.2173,-2.1963,-2.1882,-2.1354,-2.1061,-2.0877,-2.0369,-1.9822,-1.9077,-1.8329,-1.7721,-1.6806,-1.588,-1.5727,-1.542,-1.4952,-1.4491,-1.4184,-1.3112,-1.203,-1.0987,-0.9939,-0.8926,-0.7766,-0.6902,-0.6161,-0.5527,-0.4875,-0.4372,-0.387,-0.2859,-0.2187,-0.1514,-0.1009,-0.0168,0.0673,0.1851,0.2188,0.2018,0.2018,0.2356,0.2692,0.3029,0.3365,0.387,0.4542,0.5046,-3.1208,-3.1228,-3.0995,-3.0898,-3.0898,-3.0898,-3.0898,-3.0937,-3.1211,-3.1406,-3.1599,-3.2138,-3.2594,-3.2612,-3.2727,-3.2676,-3.2422,-3.2422,-3.2294,-3.2294,-3.2166,-3.2185,-3.2057,-3.1929,-3.1598,-3.1084,-3.1488,-3.1782,-3.1782,-3.191,-3.2038,-3.2422,-3.2549,-3.2568,-3.2587,-3.2568,-3.2275,-3.2001,-3.1763,-3.1782,-3.1653,-3.1396,-3.1249,-3.1009,-3.062,-3.023,-3.01,-2.9857,-2.9595,-2.8905,-2.851,-2.8114,-2.7584,-2.72,-2.6651,-2.6249,-2.6115,-2.5996,-2.5861,-2.5577,-2.5187,-2.4766,-2.4224,-2.3679,-2.2859,-2.231,-2.1897,-2.1622,-2.1069,-2.0786,-2.0604,-2.0146,-1.9826,-1.9488,-1.9103,-1.8572,-1.8016,-1.7264,-1.6339,-1.542,-1.4499,-1.3729,-1.3421,-1.2951,-1.2797,-1.2804,-1.1876,-1.0635,-0.9433,-0.8229,-0.7342,-0.6458,-0.6063,-0.5313,-0.4523,-0.4036,-0.3533,-0.2692,-0.1682,-0.0841,-0.0168,0.0673,0.1514,0.2524,0.3197,0.3365,0.3363,0.3197,0.3197,0.3365,0.3533,0.4038,0.4542,0.5382,0.6053,-3.0898,-3.0898,-3.0898,-3.0898,-3.0898,-3.0898,-3.0898,-3.0898,-3.0937,-3.0936,-3.1103,-3.1569,-3.1827,-3.191,-3.2194,-3.2237,-3.2294,-3.2422,-3.2185,-3.1782,-3.1653,-3.1561,-3.1451,-3.1045,-3.0602,-3.0437,-3.0602,-3.062,-3.062,-3.075,-3.1396,-3.2166,-3.2038,-3.2147,-3.2147,-3.2038,-3.1763,-3.1377,-3.1009,-3.075,-3.062,-3.049,-3.0361,-3.0361,-3.0083,-2.9691,-2.9447,-2.9219,-2.8824,-2.7981,-2.7435,-2.7185,-2.6651,-2.6264,-2.5861,-2.5307,-2.5037,-2.4766,-2.4495,-2.4631,-2.4631,-2.4088,-2.3406,-2.2585,-2.1897,-2.1484,-2.1069,-2.0653,-2.0098,-1.9655,-1.9326,-1.8993,-1.8644,-1.812,-1.7718,-1.7056,-1.6492,-1.588,-1.496,-1.403,-1.3105,-1.234,-1.1411,-1.094,-1.1095,-1.1095,-1.0003,-0.8769,-0.785,-0.6795,-0.6201,-0.5463,-0.5387,-0.4799,-0.3854,-0.3192,-0.2348,-0.1344,-0.0168,0.0505,0.1178,0.2018,0.3029,0.3365,0.404,0.4374,0.471,0.4542,0.4374,0.4204,0.4372,0.4878,0.5714,0.6553,0.7223,-3.0898,-3.0898,-3.0898,-3.0898,-3.0898,-3.0898,-3.0762,-3.0626,-3.0645,-3.0642,-3.0787,-3.1028,-3.1181,-3.1452,-3.1407,-3.1431,-3.1488,-3.1267,-3.1156,-3.1045,-3.0915,-3.1081,-3.084,-3.0396,-2.977,-2.9327,-2.9509,-2.9709,-2.9709,-2.9709,-2.997,-3.0473,-3.0879,-3.1138,-3.1138,-3.112,-3.1009,-3.075,-3.0343,-3.0083,-2.997,-2.9561,-2.943,-2.943,-2.9053,-2.8642,-2.8395,-2.8461,-2.7898,-2.72,-2.6352,-2.5965,-2.5712,-2.5307,-2.4916,-2.4374,-2.4224,-2.3816,-2.3406,-2.3543,-2.3406,-2.2722,-2.2035,-2.1358,-2.1081,-2.0376,-1.9959,-1.9401,-1.8982,-1.853,-1.8185,-1.7834,-1.732,-1.6927,-1.633,-1.5684,-1.5113,-1.4345,-1.3575,-1.2642,-1.1714,-1.0946,-1.0014,-0.908,-0.9236,-0.9392,-0.8145,-0.69,-0.6131,-0.5516,-0.5071,-0.4303,-0.4203,-0.344,-0.2488,-0.1833,-0.1169,-0.0,0.1345,0.1848,0.252,0.3197,0.404,0.4376,0.4712,0.5214,0.5549,0.572,0.5717,0.5379,0.5547,0.6053,0.6888,0.7893,0.8395,-3.0898,-3.0762,-3.0762,-3.0762,-3.0762,-3.0762,-3.0528,-3.0274,-3.0274,-3.0192,-3.0137,-3.0148,-3.0222,-3.0475,-3.0609,-3.0392,-3.0406,-3.0272,-3.0378,-3.0266,-3.0283,-3.0319,-3.0319,-2.9892,-2.8986,-2.8491,-2.8689,-2.9053,-2.9053,-2.8922,-2.8905,-2.9036,-2.9185,-2.9447,-3.01,-2.997,-2.997,-2.9839,-2.9578,-2.943,-2.9299,-2.8774,-2.8493,-2.8378,-2.8114,-2.7733,-2.7318,-2.7083,-2.6682,-2.5965,-2.5278,-2.4723,-2.4617,-2.436,-2.3952,-2.3679,-2.327,-2.2859,-2.2585,-2.231,-2.2173,-2.1634,-2.0943,-2.0527,-1.997,-1.9401,-1.8982,-1.8422,-1.7872,-1.7258,-1.7038,-1.6524,-1.599,-1.5578,-1.5151,-1.4653,-1.3883,-1.3112,-1.2185,-1.1256,-1.048,-0.9703,-0.8613,-0.7677,-0.7209,-0.7365,-0.6584,-0.5648,-0.5181,-0.4564,-0.4259,-0.349,-0.2875,-0.2105,-0.1147,-0.0493,0.0165,0.1339,0.2517,0.3187,0.386,0.4537,0.4878,0.5214,0.5549,0.6053,0.6556,0.7059,0.6892,0.6556,0.6888,0.7223,0.806,0.8896,0.9397,-3.0645,-3.0392,-3.0392,-3.0392,-3.0392,-3.0392,-3.0274,-2.9922,-2.9804,-2.9605,-2.9104,-2.9137,-2.8954,-2.8959,-2.9475,-2.9432,-2.9532,-2.9648,-2.9691,-2.963,-2.9202,-2.9219,-2.8939,-2.851,-2.8081,-2.8081,-2.7965,-2.813,-2.8263,-2.7849,-2.7716,-2.7716,-2.7716,-2.813,-2.9185,-2.9036,-2.8905,-2.8774,-2.8527,-2.8395,-2.8263,-2.7849,-2.7716,-2.7451,-2.7051,-2.68,-2.6383,-2.5981,-2.5442,-2.5037,-2.4153,-2.376,-2.3816,-2.3543,-2.327,-2.2859,-2.2448,-2.1897,-2.1346,-2.1207,-2.0931,-2.0665,-2.011,-1.9692,-1.9122,-1.8563,-1.8002,-1.7298,-1.6744,-1.5997,-1.5605,-1.5216,-1.4654,-1.4255,-1.3969,-1.3267,-1.2494,-1.1566,-1.0635,-0.9858,-0.908,-0.8457,-0.7365,-0.6271,-0.5492,-0.5022,-0.4709,-0.4397,-0.4084,-0.3301,-0.2833,-0.2366,-0.1586,-0.0478,0.0322,0.0811,0.1635,0.2822,0.3675,0.4165,0.4674,0.5357,0.57,0.6047,0.6556,0.7227,0.7893,0.8395,0.8227,0.8227,0.8227,0.8729,0.9402,0.9903,1.0404,-3.0157,-3.0039,-3.0039,-2.9922,-2.9804,-3.0039,-2.9922,-2.9568,-2.9213,-2.8755,-2.8397,-2.8179,-2.8131,-2.8272,-2.8127,-2.8289,-2.8588,-2.8415,-2.8504,-2.8858,-2.8246,-2.7354,-2.7073,-2.7137,-2.702,-2.6722,-2.6753,-2.6934,-2.68,-2.6651,-2.6666,-2.6532,-2.6532,-2.7067,-2.76,-2.7733,-2.7716,-2.7716,-2.7451,-2.7185,-2.72,-2.6934,-2.6532,-2.6383,-2.613,-2.5727,-2.5322,-2.4902,-2.4645,-2.3952,-2.3065,-2.2806,-2.2846,-2.2585,-2.2173,-2.176,-2.1346,-2.0804,-1.9959,-1.9541,-1.9413,-1.9413,-1.9133,-1.8703,-1.8002,-1.7298,-1.6734,-1.6169,-1.547,-1.4906,-1.4734,-1.4072,-1.3641,-1.2977,-1.2494,-1.1721,-1.0952,-1.0014,-0.9236,-0.8301,-0.7677,-0.674,-0.5648,-0.5179,-0.4395,-0.3768,-0.3454,-0.3613,-0.3456,-0.1885,-0.0943,-0.0943,-0.0315,0.0945,0.1898,0.2238,0.2883,0.387,0.4571,0.4936,0.5451,0.6151,0.668,0.7194,0.7881,0.8395,0.8896,0.9397,0.9731,0.9898,0.9731,0.9898,1.0232,1.0737,1.1237,-2.9804,-2.9568,-2.9568,-2.9331,-2.9094,-2.945,-2.9331,-2.8957,-2.8379,-2.802,-2.7659,-2.7297,-2.728,-2.7276,-2.7109,-2.6777,-2.7355,-2.71,-2.754,-2.7751,-2.7174,-2.6315,-2.5814,-2.5755,-2.6084,-2.5801,-2.5682,-2.5727,-2.5727,-2.5592,-2.5457,-2.5322,-2.5457,-2.5592,-2.613,-2.6398,-2.68,-2.68,-2.6532,-2.6398,-2.613,-2.5861,-2.5457,-2.5322,-2.5052,-2.4781,-2.4374,-2.4102,-2.3843,-2.2983,-2.2421,-2.1996,-2.1885,-2.1622,-2.1207,-2.0804,-2.011,-1.9552,-1.8843,-1.8142,-1.8002,-1.7872,-1.7872,-1.758,-1.6875,-1.631,-1.5603,-1.5044,-1.4332,-1.3809,-1.359,-1.2911,-1.2319,-1.1785,-1.1101,-1.0325,-0.9703,-0.8925,-0.8145,-0.7209,-0.6275,-0.5179,-0.4241,-0.3927,-0.3456,-0.2828,-0.22,-0.2357,-0.2514,-0.0942,0.0471,0.0785,0.0943,0.2044,0.2834,0.332,0.395,0.4868,0.5413,0.5835,0.6554,0.726,0.7797,0.8339,0.8865,0.9388,1.0065,1.057,1.0904,1.0904,1.0904,1.107,1.1237,1.1403,1.1902,-2.945,-2.8975,-2.8975,-2.8618,-2.814,-2.8618,-2.8498,-2.79,-2.7642,-2.7297,-2.7073,-2.6692,-2.6361,-2.6166,-2.6075,-2.6004,-2.5755,-2.5754,-2.6131,-2.6477,-2.5998,-2.5248,-2.5115,-2.5248,-2.5292,-2.5322,-2.5187,-2.5052,-2.4902,-2.4766,-2.4495,-2.4224,-2.4374,-2.451,-2.4916,-2.5187,-2.5727,-2.5727,-2.5592,-2.5457,-2.5322,-2.4916,-2.451,-2.4374,-2.4088,-2.3679,-2.327,-2.301,-2.2735,-2.2173,-2.1897,-2.1484,-2.1207,-2.0804,-2.0527,-1.9831,-1.8993,-1.8282,-1.7721,-1.7017,-1.6593,-1.6461,-1.631,-1.631,-1.5886,-1.5177,-1.4466,-1.3896,-1.319,-1.2525,-1.2113,-1.1469,-1.0812,-1.0343,-0.9842,-0.9236,-0.8613,-0.7833,-0.7053,-0.6275,-0.5335,-0.4395,-0.3142,-0.2671,-0.2043,-0.1256,-0.0471,0.0157,-0.0,-0.0,0.1413,0.22,0.2514,0.3144,0.3778,0.4097,0.4876,0.5799,0.6155,0.6567,0.7448,0.8169,0.8689,0.9235,0.9828,1.0377,1.0893,1.1403,1.1902,1.1902,1.1902,1.1902,1.1902,1.2069,1.2401,-2.8636,-2.8259,-2.8259,-2.802,-2.7642,-2.7418,-2.7297,-2.7297,-2.7056,-2.6587,-2.5978,-2.5717,-2.5349,-2.498,-2.4843,-2.4781,-2.47,-2.4741,-2.4585,-2.4695,-2.4671,-2.4142,-2.4032,-2.4203,-2.4452,-2.436,-2.436,-2.4224,-2.4224,-2.4088,-2.4102,-2.4102,-2.3816,-2.3816,-2.3952,-2.4088,-2.436,-2.451,-2.4495,-2.4495,-2.436,-2.3952,-2.3679,-2.3406,-2.2996,-2.2722,-2.231,-2.1897,-2.1634,-2.122,-2.0804,-2.0388,-2.0098,-1.9994,-1.9878,-1.8865,-1.7872,-1.7017,-1.6603,-1.5886,-1.5319,-1.4901,-1.4608,-1.4466,-1.4324,-1.3896,-1.3182,-1.261,-1.2043,-1.1312,-1.086,-1.022,-0.9575,-0.8932,-0.8402,-0.7816,-0.7197,-0.6584,-0.5805,-0.5179,-0.4397,-0.2983,-0.1886,-0.1099,-0.0471,0.0314,0.1099,0.1886,0.22,0.2042,0.22,0.2985,0.3456,0.3927,0.4397,0.4873,0.5805,0.6587,0.6938,0.7607,0.8313,0.9021,0.9386,0.9952,1.0547,1.1146,1.1724,1.2222,1.2523,1.2727,1.2567,1.2567,1.2733,1.2733,1.2899,-2.79,-2.7659,-2.7539,-2.7177,-2.6675,-2.6205,-2.6083,-2.6083,-2.6083,-2.5717,-2.5226,-2.4857,-2.4487,-2.4224,-2.3882,-2.3723,-2.3747,-2.3398,-2.3177,-2.3192,-2.3318,-2.3384,-2.3301,-2.3254,-2.3405,-2.3488,-2.327,-2.2996,-2.3133,-2.3133,-2.3133,-2.301,-2.3133,-2.3133,-2.2996,-2.2859,-2.2859,-2.3133,-2.327,-2.327,-2.3133,-2.2996,-2.2722,-2.2448,-2.2035,-2.176,-2.1346,-2.0943,-2.0527,-2.011,-1.9692,-1.9401,-1.8982,-1.8724,-1.8174,-1.7308,-1.6593,-1.5886,-1.547,-1.5044,-1.4332,-1.3761,-1.3039,-1.261,-1.261,-1.2323,-1.2029,-1.1606,-1.0756,-1.0076,-0.9601,-0.9112,-0.8332,-0.7684,-0.7123,-0.6396,-0.5945,-0.5335,-0.4711,-0.4086,-0.2985,-0.157,-0.0471,0.0314,0.1256,0.1886,0.2357,0.2828,0.3299,0.3299,0.3299,0.377,0.4241,0.4552,0.5025,0.5808,0.6584,0.7361,0.8002,0.8669,0.9189,0.9724,1.028,1.0844,1.1415,1.1843,1.2275,1.2636,1.2966,1.2999,1.3197,1.3039,1.3052,1.3072,1.3231,-2.7263,-2.6952,-2.6571,-2.6083,-2.5488,-2.5226,-2.4857,-2.4487,-2.4857,-2.4734,-2.4363,-2.41,-2.3852,-2.3355,-2.312,-2.2856,-2.2803,-2.244,-2.2145,-2.1828,-2.2263,-2.2367,-2.2403,-2.2526,-2.2592,-2.2479,-2.231,-2.2173,-2.1897,-2.191,-2.191,-2.1772,-2.176,-2.1897,-2.1897,-2.176,-2.176,-2.176,-2.1897,-2.2035,-2.2173,-2.1897,-2.1634,-2.1634,-2.1207,-2.0931,-2.0527,-2.011,-1.9692,-1.9122,-1.8703,-1.8422,-1.7872,-1.7157,-1.631,-1.5744,-1.5168,-1.475,-1.4324,-1.3904,-1.3182,-1.261,-1.1886,-1.1168,-1.1031,-1.1031,-1.0887,-1.0305,-0.9452,-0.8889,-0.824,-0.7721,-0.7215,-0.6532,-0.6121,-0.5394,-0.4797,-0.403,-0.3101,-0.2482,-0.1861,-0.0466,0.0781,0.1717,0.2348,0.298,0.3613,0.3927,0.4395,0.4552,0.4554,0.4711,0.5025,0.5492,0.6121,0.6747,0.7521,0.8301,0.8929,0.9558,1.0068,1.0617,1.1019,1.1568,1.1955,1.2366,1.2612,1.297,1.3343,1.3398,1.3596,1.3487,1.3507,1.3494,1.3376,-2.6198,-2.5839,-2.5349,-2.498,-2.4734,-2.4487,-2.3991,-2.3479,-2.3479,-2.3604,-2.3479,-2.3355,-2.2981,-2.2606,-2.2355,-2.223,-2.2104,-2.174,-2.1515,-2.1269,-2.1403,-2.1447,-2.1319,-2.1499,-2.161,-2.1765,-2.1757,-2.1484,-2.1207,-2.1081,-2.0943,-2.0943,-2.0943,-2.0792,-2.0792,-2.0653,-2.0515,-2.0515,-2.0515,-2.0792,-2.1069,-2.1081,-2.0804,-2.0527,-2.011,-1.982,-1.9413,-1.8993,-1.8563,-1.8142,-1.758,-1.7026,-1.6622,-1.5895,-1.5026,-1.4457,-1.3888,-1.3611,-1.3039,-1.2466,-1.1893,-1.1175,-1.0599,-0.9879,-0.959,-0.9735,-0.9446,-0.8863,-0.8295,-0.7584,-0.7027,-0.6496,-0.5954,-0.5553,-0.499,-0.4411,-0.3672,-0.2603,-0.153,-0.0765,-0.0306,0.0768,0.2011,0.2796,0.343,0.391,0.439,0.4865,0.5486,0.5796,0.5802,0.5958,0.6275,0.6747,0.7221,0.7842,0.8618,0.908,0.9703,1.0325,1.0796,1.1323,1.171,1.1931,1.2324,1.2715,1.3095,1.3304,1.3682,1.3753,1.3937,1.381,1.3944,1.3915,1.3718,-2.5173,-2.4881,-2.4548,-2.4239,-2.3991,-2.3728,-2.3245,-2.2731,-2.2606,-2.2606,-2.248,-2.248,-2.2355,-2.1853,-2.174,-2.1488,-2.1488,-2.1109,-2.0869,-2.068,-2.0631,-2.0657,-2.0628,-2.0592,-2.0734,-2.0921,-2.0784,-2.0653,-2.0515,-2.011,-1.997,-1.997,-1.982,-1.968,-1.968,-1.9401,-1.9401,-1.9401,-1.9122,-1.9401,-1.9959,-1.982,-1.9831,-1.9552,-1.9133,-1.8703,-1.8282,-1.7861,-1.7439,-1.6875,-1.6169,-1.5461,-1.4901,-1.4466,-1.3888,-1.3317,-1.2745,-1.2323,-1.1749,-1.1025,-1.0449,-0.9735,-0.9002,-0.828,-0.8,-0.8145,-0.8,-0.7421,-0.7131,-0.6417,-0.5835,-0.5284,-0.4733,-0.4322,-0.3895,-0.3312,-0.2272,-0.1217,0.0152,0.1521,0.1825,0.2132,0.306,0.3366,0.3991,0.4453,0.4937,0.5897,0.6368,0.7007,0.7022,0.7349,0.7505,0.7994,0.8632,0.9095,0.9397,1.0014,1.048,1.0946,1.1417,1.2037,1.2542,1.2617,1.2828,1.3183,1.3562,1.3785,1.3873,1.396,1.4113,1.4106,1.4221,1.4351,1.415,-2.4123,-2.3885,-2.3794,-2.345,-2.2981,-2.2981,-2.2606,-2.2104,-2.1978,-2.1727,-2.1488,-2.174,-2.174,-2.1488,-2.1109,-2.0856,-2.0615,-2.0488,-2.0234,-1.9979,-1.9992,-1.9861,-1.9727,-1.9638,-1.9723,-1.9776,-1.9623,-1.9472,-1.9401,-1.8982,-1.8703,-1.8703,-1.8563,-1.8272,-1.8272,-1.8272,-1.8272,-1.8131,-1.7991,-1.7991,-1.8142,-1.8422,-1.8563,-1.8422,-1.8002,-1.758,-1.7147,-1.6725,-1.616,-1.5461,-1.475,-1.4039,-1.3468,-1.3182,-1.261,-1.2029,-1.1599,-1.1025,-1.0305,-0.9729,-0.9152,-0.843,-0.7408,-0.6829,-0.6696,-0.6406,-0.6261,-0.6116,-0.5825,-0.5392,-0.481,-0.4233,-0.3678,-0.3104,-0.282,-0.1934,-0.0749,0.0301,0.1807,0.3315,0.3466,0.3466,0.3776,0.423,0.4686,0.5138,0.5758,0.655,0.7346,0.7991,0.8324,0.8674,0.8862,0.9511,0.9874,1.0186,1.033,1.0791,1.1256,1.1721,1.2037,1.2656,1.3127,1.3127,1.3494,1.37,1.4049,1.4258,1.4357,1.4449,1.4711,1.4987,1.4845,1.4987,1.4727,-2.2885,-2.2867,-2.2573,-2.2362,-2.2327,-2.2355,-2.2104,-2.174,-2.1362,-2.1109,-2.0869,-2.0755,-2.0755,-2.0729,-2.0475,-2.0234,-2.0106,-1.9979,-1.9596,-1.934,-1.92,-1.8992,-1.87,-1.8615,-1.8719,-1.8586,-1.8386,-1.8101,-1.8047,-1.7819,-1.758,-1.758,-1.759,-1.759,-1.7741,-1.759,-1.7147,-1.7007,-1.6866,-1.6734,-1.6734,-1.7017,-1.7298,-1.7157,-1.6744,-1.632,-1.5886,-1.5593,-1.5177,-1.4608,-1.3753,-1.2896,-1.2323,-1.1893,-1.1319,-1.0881,-1.0455,-0.9879,-0.9152,-0.8574,-0.8,-0.7276,-0.6543,-0.6108,-0.5825,-0.5244,-0.5098,-0.4953,-0.4662,-0.4374,-0.3791,-0.3354,-0.2783,-0.2343,-0.1909,0.0147,0.1768,0.2212,0.2949,0.3688,0.3983,0.4147,0.4622,0.5075,0.5836,0.6291,0.6915,0.7703,0.8318,0.8955,0.944,0.9807,1.0173,1.0263,1.0474,1.0958,1.1262,1.1721,1.2185,1.2494,1.2965,1.3274,1.359,1.3891,1.3891,1.4083,1.4423,1.4772,1.5236,1.5449,1.57,1.5829,1.5717,1.5759,1.5655]},{"header":{"parameterUnit":"m.s-1","parameterCategory":1,"la1":31.0,"la2":29.5877,"lo1":-88.7671,"lo2":-86.6584,"dy":0.0162,"dx":0.0185,"nx":115,"ny":88,"refTime":"2024-08-01T18:00:00:Z","depth":0,"parameterNumber":3,"parameterNumberName":"V-component_of_WINDS"},"data":[0.0,0.0,0.0,0.0,0.0,0.0,0.0,0.0,0.0,0.0,0.0,0.0,0.0,0.0,0.0,0.0,0.0,0.0,0.0,0.0,0.0,0.0,0.0,0.0,0.0,0.0,0.0,0.0,0.0,0.0,0.0,0.0,0.0,0.0,0.0,0.0,0.0,0.0,0.0,0.0,0.0,0.0,0.0,0.0,0.0,0.0,0.0,0.0,0.0,0.0,0.0,0.0,0.0,0.0,0.0,0.0,0.0,0.0,0.0,0.0,0.0,0.0,0.0,0.0,0.0,0.0,0.0,0.0,0.0,0.0,0.0,0.0,0.0,0.0,0.0,0.0,0.0,0.0,0.0,0.0,0.0,0.0,0.0,0.0,0.0,0.0,0.0,0.0,0.0,0.0,0.0,0.0,0.0,0.0,0.0,0.0,0.0,0.0,0.0,0.0,0.0,0.0,0.0,0.0,0.0,0.0,0.0,0.0,0.0,0.0,0.0,0.0,0.0,0.0,0.0,0.0,0.0,0.0,0.0,0.0,0.0,0.0,0.0,0.0,0.0,0.0,0.0,0.0,0.0,0.0,0.0,0.0,0.0,0.0,0.0,0.0,0.0,0.0,0.0,0.0,0.0,0.0,0.0,0.0,0.0,0.0,0.0,0.0,0.0,0.0,0.0,0.0,0.0,0.0,0.0,0.0,0.0,0.0,0.0,0.0,0.0,0.0,0.0,0.0,0.0,0.0,0.0,0.0,0.0,0.0,0.0,0.0,0.0,0.0,0.0,0.0,0.0,0.0,0.0,0.0,0.0,0.0,0.0,0.0,0.0,0.0,0.0,0.0,0.0,0.0,0.0,0.0,0.0,0.0,0.0,0.0,0.0,0.0,0.0,0.0,0.0,0.0,0.0,0.0,0.0,0.0,0.0,0.0,0.0,0.0,0.0,0.0,0.0,0.0,0.0,0.0,0.0,0.0,0.0,0.0,0.0,0.0,0.0,0.0,0.0,0.0,0.0,0.0,0.0,0.0,0.0,0.0,0.0,0.0,0.0,0.0,0.0,0.0,0.0,0.0,0.0,0.0,0.0,0.0,0.0,0.0,0.0,0.0,0.0,0.0,0.0,0.0,0.0,0.0,0.0,0.0,0.0,0.0,0.0,0.0,0.0,0.0,0.0,0.0,0.0,0.0,0.0,0.0,0.0,0.0,0.0,0.0,0.0,0.0,0.0,0.0,0.0,0.0,0.0,0.0,0.0,0.0,0.0,0.0,0.0,0.0,0.0,0.0,0.0,0.0,0.0,0.0,0.0,0.0,0.0,0.0,0.0,0.0,0.0,0.0,0.0,0.0,0.0,0.0,0.0,0.0,0.0,0.0,0.0,0.0,0.0,0.0,0.0,0.0,0.0,0.0,0.0,0.0,0.0,0.0,0.0,0.0,0.0,0.0,0.0,0.0,0.0,0.0,0.0,0.0,0.0,0.0,0.0,0.0,0.0,0.0,0.0,0.0,0.0,0.0,0.0,0.0,0.0,0.0,0.0,0.0,0.0,0.0,0.0,0.0,0.0,0.0,0.0,0.0,0.0,0.0,0.0,0.0,0.0,0.0,0.0,0.0,0.0,0.0,0.0,0.0,0.0,0.0,0.0,0.0,0.0,0.0,0.0,0.0,0.0,0.0,0.0,0.0,0.0,0.0,0.0,0.0,0.0,0.0,0.0,0.0,0.0,0.0,0.0,0.0,0.0,0.0,0.0,0.0,0.0,0.0,0.0,0.0,0.0,0.0,0.0,0.0,0.0,0.0,0.0,0.0,0.0,0.0,0.0,0.0,0.0,0.0,0.0,0.0,0.0,0.0,0.0,0.0,0.0,0.0,0.0,0.0,0.0,0.0,0.0,0.0,0.0,0.0,0.0,0.0,0.0,0.0,0.0,0.0,0.0,0.0,0.0,0.0,0.0,0.0,0.0,0.0,0.0,0.0,0.0,0.0,0.0,0.0,0.0,0.0,0.0,0.0,0.0,0.0,0.0,0.0,0.0,0.0,0.0,0.0,0.0,0.0,0.0,0.0,0.0,0.0,0.0,0.0,0.0,0.0,0.0,0.0,0.0,0.0,0.0,0.0,0.0,0.0,0.0,0.0,0.0,0.0,0.0,0.0,0.0,0.0,0.0,0.0,0.0,0.0,0.0,0.0,0.0,0.0,0.0,0.0,0.0,0.0,0.0,0.0,0.0,0.0,0.0,0.0,0.0,0.0,0.0,0.0,0.0,0.0,0.0,0.0,0.0,0.0,0.0,0.0,0.0,0.0,0.0,0.0,0.0,0.0,0.0,0.0,0.0,0.0,0.0,0.0,0.0,0.0,0.0,0.0,0.0,0.0,0.0,0.0,0.0,0.0,0.0,0.0,0.0,0.0,0.0,0.0,0.0,0.0,0.0,0.0,0.0,0.0,0.0,0.0,0.0,0.0,0.0,0.0,0.0,0.0,0.0,0.0,0.0,0.0,0.0,0.0,0.0,0.0,0.0,0.0,0.0,0.0,0.0,0.0,0.0,0.0,0.0,0.0,0.0,0.0,0.0,0.0,0.0,0.0,0.0,0.0,0.0,0.0,0.0,0.0,0.0,0.0,0.0,0.0,0.0,0.0,0.0,0.0,0.0,0.0,0.0,0.0,0.0,0.0,0.0,0.0,0.0,0.0,0.0,0.0,0.0,0.0,0.0,0.0,0.0,0.0,0.0,0.0,0.0,0.0,0.0,0.0,0.0,0.0,0.0,0.0,0.0,0.0,0.0,0.0,0.0,0.0,0.0,0.0,0.0,0.0,0.0,0.0,0.0,0.0,0.0,0.0,0.0,0.0,0.0,0.0,0.0,0.0,0.0,0.0,0.0,0.0,0.0,0.0,0.0,0.0,0.0,0.0,0.0,0.0,0.0,0.0,0.0,0.0,0.0,0.0,0.0,0.0,0.0,0.0,0.0,0.0,0.0,0.0,0.0,0.0,0.0,0.0,0.0,0.0,0.0,0.0,0.0,0.0,0.0,0.0,0.0,0.0,0.0,0.0,0.0,0.0,0.0,0.0,0.0,0.0,0.0,0.0,0.0,0.0,0.0,0.0,0.0,0.0,0.0,0.0,0.0,0.0,0.0,0.0,0.0,0.0,0.0,0.0,0.0,0.0,0.0,0.0,0.0,0.0,0.0,0.0,0.0,0.0,0.0,0.0,0.0,0.0,0.0,0.0,0.0,0.0,0.0,0.0,0.0,0.0,0.0,0.0,0.0,0.0,0.0,0.0,0.0,0.0,0.0,0.0,0.0,0.0,0.0,0.0,0.0,0.0,0.0,0.0,0.0,0.0,0.0,0.0,0.0,0.0,0.0,0.0,0.0,0.0,0.0,0.0,0.0,0.0,0.0,0.0,0.0,0.0,0.0,0.0,0.0,0.0,0.0,0.0,0.0,0.0,0.0,0.0,0.0,0.0,0.0,0.0,0.0,0.0,0.0,0.0,0.0,0.0,0.0,0.0,0.0,0.0,0.0,0.0,0.0,0.0,0.0,0.0,0.0,0.0,0.0,0.0,0.0,0.0,0.0,0.0,0.0,0.0,0.0,0.0,0.0,0.0,0.0,0.0,0.0,0.0,0.0,0.0,0.0,0.0,0.0,0.0,0.0,0.0,0.0,0.0,0.0,0.0,0.0,0.0,0.0,0.0,0.0,0.0,0.0,0.0,0.0,0.0,0.0,0.0,0.0,0.0,0.0,0.0,0.0,0.0,0.0,0.0,0.0,0.0,0.0,0.0,0.0,0.0,0.0,0.0,0.0,0.0,0.0,0.0,0.0,0.0,0.0,0.0,0.0,0.0,0.0,0.0,0.0,0.0,0.0,0.0,0.0,0.0,0.0,0.0,0.0,0.0,0.0,0.0,0.0,0.0,0.0,0.0,0.0,0.0,0.0,0.0,0.0,0.0,0.0,0.0,0.0,0.0,0.0,0.0,0.0,0.0,0.0,0.0,0.0,0.0,0.0,0.0,0.0,0.0,0.0,0.0,0.0,0.0,0.0,0.0,0.0,0.0,0.0,0.0,0.0,0.0,0.0,0.0,0.0,0.0,0.0,0.0,0.0,0.0,0.0,0.0,0.0,0.0,0.0,0.0,0.0,0.0,0.0,0.0,0.0,0.0,0.0,0.0,0.0,0.0,0.0,0.0,0.0,0.0,0.0,0.0,0.0,0.0,0.0,0.0,0.0,0.0,0.0,0.0,0.0,0.0,0.0,0.0,0.0,0.0,0.0,0.0,3.4665,0.0,0.0,0.0,0.0,0.0,0.0,0.0,0.0,0.0,0.0,0.0,0.0,0.0,0.0,0.0,0.0,0.0,0.0,0.0,0.0,0.0,0.0,0.0,0.0,0.0,0.0,0.0,0.0,0.0,0.0,0.0,0.0,0.0,0.0,0.0,0.0,0.0,0.0,0.0,0.0,0.0,0.0,0.0,0.0,0.0,0.0,0.0,0.0,0.0,0.0,0.0,0.0,0.0,0.0,0.0,0.0,0.0,0.0,0.0,0.0,0.0,0.0,0.0,0.0,0.0,0.0,0.0,0.0,0.0,0.0,0.0,0.0,0.0,0.0,0.0,0.0,0.0,0.0,0.0,0.0,0.0,0.0,0.0,0.0,0.0,0.0,0.0,0.0,0.0,0.0,0.0,0.0,0.0,0.0,0.0,0.0,0.0,0.0,0.0,0.0,0.0,0.0,0.0,0.0,0.0,0.0,0.0,0.0,0.0,0.0,3.676,3.5707,3.3855,3.2075,3.0544,0.0,0.0,0.0,0.0,0.0,0.0,0.0,0.0,0.0,0.0,0.0,0.0,0.0,0.0,0.0,0.0,0.0,0.0,0.0,0.0,0.0,0.0,0.0,0.0,0.0,0.0,0.0,0.0,0.0,0.0,0.0,0.0,0.0,0.0,0.0,0.0,0.0,0.0,0.0,0.0,0.0,0.0,0.0,0.0,0.0,0.0,0.0,0.0,0.0,0.0,0.0,0.0,0.0,0.0,0.0,0.0,0.0,0.0,0.0,0.0,0.0,0.0,0.0,0.0,0.0,0.0,0.0,0.0,0.0,0.0,0.0,0.0,0.0,0.0,0.0,0.0,0.0,0.0,0.0,0.0,0.0,0.0,0.0,0.0,0.0,0.0,0.0,0.0,0.0,0.0,0.0,0.0,0.0,0.0,0.0,0.0,0.0,0.0,0.0,0.0,0.0,0.0,0.0,0.0,0.0,0.0,0.0,0.0,0.0,0.0,0.0,0.0,2.9469,2.7133,2.4847,0.0,0.0,0.0,0.0,0.0,0.0,0.0,0.0,0.0,0.0,0.0,0.0,0.0,0.0,0.0,0.0,0.0,0.0,0.0,0.0,0.0,0.0,0.0,0.0,0.0,0.0,0.0,0.0,0.0,0.0,0.0,0.0,0.0,0.0,0.0,0.0,0.0,0.0,0.0,0.0,0.0,0.0,0.0,0.0,0.0,0.0,0.0,0.0,0.0,0.0,0.0,0.0,0.0,0.0,0.0,0.0,0.0,0.0,0.0,0.0,0.0,0.0,0.0,0.0,0.0,0.0,0.0,0.0,0.0,0.0,0.0,0.0,0.0,0.0,0.0,0.0,0.0,0.0,0.0,0.0,0.0,0.0,0.0,0.0,0.0,0.0,0.0,0.0,0.0,0.0,0.0,0.0,0.0,0.0,0.0,0.0,0.0,0.0,0.0,0.0,0.0,0.0,0.0,0.0,0.0,0.0,0.0,0.0,0.0,0.0,2.8224,2.5913,2.3596,0.0,1.6881,0.0,0.0,0.0,0.0,0.0,0.0,0.0,0.0,0.0,0.0,0.0,0.0,0.0,0.0,0.0,0.0,0.0,0.0,0.0,0.0,0.0,0.0,0.0,0.0,0.0,0.0,0.0,0.0,0.0,0.0,0.0,0.0,0.0,0.0,0.0,0.0,0.0,0.0,0.0,0.0,0.0,0.0,0.0,0.0,0.0,0.0,0.0,0.0,0.0,0.0,0.0,0.0,0.0,0.0,0.0,0.0,0.0,0.0,0.0,0.0,0.0,0.0,0.0,0.0,0.0,0.0,0.0,0.0,0.0,0.0,0.0,0.0,0.0,0.0,0.0,0.0,0.0,0.0,0.0,0.0,0.0,0.0,0.0,0.0,0.0,0.0,0.0,0.0,0.0,0.0,0.0,0.0,0.0,0.0,0.0,0.0,0.0,0.0,0.0,0.0,0.0,0.0,0.0,0.0,0.0,0.0,0.0,0.0,0.0,0.0,2.1986,1.8797,1.5241,1.2268,0.0,0.0,0.0,0.0,0.0,0.0,0.0,0.0,0.0,0.0,0.0,0.0,0.0,0.0,0.0,0.0,0.0,0.0,0.0,0.0,0.0,0.0,0.0,0.0,0.0,0.0,0.0,0.0,0.0,0.0,0.0,0.0,0.0,0.0,0.0,0.0,0.0,0.0,0.0,0.0,0.0,0.0,0.0,0.0,0.0,0.0,0.0,0.0,0.0,0.0,0.0,0.0,0.0,0.0,0.0,0.0,0.0,0.0,0.0,0.0,0.0,0.0,0.0,0.0,0.0,0.0,0.0,0.0,0.0,0.0,0.0,0.0,0.0,0.0,0.0,0.0,0.0,0.0,0.0,0.0,0.0,0.0,0.0,0.0,0.0,0.0,0.0,0.0,0.0,0.0,0.0,0.0,0.0,0.0,0.0,0.0,0.0,0.0,0.0,0.0,0.0,0.0,0.0,0.0,0.0,0.0,0.0,0.0,0.0,0.0,1.8192,1.5071,1.1106,0.7485,0.5037,0.3903,0.0,0.0,0.0,0.0,0.0,0.0,0.0,0.0,0.0,0.0,0.0,0.0,0.0,0.0,0.0,0.0,0.0,0.0,0.0,0.0,0.0,0.0,0.0,0.0,0.0,0.0,0.0,0.0,0.0,0.0,0.0,0.0,0.0,0.0,0.0,0.0,0.0,0.0,0.0,0.0,0.0,0.0,0.0,0.0,0.0,0.0,0.0,0.0,0.0,0.0,0.0,0.0,0.0,0.0,0.0,0.0,0.0,0.0,0.0,0.0,0.0,0.0,0.0,0.0,0.0,0.0,0.0,0.0,0.0,0.0,0.0,0.0,0.0,0.0,0.0,0.0,0.0,0.0,0.0,0.0,0.0,0.0,0.0,0.0,0.0,0.0,0.0,0.0,0.0,0.0,0.0,0.0,0.0,0.0,0.0,0.0,0.0,0.0,0.0,0.0,0.0,0.0,0.0,0.0,0.0,0.0,0.0,0.0,0.0,1.1163,0.7409,0.2941,0.1017,-0.0497,0.0,0.0,0.0,0.0,0.0,0.0,0.0,0.0,0.0,0.0,0.0,0.0,0.0,0.0,0.0,0.0,0.0,0.0,0.0,0.0,0.0,0.0,0.0,0.0,0.0,0.0,0.0,0.0,0.0,0.0,0.0,0.0,0.0,0.0,0.0,0.0,0.0,0.0,0.0,0.0,0.0,0.0,0.0,0.0,0.0,0.0,0.0,0.0,0.0,0.0,0.0,0.0,0.0,0.0,0.0,0.0,0.0,0.0,0.0,0.0,0.0,0.0,0.0,0.0,0.0,0.0,0.0,0.0,0.0,0.0,0.0,0.0,0.0,0.0,0.0,0.0,0.0,0.0,0.0,0.0,0.0,0.0,0.0,0.0,0.0,0.0,0.0,0.0,0.0,0.0,0.0,0.0,0.0,0.0,0.0,0.0,0.0,0.0,0.0,0.0,0.0,0.0,0.0,0.0,0.0,0.0,0.0,0.0,0.0,0.7543,0.3181,-0.0105,-0.232,-0.4181,-0.5477,0.0,0.0,0.0,0.0,0.0,0.0,0.0,0.0,0.0,0.0,0.0,0.0,0.0,0.0,0.0,0.0,0.0,0.0,0.0,0.0,0.0,0.0,0.0,0.0,0.0,0.0,0.0,0.0,0.0,0.0,0.0,0.0,0.0,0.0,0.0,0.0,0.0,0.0,0.0,0.0,0.0,0.0,0.0,0.0,0.0,0.0,0.0,0.0,0.0,0.0,0.0,0.0,0.0,0.0,0.0,0.0,0.0,0.0,0.0,0.0,0.0,0.0,0.0,0.0,0.0,0.0,0.0,0.0,0.0,0.0,0.0,0.0,0.0,0.0,0.0,0.0,0.0,0.0,0.0,0.0,0.0,0.0,0.0,0.0,0.0,0.0,0.0,0.0,0.0,0.0,0.0,0.0,0.0,0.0,0.0,0.0,0.0,0.0,0.0,0.0,0.0,0.0,0.0,0.0,0.0,0.0,0.0,0.0,0.0,0.0103,0.0,-0.6666,0.0,-0.8871,-0.9815,0.0,0.0,0.0,0.0,0.0,0.0,0.0,0.0,0.0,0.0,0.0,0.0,0.0,0.0,0.0,0.0,0.0,0.0,0.0,0.0,0.0,0.0,0.0,0.0,0.0,0.0,0.0,0.0,0.0,0.0,0.0,0.0,0.0,0.0,0.0,0.0,0.0,0.0,0.0,0.0,0.0,0.0,0.0,0.0,0.0,0.0,0.0,0.0,0.0,0.0,0.0,0.0,0.0,0.0,0.0,0.0,0.0,0.0,0.0,0.0,0.0,0.0,0.0,0.0,0.0,0.0,0.0,0.0,0.0,0.0,0.0,0.0,0.0,0.0,0.0,0.0,0.0,0.0,0.0,0.0,0.0,0.0,0.0,0.0,0.0,0.0,0.0,0.0,0.0,0.0,0.0,0.0,0.0,0.0,0.0,0.0,0.0,0.0,0.0,0.0,0.0,0.0,0.0,0.0,0.0,0.0,0.0,0.0,-0.3588,-0.8349,-1.0422,-1.178,-1.2606,-1.3148,-1.3529,0.0,0.0,0.0,0.0,0.0,0.0,0.0,0.0,0.0,0.0,0.0,0.0,0.0,0.0,0.0,0.0,0.0,0.0,0.0,0.0,0.0,0.0,0.0,0.0,0.0,0.0,0.0,0.0,0.0,0.0,0.0,0.0,0.0,0.0,0.0,0.0,0.0,0.0,0.0,0.0,0.0,0.0,0.0,0.0,0.0,0.0,0.0,0.0,0.0,0.0,0.0,0.0,0.0,0.0,0.0,0.0,0.0,0.0,0.0,0.0,0.0,0.0,0.0,0.0,0.0,0.0,0.0,0.0,0.0,0.0,0.0,0.0,0.0,0.0,0.0,0.0,0.0,0.0,0.0,0.0,0.0,0.0,0.0,0.0,0.0,0.0,0.0,0.0,0.0,0.0,0.0,0.0,0.0,0.0,0.0,0.0,0.0,0.0,0.0,0.0,0.0,0.0,0.0,0.0,0.0,0.0,0.0,0.0,0.0,-1.2617,-1.407,-1.5459,-1.6648,-1.6881,-1.6945,0.0,0.0,0.0,0.0,0.0,0.0,0.0,0.0,0.0,0.0,0.0,0.0,0.0,0.0,0.0,0.0,0.0,0.0,0.0,0.0,0.0,0.0,0.0,0.0,0.0,0.0,0.0,0.0,0.0,0.0,0.0,0.0,0.0,0.0,0.0,0.0,0.0,0.0,0.0,0.0,0.0,0.0,0.0,0.0,0.0,0.0,0.0,0.0,0.0,0.0,0.0,0.0,0.0,0.0,0.0,0.0,0.0,0.0,0.0,0.0,0.0,0.0,0.0,0.0,0.0,0.0,0.0,0.0,0.0,0.0,0.0,0.0,0.0,0.0,0.0,0.0,0.0,0.0,0.0,0.0,0.0,0.0,0.0,0.0,0.0,0.0,0.0,0.0,0.0,0.0,0.0,0.0,0.0,0.0,0.0,0.0,0.0,0.0,0.0,0.0,0.0,0.0,0.0,0.0,0.0,0.0,0.0,0.0,0.0,-1.8531,-1.8782,-1.9498,-2.0582,-2.0407,-2.0215,-1.9921,0.0,0.0,0.0,0.0,0.0,0.0,0.0,0.0,0.0,0.0,0.0,0.0,0.0,0.0,0.0,0.0,0.0,0.0,0.0,0.0,0.0,0.0,0.0,0.0,0.0,0.0,0.0,0.0,0.0,0.0,0.0,0.0,0.0,0.0,0.0,0.0,0.0,0.0,0.0,0.0,0.0,0.0,0.0,0.0,0.0,0.0,0.0,0.0,0.0,0.0,0.0,0.0,0.0,0.0,0.0,0.0,0.0,0.0,0.0,0.0,0.0,0.0,0.0,0.0,0.0,0.0,0.0,0.0,0.0,0.0,0.0,0.0,0.0,0.0,0.0,0.0,0.0,0.0,0.0,0.0,0.0,0.0,0.0,0.0,0.0,0.0,0.0,0.0,0.0,0.0,0.0,0.0,0.0,0.0,0.0,0.0,0.0,0.0,0.0,0.0,0.0,0.0,0.0,0.0,0.0,0.0,0.0,0.0,-2.5504,-2.4387,-2.3904,-2.4283,-2.3793,-2.31,0.0,0.0,0.0,0.0,0.0,0.0,0.0,0.0,0.0,0.0,0.0,0.0,0.0,0.0,0.0,0.0,0.0,0.0,0.0,0.0,0.0,0.0,0.0,0.0,0.0,0.0,0.0,0.0,0.0,0.0,0.0,0.0,0.0,0.0,0.0,0.0,0.0,0.0,0.0,0.0,0.0,0.0,0.0,0.0,0.0,0.0,0.0,0.0,0.0,0.0,0.0,0.0,0.0,0.0,0.0,0.0,0.0,0.0,0.0,0.0,0.0,0.0,0.0,0.0,0.0,0.0,0.0,0.0,0.0,0.0,0.0,0.0,0.0,0.0,0.0,0.0,0.0,0.0,0.0,0.0,0.0,0.0,0.0,0.0,0.0,0.0,0.0,0.0,0.0,0.0,0.0,0.0,0.0,0.0,0.0,0.0,0.0,0.0,0.0,0.0,0.0,0.0,0.0,0.0,0.0,0.0,0.0,0.0,0.0,-2.8584,-3.0158,-2.9925,-2.7729,-2.6686,-2.5797,0.0,0.0,0.0,0.0,0.0,0.0,0.0,0.0,0.0,0.0,0.0,0.0,0.0,0.0,0.0,0.0,0.0,0.0,0.0,0.0,0.0,0.0,0.0,0.0,0.0,0.0,0.0,0.0,0.0,0.0,0.0,0.0,0.0,0.0,0.0,0.0,0.0,0.0,0.0,0.0,0.0,0.0,0.0,0.0,0.0,0.0,0.0,0.0,0.0,0.0,0.0,0.0,0.0,0.0,0.0,0.0,0.0,0.0,0.0,0.0,0.0,0.0,0.0,0.0,0.0,0.0,0.0,0.0,0.0,0.0,0.0,0.0,0.0,0.0,0.0,0.0,0.0,0.0,0.0,0.0,0.0,0.0,0.0,0.0,0.0,0.0,0.0,0.0,0.0,0.0,0.0,0.0,0.0,0.0,0.0,0.0,0.0,0.0,0.0,0.0,0.0,0.0,0.0,0.0,0.0,0.0,0.0,0.0,-2.887,-3.1465,-3.3661,-3.401,-3.2425,-3.0553,-2.8859,0.0,0.0,0.0,0.0,0.0,0.0,0.0,0.0,0.0,0.0,0.0,0.0,0.0,0.0,0.0,0.0,0.0,0.0,0.0,0.0,0.0,0.0,0.0,0.0,0.0,0.0,0.0,0.0,0.0,0.0,0.0,0.0,0.0,0.0,0.0,0.0,0.0,0.0,0.0,0.0,0.0,0.0,0.0,0.0,0.0,0.0,0.0,0.0,0.0,0.0,0.0,0.0,0.0,0.0,0.0,0.0,0.0,0.0,0.0,0.0,0.0,0.0,0.0,0.0,0.0,0.0,0.0,0.0,0.0,0.0,0.0,0.0,0.0,0.0,0.0,0.0,0.0,0.0,0.0,0.0,0.0,0.0,0.0,0.0,0.0,0.0,0.0,0.0,0.0,0.0,0.0,0.0,0.0,0.0,0.0,0.0,0.0,0.0,0.0,0.0,0.0,0.0,0.0,0.0,0.0,0.0,0.0,0.0,-3.1154,-3.381,-3.5749,-3.6843,-3.7203,-3.4477,-3.2028,0.0,0.0,0.0,0.0,0.0,0.0,0.0,0.0,0.0,0.0,0.0,0.0,0.0,0.0,0.0,0.0,0.0,0.0,0.0,0.0,0.0,0.0,0.0,0.0,0.0,0.0,0.0,0.0,0.0,0.0,0.0,0.0,0.0,0.0,0.0,0.0,0.0,0.0,0.0,0.0,0.0,0.0,0.0,0.0,0.0,0.0,0.0,0.0,0.0,0.0,0.0,0.0,0.0,0.0,0.0,0.0,0.0,0.0,0.0,0.0,0.0,0.0,0.0,0.0,0.0,0.0,0.0,0.0,0.0,0.0,0.0,0.0,0.0,0.0,0.0,0.0,0.0,0.0,0.0,0.0,0.0,0.0,0.0,0.0,0.0,0.0,0.0,0.0,0.0,0.0,0.0,0.0,0.0,0.0,0.0,0.0,0.0,0.0,0.0,0.0,0.0,0.0,0.0,0.0,0.0,0.0,0.0,0.0,-3.2836,-3.5189,-3.7405,-3.8514,-3.8104,-3.5794,-3.347,0.0,0.0,0.0,0.0,0.0,0.0,0.0,0.0,0.0,0.0,0.0,0.0,0.0,0.0,0.0,0.0,0.0,0.0,0.0,0.0,0.0,0.0,0.0,0.0,0.0,0.0,0.0,0.0,0.0,0.0,0.0,0.0,0.0,0.0,0.0,0.0,0.0,0.0,0.0,0.0,0.0,0.0,0.0,0.0,0.0,0.0,0.0,0.0,-3.0184,0.0,0.0,0.0,0.0,0.0,0.0,0.0,0.0,0.0,0.0,0.0,0.0,0.0,0.0,0.0,0.0,0.0,0.0,0.0,0.0,0.0,0.0,0.0,0.0,0.0,0.0,0.0,0.0,0.0,0.0,0.0,0.0,0.0,0.0,0.0,0.0,0.0,0.0,0.0,0.0,0.0,0.0,0.0,0.0,0.0,0.0,0.0,0.0,0.0,0.0,0.0,0.0,0.0,0.0,0.0,0.0,0.0,0.0,0.0,-3.4101,-3.6518,-3.8599,-3.9611,-3.9501,-3.7716,-3.5657,0.0,0.0,0.0,0.0,0.0,0.0,0.0,0.0,0.0,0.0,0.0,0.0,0.0,0.0,0.0,0.0,0.0,0.0,0.0,0.0,0.0,0.0,0.0,0.0,0.0,0.0,0.0,0.0,0.0,0.0,0.0,0.0,0.0,0.0,0.0,0.0,0.0,0.0,0.0,0.0,0.0,0.0,0.0,0.0,0.0,0.0,0.0,0.0,0.0,0.0,0.0,0.0,0.0,0.0,0.0,0.0,0.0,0.0,0.0,0.0,0.0,0.0,0.0,0.0,0.0,0.0,0.0,0.0,0.0,0.0,0.0,0.0,0.0,0.0,0.0,0.0,0.0,0.0,0.0,0.0,0.0,0.0,0.0,0.0,0.0,0.0,0.0,0.0,0.0,0.0,0.0,0.0,0.0,0.0,0.0,0.0,0.0,0.0,0.0,0.0,0.0,0.0,0.0,0.0,0.0,0.0,0.0,-3.2167,-3.5146,-3.7551,-3.9278,-4.0325,-4.0641,-3.9348,-3.7543,-3.5138,0.0,0.0,0.0,0.0,0.0,0.0,0.0,0.0,0.0,0.0,0.0,0.0,0.0,0.0,0.0,0.0,0.0,0.0,0.0,0.0,0.0,0.0,0.0,0.0,0.0,0.0,0.0,0.0,0.0,0.0,0.0,0.0,0.0,0.0,0.0,0.0,0.0,0.0,-0.1162,-0.7687,0.0,0.0,0.0,0.0,0.0,0.0,0.0,0.0,-4.9881,0.0,0.0,0.0,0.0,0.0,0.0,0.0,0.0,0.0,0.0,0.0,0.0,0.0,0.0,0.0,0.0,0.0,0.0,0.0,0.0,0.0,0.0,0.0,0.0,0.0,0.0,0.0,0.0,0.0,0.0,0.0,0.0,0.0,0.0,0.0,0.0,0.0,0.0,0.0,0.0,0.0,0.0,0.0,0.0,0.0,0.0,0.0,0.0,0.0,0.0,0.0,0.0,0.0,0.0,0.0,0.0,-2.9738,-3.2863,-3.5352,-3.7317,-3.9118,-3.9982,-3.9801,-3.8605,-3.7457,-3.6299,0.0,0.0,0.0,0.0,0.0,0.0,0.0,0.0,0.0,0.0,0.0,0.0,0.0,0.0,0.0,0.0,0.0,0.0,0.0,0.0,0.0,0.0,0.0,0.0,0.0,0.0,0.0,0.0,0.0,0.0,0.0,0.0,0.0,0.0,0.0,0.0,0.0,0.0,0.0,-1.7569,-2.7087,0.0,0.0,0.0,0.0,0.0,0.0,0.0,0.0,-5.2342,0.0,0.0,0.0,0.0,0.0,0.0,0.0,0.0,0.0,0.0,0.0,0.0,0.0,0.0,0.0,0.0,0.0,0.0,0.0,0.0,0.0,0.0,0.0,0.0,0.0,0.0,0.0,0.0,0.0,0.0,0.0,0.0,0.0,0.0,0.0,0.0,0.0,0.0,0.0,0.0,0.0,0.0,0.0,0.0,0.0,0.0,0.0,0.0,0.0,0.0,0.0,0.0,0.0,0.0,0.0,-3.0057,-3.3054,-3.5525,-3.7518,-3.9297,-4.031,-4.0239,-3.912,-3.8069,0.0,0.0,0.0,0.0,0.0,0.0,0.0,0.0,0.0,0.0,0.0,0.0,0.0,0.0,0.0,0.0,0.0,0.0,0.0,0.0,0.0,0.0,0.0,0.0,0.0,0.0,0.0,0.0,0.0,0.0,0.0,0.0,0.0,0.0,0.0,0.0,0.0,0.0,0.0,0.0,-2.7387,-3.4372,-4.2773,0.0,0.0,0.0,0.0,0.0,0.0,-5.4682,-5.4143,0.0,0.0,0.0,0.0,0.0,0.0,0.0,0.0,0.0,0.0,0.0,0.0,0.0,0.0,0.0,0.0,0.0,0.0,0.0,0.0,0.0,0.0,0.0,0.0,0.0,0.0,0.0,0.0,0.0,0.0,0.0,0.0,0.0,0.0,0.0,0.0,0.0,0.0,0.0,0.0,0.0,0.0,0.0,0.0,0.0,0.0,0.0,0.0,0.0,0.0,0.0,0.0,0.0,0.0,0.0,-3.0306,-3.3339,-3.5917,-3.7916,-3.9827,-4.0785,-4.0764,-3.96,-3.8436,0.0,0.0,0.0,0.0,0.0,0.0,0.0,0.0,0.0,0.0,0.0,0.0,0.0,0.0,0.0,0.0,0.0,0.0,0.0,0.0,0.0,0.0,0.0,0.0,0.0,0.0,0.0,0.0,0.0,0.0,0.0,0.0,0.0,0.0,0.0,0.0,0.0,0.0,0.0,0.0,0.0,-4.1023,-4.4982,-4.9348,0.0,0.0,0.0,0.0,-5.5538,-5.5357,0.0,0.0,0.0,0.0,0.0,0.0,0.0,0.0,0.0,0.0,0.0,0.0,0.0,0.0,0.0,0.0,0.0,0.0,0.0,0.0,0.0,0.0,0.0,0.0,0.0,0.0,0.0,0.0,0.0,0.0,0.0,0.0,0.0,0.0,0.0,0.0,0.0,0.0,0.0,0.0,0.0,0.0,0.0,0.0,0.0,0.0,0.0,0.0,0.0,0.0,0.0,0.0,0.0,0.0,0.0,0.0,-3.1294,-3.4372,-3.6789,-3.8677,-4.0769,-4.1533,-4.0602,-3.957,-3.8389,0.0,0.0,0.0,0.0,0.0,0.0,0.0,0.0,0.0,0.0,0.0,0.0,0.0,0.0,0.0,0.0,0.0,0.0,0.0,0.0,0.0,0.0,0.0,0.0,0.0,0.0,0.0,0.0,0.0,0.0,0.0,0.0,0.0,0.0,0.0,0.0,0.0,0.0,0.0,0.0,0.0,-4.8641,-5.0894,-5.4195,-5.6361,0.0,0.0,-5.5358,-5.4663,-5.4054,0.0,0.0,0.0,0.0,0.0,0.0,0.0,0.0,0.0,0.0,0.0,0.0,0.0,0.0,0.0,0.0,0.0,0.0,0.0,0.0,0.0,0.0,0.0,0.0,0.0,0.0,0.0,0.0,0.0,0.0,0.0,0.0,0.0,0.0,0.0,0.0,0.0,0.0,0.0,0.0,0.0,0.0,0.0,0.0,0.0,0.0,0.0,0.0,0.0,0.0,0.0,0.0,0.0,0.0,0.0,-2.9671,-3.2261,-3.5052,-3.7501,-3.959,-4.1619,-4.2372,-4.1727,-4.0453,-3.9157,0.0,0.0,0.0,0.0,0.0,0.0,0.0,0.0,0.0,0.0,0.0,0.0,0.0,0.0,0.0,0.0,0.0,0.0,0.0,0.0,0.0,0.0,0.0,0.0,0.0,0.0,0.0,0.0,0.0,0.0,0.0,0.0,0.0,0.0,0.0,0.0,0.0,0.0,0.0,0.0,0.0,0.0,-5.4804,-5.6466,0.0,0.0,0.0,-5.6249,-5.4835,0.0,0.0,0.0,0.0,0.0,0.0,0.0,0.0,0.0,0.0,0.0,0.0,0.0,0.0,0.0,0.0,0.0,0.0,0.0,0.0,0.0,0.0,0.0,0.0,0.0,0.0,0.0,0.0,0.0,0.0,0.0,0.0,0.0,0.0,0.0,0.0,0.0,0.0,0.0,0.0,0.0,0.0,0.0,0.0,0.0,0.0,0.0,0.0,0.0,0.0,0.0,0.0,0.0,0.0,0.0,0.0,0.0,-3.3429,-3.6004,-3.8503,-4.0842,-4.2697,-4.338,-4.281,-4.1334,0.0,0.0,0.0,0.0,0.0,0.0,0.0,0.0,0.0,0.0,0.0,0.0,0.0,0.0,0.0,0.0,0.0,0.0,0.0,0.0,0.0,0.0,0.0,0.0,0.0,0.0,0.0,-3.9577,0.0,0.0,0.0,0.0,0.0,0.0,0.0,0.0,0.0,0.0,0.0,0.0,0.0,0.0,-5.5086,-5.6936,-5.7525,-5.7524,0.0,0.0,-5.7092,-5.5256,-5.575,-5.5741,0.0,0.0,0.0,0.0,0.0,0.0,0.0,0.0,0.0,0.0,0.0,0.0,0.0,0.0,0.0,0.0,0.0,0.0,0.0,0.0,0.0,0.0,0.0,0.0,0.0,0.0,0.0,0.0,0.0,0.0,0.0,0.0,0.0,0.0,0.0,0.0,0.0,0.0,0.0,0.0,0.0,0.0,0.0,0.0,0.0,0.0,0.0,0.0,0.0,0.0,0.0,0.0,0.0,0.0,0.0,-3.4934,-3.7467,-3.9951,-4.2321,-4.4054,-4.451,-4.3516,-4.191,-4.0266,0.0,0.0,0.0,0.0,0.0,0.0,0.0,0.0,0.0,0.0,0.0,0.0,0.0,0.0,0.0,0.0,0.0,0.0,0.0,0.0,0.0,0.0,0.0,0.0,0.0,0.0,0.0,0.0,0.0,0.0,0.0,0.0,0.0,0.0,0.0,0.0,0.0,0.0,0.0,0.0,0.0,-5.5554,-5.6671,-5.746,-5.7639,0.0,0.0,-5.7025,-5.5652,-5.5436,-5.5062,-5.3993,0.0,0.0,0.0,0.0,0.0,0.0,0.0,0.0,0.0,0.0,0.0,0.0,0.0,0.0,0.0,0.0,0.0,0.0,0.0,0.0,0.0,0.0,0.0,0.0,0.0,0.0,0.0,0.0,0.0,0.0,0.0,0.0,0.0,0.0,0.0,0.0,0.0,0.0,0.0,0.0,0.0,0.0,0.0,0.0,0.0,0.0,0.0,0.0,0.0,0.0,0.0,0.0,0.0,-3.3008,-3.6128,-3.8792,-4.1075,-4.3105,-4.4841,-4.5316,-4.4208,-4.2994,-4.1306,0.0,0.0,0.0,0.0,0.0,0.0,0.0,0.0,0.0,0.0,0.0,0.0,0.0,0.0,0.0,0.0,0.0,0.0,0.0,0.0,0.0,0.0,0.0,0.0,0.0,0.0,0.0,0.0,-4.1706,-4.2834,-4.2798,0.0,0.0,0.0,0.0,0.0,0.0,0.0,0.0,0.0,0.0,-5.5829,-5.6958,-5.7299,0.0,0.0,-5.6225,-5.6188,-5.4849,-5.5355,-5.5553,-5.4444,-5.3782,0.0,0.0,0.0,0.0,0.0,0.0,0.0,0.0,0.0,0.0,0.0,0.0,0.0,0.0,0.0,0.0,0.0,0.0,0.0,0.0,0.0,0.0,0.0,0.0,0.0,0.0,0.0,0.0,0.0,0.0,0.0,0.0,0.0,0.0,0.0,0.0,0.0,0.0,0.0,0.0,0.0,0.0,0.0,0.0,0.0,0.0,0.0,0.0,0.0,0.0,0.0,0.0,-3.407,-3.7338,-3.9564,-4.1767,-4.3921,-4.5376,-4.5667,-4.4803,-4.3847,-4.2175,0.0,0.0,0.0,0.0,0.0,0.0,0.0,0.0,0.0,0.0,0.0,0.0,0.0,0.0,0.0,0.0,0.0,0.0,0.0,0.0,0.0,0.0,0.0,0.0,0.0,0.0,0.0,0.0,-4.1728,-4.2842,-4.3082,0.0,0.0,0.0,0.0,0.0,0.0,0.0,0.0,0.0,0.0,-5.5953,-5.7328,-5.7297,-5.6729,-5.5757,-5.5928,-5.5723,-5.4521,-5.5375,-5.5793,-5.4582,0.0,0.0,0.0,0.0,0.0,0.0,0.0,0.0,0.0,0.0,0.0,0.0,0.0,0.0,0.0,0.0,0.0,0.0,0.0,0.0,0.0,0.0,0.0,0.0,0.0,0.0,0.0,0.0,0.0,0.0,-2.9747,0.0,0.0,0.0,0.0,0.0,0.0,0.0,0.0,0.0,0.0,0.0,0.0,0.0,0.0,0.0,0.0,0.0,0.0,0.0,0.0,0.0,0.0,-3.4925,-3.8524,-3.9861,-4.198,-4.4832,-4.5628,-4.5769,-4.5304,-4.4235,-4.2585,-4.0255,0.0,0.0,0.0,0.0,0.0,0.0,0.0,0.0,0.0,0.0,0.0,0.0,0.0,0.0,0.0,0.0,0.0,0.0,0.0,0.0,0.0,0.0,0.0,0.0,0.0,0.0,-4.1064,-4.1332,-4.1929,0.0,0.0,0.0,0.0,0.0,0.0,0.0,0.0,0.0,0.0,-5.451,-5.5942,-5.7821,-5.7282,-5.681,-5.6985,-5.6369,-5.5724,-5.5039,-5.5499,-5.5494,0.0,0.0,0.0,0.0,0.0,0.0,0.0,0.0,0.0,0.0,0.0,0.0,0.0,0.0,0.0,0.0,0.0,0.0,0.0,0.0,0.0,0.0,0.0,0.0,0.0,0.0,0.0,-3.2892,-3.2196,0.0,0.0,0.0,0.0,0.0,0.0,0.0,0.0,0.0,0.0,0.0,-3.5947,-3.6324,0.0,0.0,0.0,0.0,0.0,0.0,0.0,0.0,0.0,0.0,0.0,0.0,-3.5782,-3.871,-4.0268,-4.2076,-4.4264,-4.5501,-4.5908,-4.5304,-4.4846,-4.3107,-4.0018,0.0,0.0,0.0,0.0,0.0,0.0,0.0,0.0,0.0,0.0,0.0,0.0,0.0,0.0,0.0,0.0,0.0,0.0,0.0,0.0,0.0,0.0,0.0,0.0,0.0,-4.0852,0.0,0.0,0.0,0.0,0.0,0.0,0.0,0.0,0.0,0.0,0.0,-5.2,-5.3935,-5.6021,-5.7561,-5.8198,-5.7598,-5.6816,0.0,0.0,0.0,0.0,0.0,0.0,0.0,0.0,0.0,0.0,0.0,0.0,0.0,0.0,-6.1055,-5.9694,-5.9386,-5.9403,-5.955,0.0,0.0,0.0,0.0,0.0,0.0,0.0,0.0,0.0,0.0,0.0,0.0,0.0,0.0,-3.5096,0.0,-3.3962,0.0,0.0,0.0,0.0,0.0,0.0,0.0,0.0,-3.6887,-3.7621,-3.838,-3.8563,-3.8486,0.0,-3.799,-3.7069,0.0,0.0,0.0,0.0,0.0,0.0,0.0,0.0,-3.6805,-3.9145,-4.0619,-4.2203,-4.4072,-4.5311,-4.5753,-4.5304,-4.4691,-4.3123,-4.0575,-3.8523,-3.657,0.0,0.0,0.0,0.0,0.0,0.0,0.0,0.0,0.0,0.0,0.0,0.0,0.0,0.0,0.0,0.0,0.0,0.0,0.0,0.0,0.0,0.0,0.0,-4.169,0.0,0.0,0.0,0.0,0.0,0.0,0.0,0.0,0.0,-4.9046,-5.1525,-5.3923,-5.5499,-5.7235,-5.8407,-5.8487,0.0,0.0,0.0,0.0,0.0,0.0,0.0,-5.4689,-5.6188,-5.7639,-5.8883,-5.9819,-6.1651,-6.3159,-6.3637,0.0,0.0,-6.2194,-6.1845,-6.1867,-6.1833,-6.189,-6.1908,-6.1926,-6.2067,-6.2157,0.0,0.0,0.0,0.0,0.0,0.0,0.0,0.0,-3.7797,-3.7759,0.0,-3.6891,0.0,0.0,0.0,0.0,0.0,-3.6207,0.0,0.0,-3.8989,-3.983,-4.0284,-4.0284,-4.0284,-4.0284,-3.983,-3.9722,-3.9686,-3.6693,0.0,0.0,0.0,0.0,0.0,0.0,-3.7862,-3.991,-4.0916,-4.2334,-4.4227,-4.4945,-4.5304,-4.5274,-4.3945,-4.2802,-4.1794,-3.9459,-3.7911,-3.7443,-3.5826,0.0,0.0,0.0,0.0,0.0,0.0,0.0,0.0,0.0,0.0,0.0,0.0,0.0,0.0,0.0,0.0,0.0,0.0,0.0,0.0,-4.1704,0.0,0.0,0.0,0.0,0.0,0.0,0.0,0.0,0.0,0.0,-5.2407,-5.3921,-5.5654,-5.7566,0.0,0.0,0.0,0.0,-5.6908,-5.6549,-5.6014,-5.5788,-5.6133,-5.5947,-5.6334,-5.8094,0.0,0.0,-6.1843,-6.3397,-6.447,-6.4888,-6.577,-6.6024,-6.4206,-6.391,-6.3974,-6.3909,-6.3895,-6.392,-6.3969,-6.3987,-6.4013,-4.3091,0.0,0.0,0.0,0.0,-3.9978,-4.0091,-4.0086,-4.0416,-4.0191,-3.9541,-3.862,0.0,0.0,0.0,0.0,0.0,0.0,-3.8621,-4.0313,-4.0879,-4.1498,-4.2178,-4.2367,-4.2367,-4.2208,-4.2019,-4.1624,-4.0946,-3.9888,-3.8303,-3.6396,0.0,0.0,0.0,0.0,-3.8989,-4.0706,-4.1418,-4.2287,-4.3519,-4.4706,-4.5274,-4.5274,-4.4945,-4.3826,-4.2041,-4.1185,-3.9857,-3.8138,-3.7282,0.0,0.0,0.0,0.0,0.0,0.0,0.0,0.0,0.0,0.0,0.0,0.0,0.0,0.0,0.0,0.0,0.0,0.0,0.0,-4.1834,-4.2952,-4.3648,0.0,0.0,0.0,0.0,0.0,0.0,0.0,0.0,0.0,-5.5917,-5.6149,-5.6609,0.0,0.0,-5.8462,-5.8526,-5.7454,-5.6693,-5.6693,-5.6122,0.0,0.0,-5.6564,-5.6987,-5.8657,-6.0444,-6.2323,-6.3938,-6.4882,-6.5433,-6.5721,-6.6112,-6.6296,-6.5932,-6.5834,-6.5855,-6.5883,-6.5883,-6.5883,-6.5933,-6.5991,-6.597,-4.5246,-4.3969,-4.2256,-4.1572,-4.1523,-4.1505,-4.1534,-4.1617,-4.1822,-4.1607,-4.1096,-4.0321,-3.9638,-3.9091,-3.8296,0.0,0.0,0.0,-4.0286,-4.1745,-4.2326,-4.2951,-4.3489,-4.3928,-4.4077,-4.3937,-4.3834,-4.3493,-4.2917,-4.2438,-4.1266,-3.9663,0.0,0.0,-3.8283,-3.9266,-4.0336,-4.1709,-4.2372,-4.3129,-4.4107,-4.5155,-4.5574,-4.5304,-4.5274,-4.4415,-4.2663,-4.2179,-4.1096,-3.9349,-3.8725,-3.763,0.0,0.0,0.0,0.0,0.0,0.0,0.0,0.0,0.0,0.0,0.0,-3.6652,-3.7044,0.0,0.0,0.0,-4.0789,-4.2297,-4.349,-4.4617,0.0,0.0,0.0,0.0,0.0,0.0,0.0,-5.3506,-5.5073,-5.6611,-5.8219,-5.8281,-5.8128,-5.8144,-5.814,-5.8065,-5.8099,0.0,-5.706,-5.7277,-5.7117,-5.7124,-5.7898,-5.7981,-5.873,-6.0674,-6.2383,-6.3842,-6.49,-6.5485,-6.5832,-6.6046,-6.6203,-6.647,-6.6944,-6.7124,-6.7063,-6.678,-6.672,-6.6767,-6.6791,-6.6791,-6.6783,-4.6642,-4.6109,-4.4102,-4.3207,-4.302,-4.256,-4.2541,-4.2591,-4.2364,-4.2288,-4.2315,-4.1863,-4.1543,-4.1384,-4.1003,0.0,-4.0938,-4.1528,-4.1962,-4.2346,-4.3456,-4.4146,-4.4368,-4.4967,-4.5297,-4.5259,-4.5078,-4.5138,-4.5244,-4.4264,-4.3619,-4.3269,-4.1339,-4.0363,-4.0477,-4.1175,-4.2034,-4.2919,-4.3655,-4.4459,-4.5364,-4.5933,-4.5933,-4.5304,-4.5244,-4.4616,-4.3389,-4.2604,-4.1744,-4.0879,-4.003,-3.894,-3.7478,0.0,0.0,0.0,0.0,0.0,0.0,0.0,0.0,0.0,0.0,0.0,0.0,0.0,0.0,0.0,-4.3074,0.0,-4.5253,-4.6678,0.0,0.0,0.0,-5.0133,-5.0936,-5.1965,-5.3705,-5.6348,0.0,0.0,-5.9708,-5.9962,-5.9877,-5.9268,-5.8268,-5.7689,-5.7655,-5.7695,-5.7735,-5.8137,-5.8492,-5.8978,-5.9574,-5.9946,-6.0916,-6.3168,-6.42,-6.4558,-6.5128,-6.558,-6.5846,-6.6298,-6.632,-6.667,-6.7609,-6.786,-6.7762,-6.7052,-6.6984,-6.7017,-6.7103,-6.7134,-6.711,-4.7213,-4.6609,-4.551,-4.4613,-4.3944,-4.3685,-4.3576,-4.3663,-4.3421,-4.3378,-4.327,-4.2556,-4.1893,-4.1384,-4.1308,-4.1501,-4.2055,-4.2127,-4.2832,-4.3758,-4.4086,-4.4496,-4.5041,-4.5207,-4.5251,-4.5287,-4.5251,-4.5221,-4.5274,-4.5042,-4.4893,-4.4743,-4.4251,-4.3358,-4.2192,-4.2446,-4.3256,-4.4466,-4.481,-4.5311,-4.6052,-4.5723,-4.5484,-4.5304,-4.4825,-4.4167,-4.3359,-4.3101,-4.2503,-4.1292,-4.0931,-3.9861,-3.8085,-3.7735,0.0,0.0,0.0,0.0,0.0,0.0,0.0,0.0,0.0,-3.8948,-3.9603,0.0,-4.1515,0.0,-4.4872,-4.6665,-4.754,-4.8739,0.0,0.0,-5.1339,-5.2353,-5.4099,-5.4979,-5.6171,-5.8295,-5.8853,-5.9607,-6.0815,-6.0333,-6.0054,-6.0425,-5.9271,-5.8504,-5.8653,-5.8146,-5.7954,-5.8453,-5.8875,-5.9351,-6.0008,-6.0974,-6.2129,-6.3437,-6.3947,-6.4439,-6.5574,-6.6069,-6.6583,-6.7333,-6.7731,-6.7981,-6.8249,-6.8491,-6.8601,-6.8435,-6.8488,-6.8642,-6.8603,-6.8621,-6.86,-4.7542,-4.6843,-4.6009,-4.5288,-4.4755,-4.4109,-4.3874,-4.3897,-4.3657,-4.3488,-4.3488,-4.3019,-4.2551,-4.2252,-4.2252,-4.2432,-4.2821,-4.309,-4.3629,-4.4347,-4.4915,-4.5357,-4.5755,-4.6047,-4.6147,-4.6181,-4.6147,-4.6202,-4.6202,-4.6202,-4.6052,-4.5753,-4.5753,-4.5297,-4.4328,-4.4116,-4.4601,-4.556,-4.5699,-4.5933,-4.6292,-4.5633,-4.5155,-4.4855,-4.4496,-4.3988,-4.3359,-4.3329,-4.288,-4.1893,-4.1727,-4.1099,-3.9682,-3.9252,-3.9,0.0,0.0,0.0,0.0,0.0,0.0,0.0,0.0,0.0,0.0,0.0,-4.4,-4.5587,-4.7258,-4.8707,-4.9909,-5.0995,-5.1967,-5.2746,-5.3661,-5.4665,-5.5922,-5.7086,-5.8308,-5.9868,-6.0236,-6.0772,-6.167,-6.1322,-6.1109,-6.1548,-6.0603,-5.976,-5.9573,-5.9133,-5.9084,-5.9624,-6.0117,-6.0381,-6.0388,-6.1933,-6.3507,-6.4376,-6.4815,-6.5361,-6.6217,-6.6632,-6.7136,-6.7713,-6.8071,-6.8383,-6.886,-6.917,-6.9417,-6.9827,-7.0076,-6.9896,-6.9267,-6.9097,-6.9123,-4.7742,-4.7054,-4.6221,-4.5695,-4.5372,-4.4318,-4.3867,-4.3738,-4.3419,-4.3329,-4.3329,-4.3329,-4.3329,-4.3329,-4.3329,-4.3389,-4.3509,-4.4047,-4.4407,-4.4646,-4.5783,-4.6316,-4.6448,-4.7006,-4.7309,-4.7309,-4.7309,-4.7309,-4.7309,-4.7309,-4.701,-4.6471,-4.6441,-4.6411,-4.6376,-4.5897,-4.5794,-4.6426,-4.639,-4.6411,-4.6322,-4.5633,-4.4975,-4.4347,-4.4227,-4.3928,-4.3359,-4.3329,-4.303,-4.2402,-4.2419,-4.2119,-4.1414,-4.0905,-4.0905,0.0,-4.1055,0.0,0.0,0.0,0.0,0.0,0.0,0.0,0.0,-4.5092,-4.6762,-4.8448,-4.9567,-5.0787,-5.2087,-5.3123,-5.3966,-5.4317,-5.5665,-5.6756,-5.7188,-5.863,-6.0047,-6.1021,-6.1278,-6.1704,-6.2245,-6.2415,-6.2381,-6.2313,-6.1806,-6.124,-6.0664,-6.0291,-6.0353,-6.1218,-6.1745,-6.1656,-6.1376,-6.2954,-6.4767,-6.5704,-6.6054,-6.65,-6.6917,-6.7315,-6.7616,-6.7939,-6.8285,-6.8693,-6.9547,-6.9862,-7.0218,-7.0884,-7.1115,-7.0815,-6.9783,-6.9484,-6.9312,-4.845,-4.7722,-4.7084,-4.6501,-4.6022,-4.5327,-4.4676,-4.4176,-4.3519,-4.3329,-4.3329,-4.3329,-4.3329,-4.3329,-4.3329,-4.3629,-4.4137,-4.4257,-4.4915,-4.5963,-4.6202,-4.6591,-4.7126,-4.7219,-4.7309,-4.7309,-4.7309,-4.7309,-4.7309,-4.7309,-4.7249,-4.713,-4.713,-4.713,-4.71,0.0,0.0,0.0,-4.713,-4.686,-4.6322,-4.5633,-4.4975,-4.4347,-4.3808,0.0,-4.3359,-4.3329,-4.303,-4.2402,-4.2425,0.0,0.0,0.0,0.0,0.0,0.0,0.0,0.0,0.0,0.0,0.0,-4.6762,-4.6875,-4.6051,-4.7732,-4.9171,-4.9915,-5.0951,-5.2218,-5.3568,-5.4319,-5.5267,-5.6652,-5.7252,-5.8117,-5.9405,-6.0077,-6.0751,-6.1694,-6.1987,-6.2245,-6.2347,-6.2415,-6.2415,-6.2381,-6.2436,-6.2455,-6.2404,-6.1347,-6.0852,-6.1218,-6.2125,-6.2541,-6.2556,-6.3617,-6.5277,-6.6853,-6.6593,-6.6482,-6.7379,-6.7868,-6.845,-6.9246,-6.976,-6.9954,-7.0209,-7.0489,-7.0721,-7.0914,-7.1081,-7.1085,-7.095,-7.0951,-7.1009,-4.8666,0.0,-4.76,-4.7226,0.0,-4.6082,-4.5633,-4.5221,-4.4257,-4.3629,-4.3359,-4.3658,-4.3808,-4.3838,-4.4167,-4.4496,-4.4796,-4.5155,-4.5663,-4.6322,-4.6651,-4.698,-4.7309,-4.7309,-4.7309,-4.7309,-4.7309,-4.7309,-4.7309,-4.7309,-4.7309,-4.7309,-4.7309,-4.7309,-4.7309,-4.7309,-4.7309,-4.7309,-4.698,-4.6651,-4.6322,-4.5663,-4.4975,-4.4317,0.0,0.0,0.0,0.0,0.0,0.0,0.0,0.0,0.0,0.0,0.0,-4.4078,-4.4379,-4.4911,-4.5574,-4.61,-4.6802,-4.7937,-4.9212,-4.9641,-4.8683,-4.9566,-5.0499,-5.1318,-5.1999,-5.2974,-5.442,-5.4972,-5.5796,-5.7357,-5.7899,-5.88,-6.0084,-6.0779,-6.1354,-6.1896,-6.2189,-6.2415,-6.2415,-6.2415,-6.2415,-6.2381,-6.2537,-6.277,-6.2931,-6.2501,-6.2354,-6.2997,-6.3615,-6.4166,-6.4384,-6.5104,-6.6058,-6.743,-6.7391,-6.7417,-6.8091,-6.8522,-6.8967,-6.9662,-7.0039,-7.0251,-7.0419,-7.0639,-7.0815,-7.0843,-7.0952,-7.1081,-7.1224,-7.1291,-7.1355,-4.8583,-4.7964,-4.7964,-4.7709,-4.7249,-4.6741,-4.6441,-4.6232,0.0,0.0,0.0,-4.4257,-4.4466,-4.4526,-4.5065,-4.5364,-4.5514,-4.6052,-4.6381,-4.6531,-4.704,-4.7309,-4.7309,-4.7309,-4.7309,-4.7309,-4.7309,-4.7309,-4.7309,-4.7309,-4.7309,-4.7309,-4.7309,-4.7309,-4.7309,-4.7309,-4.7309,-4.7279,-4.677,-4.6441,-4.6322,-4.5783,-4.5155,-4.4496,-4.4466,-4.4227,-4.3718,-4.4176,-4.4474,-4.4526,-4.5019,-4.543,-4.5387,-4.5755,-4.5928,-4.5928,-4.6273,-4.675,-4.7297,-4.8019,-4.8814,-4.9657,-5.1092,-5.1717,-5.0944,-5.0974,-5.1543,-5.2535,-5.2824,-5.3555,-5.4883,-5.5375,-5.6141,-5.754,-5.8345,-5.9201,-6.0336,-6.1146,-6.1756,-6.1917,-6.2189,-6.2415,-6.2415,-6.2415,-6.2381,-6.2493,-6.2615,-6.2847,-6.3152,-6.3531,-6.3863,-6.4634,-6.5035,-6.5561,-6.5894,-6.6378,-6.7134,-6.7579,-6.7989,-6.8321,-6.866,-6.8983,-6.9251,-6.962,-6.9854,-7.0076,-7.0319,-7.0547,-7.0699,-7.0758,-7.0898,-7.1005,-7.1081,-7.1154,-7.1224,-4.8218,-4.7964,-4.7709,-4.7568,-4.7309,-4.7219,-4.686,-4.6262,-4.5484,-4.5095,-4.5035,-4.5125,-4.5155,-4.5155,-4.5244,-4.5603,-4.6172,-4.6292,-4.6621,0.0,-4.7249,-4.7309,-4.7309,-4.7309,-4.7309,-4.7309,-4.7309,-4.7309,-4.7309,-4.7309,-4.7309,-4.7309,-4.7309,-4.7309,-4.7309,-4.7309,-4.7309,-4.7309,-4.7219,-4.689,-4.6352,-4.6232,-4.5873,-4.5214,-4.5155,-4.5125,-4.5035,-4.5057,-4.5199,-4.5155,-4.5477,-4.565,-4.5695,-4.6373,-4.6841,-4.6902,-4.7904,-4.8602,-4.8693,-4.9474,-5.0432,-5.1537,-5.2604,-5.2735,-5.1739,-5.229,-5.2896,-5.3253,-5.3656,-5.4147,-5.4845,-5.5744,-5.6774,-5.7986,-5.8955,-5.9845,-6.0821,-6.1399,-6.1709,-6.179,-6.2144,-6.2415,-6.2415,-6.2415,-6.2459,-6.2615,-6.2847,-6.3227,-6.382,-6.4145,-6.4498,-6.4911,-6.5415,-6.5832,-6.6136,-6.6655,-6.717,-6.7616,-6.7973,-6.8272,-6.865,-6.8892,-6.9203,-6.9577,-6.9815,-7.0039,-7.022,-7.049,-7.0678,-7.0737,-7.0815,-7.0952,-7.1081,-7.113,-7.1178,-4.8218,-4.7964,-4.7709,-4.7482,-4.7309,-4.7309,-4.713,-4.683,-4.6531,-4.5963,-4.5364,-4.5693,-4.5843,-4.5873,-4.6232,-4.6561,-4.686,-4.686,-4.704,-4.7279,-4.7309,-4.7309,-4.7309,-4.7309,-4.7309,-4.7309,-4.7309,-4.7309,-4.7309,-4.7309,-4.7309,-4.7309,-4.7309,-4.7309,-4.7309,-4.7309,-4.7309,-4.7309,-4.7309,-4.716,-4.689,-4.686,-4.6531,-4.5873,-4.5843,-4.5663,-4.5304,-4.571,-4.5973,-4.598,-4.6569,-4.6947,-4.7001,-4.7494,-4.7996,-4.8477,-4.9228,-5.0044,-5.0814,-5.1524,-5.2193,-5.2704,-5.3097,-5.3159,-5.2709,-5.3046,-5.3321,-5.3584,-5.3931,-5.4274,-5.4761,-5.5757,-5.6885,-5.8183,-5.8954,-5.9927,-6.0953,-6.1499,-6.1709,-6.1709,-6.211,-6.2381,-6.2415,-6.2459,-6.2537,-6.2693,-6.3,-6.3526,-6.4143,-6.4533,-6.4843,-6.5114,-6.5611,-6.6021,-6.6258,-6.6772,-6.7283,-6.7835,-6.801,-6.8259,-6.8613,-6.8846,-6.9116,-6.9495,-6.9777,-6.9966,-7.0149,-7.049,-7.0678,-7.0737,-7.0843,-7.0979,-7.1081,-7.1178,-7.1269,-4.8255,-4.7964,-4.7624,-4.7482,-4.7309,-4.7309,-4.7309,-4.7309,-4.7309,-4.6711,-4.5903,-4.6322,-4.6531,-4.6591,-4.707,-4.7309,-4.7309,-4.7309,-4.7309,-4.7309,-4.7309,-4.7309,-4.7309,-4.7309,-4.7309,-4.7309,-4.7309,-4.7309,-4.7309,-4.7309,-4.7309,-4.7309,-4.7309,-4.7309,-4.7309,-4.7309,-4.7309,-4.7309,-4.7309,-4.7309,-4.7309,-4.7309,-4.707,-4.6591,-4.6531,-4.6292,-4.5897,-4.6455,-4.681,-4.6954,-4.7813,-4.8347,-4.8377,-4.8921,-4.9511,-5.0036,-5.0527,-5.1403,-5.2676,-5.3278,-5.3646,-5.364,-5.3664,-5.375,-5.3726,-5.3726,-5.3758,-5.3844,-5.4103,-5.4444,-5.4909,-5.595,-5.6996,-5.8165,-5.9151,-6.0008,-6.0986,-6.1499,-6.1709,-6.179,-6.211,-6.2415,-6.2415,-6.2571,-6.277,-6.2923,-6.3377,-6.3892,-6.4251,-6.4741,-6.5149,-6.5415,-6.5768,-6.6074,-6.6271,-6.6758,-6.7395,-6.7981,-6.8099,-6.8259,-6.8565,-6.8838,-6.9109,-6.9495,-6.9738,-6.9929,-7.0185,-7.049,-7.0678,-7.0737,-7.0843,-7.103,-7.1154,-7.1523,-7.159,-4.8596,-4.7995,-4.7568,-4.7309,-4.7309,-4.7309,-4.7309,-4.7309,-4.7309,-4.7279,-4.707,-4.7189,-4.7189,-4.7219,-4.7279,-4.7309,-4.7309,-4.7309,-4.7309,-4.7309,-4.7309,-4.7309,-4.7309,-4.7309,-4.7309,-4.7309,-4.7309,-4.7309,-4.7309,-4.7309,-4.7309,-4.7309,-4.7309,-4.7309,-4.7309,-4.7309,-4.7309,-4.7309,-4.7309,-4.7309,-4.7309,-4.7309,-4.7279,-4.7219,-4.7219,-4.7276,-4.7267,-4.7417,-4.7619,-4.7934,-4.8967,-4.9505,-4.9651,-5.0568,-5.1109,-5.1287,-5.1987,-5.2932,-5.3828,-5.4125,-5.4327,-5.4327,-5.4528,-5.4613,-5.4645,-5.4645,-5.4444,-5.4274,-5.4444,-5.4813,-5.5095,-5.6473,-5.7586,-5.8281,-5.9595,-6.082,-6.1268,-6.1547,-6.179,-6.1997,-6.2189,-6.2415,-6.2459,-6.2615,-6.2923,-6.3377,-6.382,-6.4251,-6.4603,-6.5014,-6.5415,-6.574,-6.6057,-6.6222,-6.6378,-6.6837,-6.7451,-6.7998,-6.8099,-6.8309,-6.8613,-6.8892,-6.916,-6.9536,-6.9777,-7.0003,-7.022,-7.0457,-7.0708,-7.0959,-7.1091,-7.1197,-7.1363,-7.2035,-7.2347,-4.8784,-4.8511,-4.7632,-4.7309,-4.7309,-4.7309,-4.7309,-4.7309,-4.7309,-4.7309,-4.7309,-4.7309,-4.7309,-4.7309,-4.7309,-4.7309,-4.7309,-4.7309,-4.7309,-4.7309,-4.7309,-4.7309,-4.7309,-4.7309,-4.7309,-4.7309,-4.7309,-4.7309,-4.7309,-4.7309,-4.7309,-4.7309,-4.7309,-4.7309,-4.7309,-4.7309,-4.7309,-4.7309,-4.7309,-4.7309,-4.7309,-4.7309,-4.7309,-4.7309,-4.7396,-4.7568,-4.7684,-4.8243,-4.8712,-4.9028,-4.9982,-5.0522,-5.0692,-5.1362,-5.1957,-5.2366,-5.3397,-5.4073,-5.4528,-5.4697,-5.4832,-5.4832,-5.4998,-5.5196,-5.5196,-5.5246,-5.5246,-5.5081,-5.5081,-5.5196,-5.5375,-5.6871,-5.805,-5.861,-5.9977,-6.1086,-6.1383,-6.1709,-6.1917,-6.1997,-6.2268,-6.2459,-6.2615,-6.3,-6.3377,-6.3747,-6.418,-6.4533,-6.4706,-6.5216,-6.5675,-6.5895,-6.6269,-6.6427,-6.641,-6.6992,-6.7579,-6.7973,-6.8245,-6.8468,-6.8744,-6.8983,-6.9209,-6.9579,-6.9854,-7.0076,-7.0286,-7.0522,-7.0814,-7.1353,-7.2341,-7.2731,-7.2883,-7.3278,-7.3371,-4.9443,-4.8961,-4.7809,-4.7396,-4.7309,-4.7309,-4.7309,-4.7309,-4.7309,-4.7309,-4.7396,-4.7396,-4.7482,-4.7482,-4.7396,-4.7366,-4.7396,-4.7482,-4.7482,-4.7482,-4.7482,-4.7452,-4.7538,-4.7482,-4.7482,-4.7482,-4.7482,-4.7482,-4.7482,-4.7482,-4.7452,-4.7482,-4.7396,-4.7396,-4.7396,-4.7309,-4.7309,-4.7309,-4.7309,-4.7309,-4.7339,-4.7575,-4.7575,-4.7426,-4.7748,-4.7895,-4.8097,-4.9133,-4.9757,-5.0044,-5.1002,-5.163,-5.1915,-5.246,-5.3057,-5.37,-5.4576,-5.5113,-5.5146,-5.5278,-5.536,-5.536,-5.5491,-5.5572,-5.5604,-5.5733,-5.5814,-5.5814,-5.5733,-5.5733,-5.5815,-5.7201,-5.8347,-5.8756,-6.0225,-6.1219,-6.1547,-6.1837,-6.2076,-6.2156,-6.2381,-6.2615,-6.2847,-6.3302,-6.3673,-6.4037,-6.4428,-6.4843,-6.4979,-6.548,-6.5867,-6.6146,-6.6608,-6.6736,-6.6619,-6.714,-6.7757,-6.8181,-6.8433,-6.8565,-6.8884,-6.9116,-6.9374,-6.9699,-6.9929,-7.0185,-7.0429,-7.0662,-7.1507,-7.2469,-7.3341,-7.3928,-7.38,-7.4225,-7.4506,-5.0472,-4.9164,-4.8067,-4.7482,-4.7309,-4.7309,-4.7309,-4.7396,-4.7309,-4.7396,-4.7538,-4.7624,-4.7709,-4.788,-4.7709,-4.7624,-4.7624,-4.7794,-4.794,-4.7915,-4.791,-4.7934,-4.7958,-4.7934,-4.7964,-4.788,-4.788,-4.788,-4.7964,-4.7964,-4.7964,-4.7964,-4.7709,-4.7624,-4.7538,-4.7482,-4.7309,-4.7456,-4.7456,-4.7369,-4.7429,-4.82,-4.8287,-4.7865,-4.8257,-4.8819,-4.9225,-5.015,-5.0777,-5.0948,-5.2197,-5.3028,-5.3144,-5.4051,-5.4787,-5.5263,-5.5539,-5.5733,-5.5927,-5.6006,-5.6006,-5.6086,-5.6086,-5.6086,-5.6165,-5.6132,-5.6132,-5.6086,-5.6447,-5.6447,-5.6264,-5.7606,-5.8705,-5.8999,-6.0436,-6.1447,-6.1917,-6.1997,-6.2189,-6.2537,-6.2693,-6.2847,-6.3227,-6.3452,-6.3858,-6.4287,-6.4568,-6.4911,-6.5545,-6.574,-6.6119,-6.6548,-6.6903,-6.704,-6.7174,-6.7506,-6.801,-6.8481,-6.8617,-6.866,-6.9027,-6.9332,-6.9579,-6.9891,-7.0228,-7.0514,-7.0642,-7.1351,-7.2519,-7.3393,-7.3938,-7.4341,-7.4732,-7.5038,-7.5316,-5.0415,-4.9108,-4.8693,-4.8188,-4.7739,-4.7709,-4.7709,-4.7739,-4.7739,-4.7794,-4.788,-4.788,-4.788,-4.7964,-4.8218,-4.8133,-4.788,-4.7964,-4.7964,-4.7964,-4.7964,-4.8019,-4.7958,-4.8019,-4.7964,-4.7964,-4.7964,-4.7964,-4.7964,-4.7964,-4.7964,-4.7964,-4.788,-4.788,-4.788,-4.7794,-4.792,-4.8313,-4.8343,-4.8555,-4.8917,-4.9307,-4.9452,-4.9357,-4.9539,-4.9835,-5.0211,-5.0999,-5.1802,-5.2345,-5.326,-5.3893,-5.4429,-5.5035,-5.5572,-5.5829,-5.5861,-5.6006,-5.6086,-5.6244,-5.6402,-5.6447,-5.6603,-5.668,-5.6834,-5.6834,-5.6834,-5.6911,-5.6987,-5.6987,-5.7177,-5.8241,-5.9218,-5.9464,-6.0692,-6.1837,-6.1997,-6.2268,-6.2537,-6.2693,-6.3,-6.3377,-6.3526,-6.3858,-6.4217,-6.4568,-6.4979,-6.5379,-6.574,-6.6119,-6.6548,-6.6786,-6.719,-6.7433,-6.7488,-6.7757,-6.8144,-6.8593,-6.8884,-6.8929,-6.9166,-6.9539,-6.9815,-7.0232,-7.0598,-7.1287,-7.1597,-7.2773,-7.3881,-7.4402,-7.4939,-7.5295,-7.5815,-7.5938,-7.6222,-5.0778,-4.9778,-4.9291,-4.8779,-4.8384,-4.8055,-4.7964,-4.7964,-4.7964,-4.8049,-4.8133,-4.8133,-4.8218,-4.8385,-4.8687,-4.8687,-4.8469,-4.8469,-4.8438,-4.8407,-4.8438,-4.8438,-4.8407,-4.8438,-4.8469,-4.8438,-4.8469,-4.8438,-4.8385,-4.8355,-4.8385,-4.8301,-4.8218,-4.8255,-4.8408,-4.8384,-4.8602,-4.9148,-4.927,-4.9513,-5.0026,-5.0357,-5.0625,-5.0831,-5.1072,-5.1159,-5.1178,-5.2144,-5.2864,-5.3471,-5.4105,-5.4749,-5.5328,-5.5733,-5.602,-5.6257,-5.6336,-5.6402,-5.6447,-5.6636,-5.6757,-5.6911,-5.6987,-5.7139,-5.7289,-5.7289,-5.7289,-5.7289,-5.7364,-5.7439,-5.7708,-5.8858,-5.9732,-5.9856,-6.1122,-6.2156,-6.2268,-6.2615,-6.2847,-6.3076,-6.3377,-6.3673,-6.3892,-6.4217,-6.4637,-6.4911,-6.5313,-6.574,-6.6119,-6.6488,-6.6903,-6.7076,-6.7414,-6.7741,-6.7915,-6.8171,-6.8445,-6.8846,-6.9042,-6.9153,-6.9416,-6.9737,-7.0156,-7.0566,-7.1226,-7.2057,-7.3053,-7.4243,-7.4966,-7.5481,-7.5857,-7.6164,-7.6537,-7.678,-7.6832,-5.1594,-5.1111,-4.9861,-4.931,-4.8956,-4.8408,-4.8049,-4.8133,-4.8049,-4.8218,-4.8385,-4.8521,-4.8718,-4.8996,-4.921,-4.9259,-4.9291,-4.9259,-4.9259,-4.9178,-4.9291,-4.9291,-4.9259,-4.9178,-4.9178,-4.9259,-4.9259,-4.9259,-4.921,-4.921,-4.9128,-4.9027,-4.881,-4.8982,-4.931,-4.9255,-4.9474,-4.9992,-5.0144,-5.0174,-5.0147,-5.1168,-5.1739,-5.1801,-5.2766,-5.2854,-5.212,-5.3318,-5.4008,-5.4179,-5.4883,-5.5572,-5.6006,-5.6323,-5.6447,-5.6647,-5.6911,-5.7063,-5.7214,-5.7214,-5.7214,-5.7289,-5.7289,-5.7289,-5.7364,-5.7364,-5.7364,-5.7439,-5.7514,-5.7662,-5.7938,-5.9309,-6.019,-6.0021,-6.139,-6.2503,-6.2693,-6.2847,-6.3117,-6.3526,-6.382,-6.4037,-6.4358,-6.4637,-6.4979,-6.5379,-6.5704,-6.6021,-6.6548,-6.6786,-6.7076,-6.747,-6.7757,-6.7967,-6.8321,-6.8575,-6.8866,-6.9079,-6.9191,-6.9336,-6.9695,-7.0081,-7.0718,-7.1159,-7.2211,-7.3091,-7.4308,-7.5337,-7.564,-7.6109,-7.6552,-7.6754,-7.6883,-7.6987,-7.7004,-5.2554,-5.194,-5.1041,-5.039,-4.9811,-4.9161,-4.8852,-4.8883,-4.8852,-4.8965,-4.9047,-4.9015,-4.921,-4.9452,-4.9613,-4.9741,-4.99,-5.0089,-4.9931,-4.9582,-4.9693,-4.9661,-4.9773,-4.9773,-4.9661,-4.9693,-4.9693,-4.9613,-4.9533,-4.9533,-4.9559,-4.9832,-4.9812,-5.0102,-5.0669,-5.0731,-5.0955,-5.1543,-5.1605,-5.1822,-5.2255,-5.2678,-5.2978,-5.3097,-5.3632,-5.3773,-5.367,-5.3976,-5.4412,-5.4915,-5.5246,-5.5733,-5.6369,-5.668,-5.6877,-5.7039,-5.7181,-5.7214,-5.7289,-5.7289,-5.7364,-5.7439,-5.7514,-5.7588,-5.7662,-5.7735,-5.7735,-5.7881,-5.7954,-5.8027,-5.8409,-5.9604,-6.0421,-6.0333,-6.1775,-6.2847,-6.3,-6.3227,-6.36,-6.3965,-6.4251,-6.4498,-6.4637,-6.4911,-6.5379,-6.5704,-6.6021,-6.6452,-6.6786,-6.719,-6.7433,-6.772,-6.8018,-6.8321,-6.8575,-6.9012,-6.9378,-6.9622,-6.9717,-6.9846,-7.0195,-7.0758,-7.135,-7.2148,-7.3178,-7.4166,-7.5407,-7.6066,-7.6284,-7.651,-7.6731,-7.6883,-7.6987,-7.7033,-7.7043,-5.3128,-5.2691,-5.2005,-5.1318,-5.0632,-4.9946,-4.9509,-4.9291,-4.9259,-4.934,-4.9372,-4.9515,-4.9644,-4.9821,-5.0058,-5.0292,-5.048,-5.0711,-5.0666,-5.0324,-5.0168,-5.0168,-5.0246,-5.0246,-5.0246,-5.0246,-5.0168,-5.0216,-5.0359,-5.0342,-5.0578,-5.1014,-5.1108,-5.1288,-5.1831,-5.184,-5.2184,-5.2722,-5.2785,-5.2996,-5.3396,-5.3608,-5.3726,-5.3985,-5.4274,-5.4528,-5.4749,-5.4665,-5.4832,-5.5328,-5.5653,-5.6211,-5.6757,-5.6987,-5.7181,-5.7372,-5.7406,-5.7439,-5.7514,-5.7514,-5.7588,-5.7662,-5.7735,-5.7808,-5.7954,-5.8027,-5.8133,-5.8243,-5.8314,-5.8348,-5.8695,-6.0001,-6.0823,-6.0852,-6.2227,-6.3199,-6.3417,-6.3712,-6.4002,-6.4358,-6.4637,-6.4911,-6.518,-6.5379,-6.5832,-6.6119,-6.6391,-6.6809,-6.7076,-6.7524,-6.7757,-6.8033,-6.8334,-6.8623,-6.8937,-6.9391,-6.9951,-7.0186,-7.0304,-7.0536,-7.0834,-7.1693,-7.239,-7.3457,-7.4462,-7.5136,-7.6221,-7.64,-7.6591,-7.677,-7.6897,-7.696,-7.7043,-7.7073,-7.7106,-5.3465,-5.3371,-5.2684,-5.2019,-5.1362,-5.061,-4.9953,-4.9515,-4.9421,-4.9533,-4.9724,-4.993,-5.0058,-5.0324,-5.0666,-5.0993,-5.1069,-5.1415,-5.1599,-5.1491,-5.123,-5.1045,-5.0928,-5.1069,-5.1134,-5.1101,-5.1013,-5.1224,-5.1738,-5.1692,-5.1949,-5.2426,-5.244,-5.2594,-5.2828,-5.2869,-5.313,-5.3434,-5.3465,-5.3632,-5.3828,-5.4008,-5.4274,-5.4497,-5.4697,-5.5031,-5.5328,-5.5409,-5.5491,-5.5572,-5.629,-5.6757,-5.6987,-5.7214,-5.7439,-5.7588,-5.7588,-5.7662,-5.7808,-5.7881,-5.7881,-5.7881,-5.7954,-5.8061,-5.8205,-5.8205,-5.8348,-5.849,-5.8561,-5.8561,-5.8871,-6.0251,-6.1254,-6.1705,-6.2879,-6.375,-6.418,-6.4358,-6.4498,-6.4775,-6.5011,-6.5344,-6.5704,-6.5958,-6.6269,-6.6668,-6.6845,-6.719,-6.7488,-6.7826,-6.8084,-6.8383,-6.8717,-6.9215,-6.959,-7.0026,-7.0648,-7.1333,-7.152,-7.1741,-7.1875,-7.2684,-7.3599,-7.468,-7.5407,-7.6105,-7.6536,-7.6648,-7.677,-7.6858,-7.696,-7.7043,-7.7073,-7.7098,-7.7114,-5.4444,-5.4317,-5.314,-5.2504,-5.2186,-5.1073,-5.0469,-5.0278,-5.0278,-5.031,-5.0388,-5.0543,-5.0794,-5.1005,-5.1685,-5.214,-5.2454,-5.2921,-5.3182,-5.3258,-5.3106,-5.2378,-5.1867,-5.2128,-5.2323,-5.2398,-5.2639,-5.3062,-5.3095,-5.3071,-5.3291,-5.368,-5.3632,-5.3853,-5.4158,-5.4189,-5.4317,-5.4369,-5.4422,-5.4444,-5.4465,-5.4581,-5.4781,-5.5081,-5.5196,-5.5409,-5.5927,-5.6211,-5.6369,-5.6369,-5.668,-5.7063,-5.7364,-5.7514,-5.7588,-5.7735,-5.7808,-5.7808,-5.7881,-5.8027,-5.8099,-5.8133,-5.8243,-5.8348,-5.8419,-5.8419,-5.849,-5.8701,-5.884,-5.8978,-5.9357,-6.0705,-6.2127,-6.359,-6.4043,-6.4323,-6.4498,-6.4706,-6.4979,-6.5247,-6.551,-6.5768,-6.6048,-6.6391,-6.6691,-6.704,-6.7266,-6.7542,-6.7826,-6.8185,-6.8431,-6.8717,-6.9109,-6.975,-7.03,-7.0762,-7.1445,-7.2459,-7.2941,-7.3308,-7.3461,-7.3764,-7.4796,-7.5809,-7.5968,-7.6536,-7.6665,-7.6747,-7.6858,-7.6921,-7.7014,-7.709,-7.7098,-7.7075,-7.7128,-5.4448,-5.4319,-5.3391,-5.2637,-5.2316,-5.1513,-5.1,-5.0839,-5.1032,-5.1238,-5.1424,-5.1868,-5.215,-5.2411,-5.2878,-5.3269,-5.3593,-5.3997,-5.4237,-5.4419,-5.4353,-5.3775,-5.3132,-5.332,-5.3461,-5.3503,-5.3738,-5.4,-5.4164,-5.4174,-5.443,-5.4857,-5.4907,-5.5037,-5.5095,-5.5146,-5.5113,-5.5095,-5.5063,-5.5081,-5.5198,-5.5213,-5.5328,-5.5653,-5.5685,-5.5894,-5.629,-5.6757,-5.6911,-5.6911,-5.7063,-5.7364,-5.7588,-5.7662,-5.7735,-5.7881,-5.7954,-5.8027,-5.8027,-5.8205,-5.8348,-5.8348,-5.8419,-5.8561,-5.8701,-5.8667,-5.884,-5.9115,-5.9183,-5.9457,-6.018,-6.1634,-6.3269,-6.4662,-6.5011,-6.4979,-6.5046,-6.518,-6.5445,-6.5768,-6.6021,-6.6269,-6.6536,-6.6867,-6.7097,-6.7378,-6.765,-6.7878,-6.8185,-6.8517,-6.8838,-6.9191,-6.9712,-7.0453,-7.1295,-7.1937,-7.257,-7.3532,-7.4243,-7.4678,-7.4791,-7.4925,-7.5538,-7.6278,-7.6536,-7.6721,-7.6786,-7.6858,-7.6921,-7.7014,-7.709,-7.7114,-7.7082,-7.7121,-7.7173,-5.3922,-5.3971,-5.3355,-5.2708,-5.2068,-5.1907,-5.1533,-5.1198,-5.1694,-5.2183,-5.2574,-5.3302,-5.3542,-5.4,-5.4043,-5.4326,-5.4667,-5.4933,-5.5155,-5.5369,-5.5369,-5.5088,-5.4684,-5.4518,-5.4518,-5.4485,-5.4251,-5.4754,-5.5193,-5.527,-5.5509,-5.5903,-5.6067,-5.5927,-5.5702,-5.5685,-5.562,-5.5539,-5.5491,-5.5588,-5.5618,-5.5716,-5.5814,-5.6053,-5.6211,-5.6447,-5.6757,-5.7063,-5.7214,-5.7063,-5.7439,-5.7588,-5.7662,-5.7808,-5.7881,-5.7954,-5.8133,-5.8205,-5.8277,-5.8419,-5.8561,-5.8561,-5.8631,-5.8701,-5.9012,-5.9081,-5.9217,-5.952,-5.9687,-6.0202,-6.1305,-6.2833,-6.4084,-6.5161,-6.5704,-6.5768,-6.574,-6.5804,-6.5958,-6.6294,-6.6632,-6.6867,-6.704,-6.7266,-6.7542,-6.781,-6.807,-6.8235,-6.8528,-6.8809,-6.931,-6.9792,-7.0455,-7.1257,-7.2164,-7.3101,-7.3833,-7.4666,-7.5374,-7.5837,-7.5847,-7.604,-7.6281,-7.6614,-7.6721,-7.6801,-7.6871,-7.6933,-7.7014,-7.7043,-7.7067,-7.7121,-7.7134,-7.7173,-7.7218,-5.3766,-5.3857,-5.3182,-5.2813,-5.253,-5.2095,-5.1736,-5.1662,-5.2408,-5.2768,-5.3039,-5.3727,-5.4283,-5.4485,-5.5123,-5.5613,-5.5903,-5.627,-5.6746,-5.6821,-5.6821,-5.6821,-5.6504,-5.5996,-5.5762,-5.5829,-5.6329,-5.6596,-5.6663,-5.6545,-5.6514,-5.6492,-5.648,-5.6244,-5.6039,-5.6086,-5.6001,-5.5982,-5.5955,-5.5974,-5.6067,-5.61,-5.6211,-5.6525,-5.6834,-5.7063,-5.7214,-5.7439,-5.7514,-5.7514,-5.7588,-5.7735,-5.7808,-5.7881,-5.7954,-5.8133,-5.8205,-5.8277,-5.8419,-5.8631,-5.8771,-5.8875,-5.9047,-5.9251,-5.9453,-5.9551,-5.9683,-5.9814,-6.0043,-6.0861,-6.2415,-6.3101,-6.4349,-6.5502,-6.6146,-6.6391,-6.6488,-6.6391,-6.6512,-6.675,-6.6983,-6.721,-6.7524,-6.765,-6.7915,-6.8222,-6.8468,-6.8613,-6.8855,-6.9203,-6.9721,-7.0306,-7.1105,-7.1969,-7.3127,-7.405,-7.4793,-7.5374,-7.6026,-7.6493,-7.6555,-7.6594,-7.6669,-7.6777,-7.6855,-7.6885,-7.6933,-7.6975,-7.709,-7.7067,-7.7082,-7.7128,-7.7179,-7.7179,-7.7208,-5.34,-5.341,-5.2869,-5.2532,-5.2417,-5.2097,-5.1973,-5.2163,-5.3206,-5.3676,-5.408,-5.5038,-5.5729,-5.5854,-5.6296,-5.6646,-5.6936,-5.7312,-5.7588,-5.7554,-5.7554,-5.7554,-5.7554,-5.7251,-5.6942,-5.6828,-5.7055,-5.7297,-5.7297,-5.7256,-5.703,-5.6987,-5.6834,-5.6779,-5.669,-5.6591,-5.6691,-5.6668,-5.6691,-5.668,-5.668,-5.668,-5.668,-5.6987,-5.7289,-5.7439,-5.7439,-5.7662,-5.7808,-5.7881,-5.7881,-5.7954,-5.8027,-5.8027,-5.8133,-5.8348,-5.8419,-5.8561,-5.8771,-5.8909,-5.9115,-5.9251,-5.9453,-5.9617,-5.9748,-5.9943,-6.0072,-6.0199,-6.0529,-6.13,-6.3173,-6.4026,-6.4961,-6.5995,-6.6632,-6.6925,-6.7134,-6.6983,-6.6983,-6.7303,-6.7433,-6.765,-6.7915,-6.807,-6.8284,-6.8528,-6.88,-6.8945,-6.9209,-6.9536,-7.0231,-7.0876,-7.1741,-7.2745,-7.4005,-7.4938,-7.5633,-7.6049,-7.6338,-7.6632,-7.6704,-7.6754,-7.6855,-7.6897,-7.6923,-7.6972,-7.7024,-7.709,-7.7082,-7.7107,-7.7112,-7.7146,-7.7195,-7.7181,-7.7187,-5.2975,-5.2983,-5.2605,-5.2407,-5.2257,-5.2191,-5.223,-5.2461,-5.393,-5.4575,-5.5162,-5.6571,-5.7014,-5.7331,-5.7264,-5.7439,-5.7662,-5.7775,-5.7808,-5.7808,-5.7808,-5.7808,-5.7775,-5.7741,-5.76,-5.7413,-5.7406,-5.748,-5.7446,-5.7331,-5.7364,-5.7364,-5.7289,-5.7239,-5.722,-5.7272,-5.7222,-5.7156,-5.7147,-5.7214,-5.7214,-5.7214,-5.7214,-5.7364,-5.7514,-5.7662,-5.7735,-5.7881,-5.8061,-5.8171,-5.8243,-5.8277,-5.8348,-5.8243,-5.8314,-5.8561,-5.8701,-5.8909,-5.9081,-5.9284,-5.9453,-5.9687,-5.9814,-6.0008,-6.0199,-6.0388,-6.0512,-6.0696,-6.0985,-6.176,-6.3538,-6.441,-6.5511,-6.6613,-6.7097,-6.7378,-6.7596,-6.7542,-6.7596,-6.7741,-6.7915,-6.807,-6.8321,-6.8517,-6.867,-6.89,-6.9122,-6.9336,-6.9542,-6.9967,-7.0646,-7.1544,-7.2428,-7.3599,-7.4879,-7.5478,-7.6195,-7.6418,-7.6651,-7.6754,-7.683,-7.6923,-7.696,-7.696,-7.6994,-7.7063,-7.709,-7.7106,-7.7134,-7.7126,-7.7142,-7.7186,-7.7187,-7.7183,-7.7169,-5.2506,-5.272,-5.2761,-5.2757,-5.2782,-5.2724,-5.2694,-5.2998,-5.4305,-5.5013,-5.528,-5.6606,-5.7419,-5.7554,-5.7588,-5.7662,-5.7808,-5.7881,-5.7881,-5.7881,-5.7881,-5.7881,-5.7881,-5.7881,-5.7881,-5.7775,-5.7808,-5.7701,-5.7701,-5.7662,-5.7588,-5.7514,-5.7439,-5.7356,-5.7356,-5.7289,-5.7338,-5.7386,-5.7338,-5.7364,-5.7364,-5.7364,-5.7439,-5.7588,-5.7808,-5.7954,-5.8061,-5.8099,-5.8243,-5.8419,-5.849,-5.8597,-5.8736,-5.8631,-5.8667,-5.8875,-5.8944,-5.9149,-5.9453,-5.9617,-5.9814,-5.9943,-6.0135,-6.0388,-6.0635,-6.0878,-6.0998,-6.1176,-6.1552,-6.2377,-6.4065,-6.467,-6.5585,-6.6719,-6.7488,-6.7704,-6.793,-6.8084,-6.8222,-6.8272,-6.8371,-6.8468,-6.8707,-6.8855,-6.9034,-6.9251,-6.9419,-6.97,-6.9965,-7.0375,-7.1002,-7.2001,-7.31,-7.4434,-7.576,-7.6101,-7.6517,-7.6609,-7.677,-7.6897,-7.696,-7.7053,-7.7082,-7.7043,-7.7043,-7.709,-7.7114,-7.716,-7.7151,-7.7178,-7.7187,-7.7211,-7.7169,-7.7165,-7.7126,-5.2483,-5.2624,-5.2834,-5.2867,-5.2864,-5.2867,-5.287,-5.3107,-5.4522,-5.5265,-5.5665,-5.6892,-5.7673,-5.7701,-5.7735,-5.7808,-5.7881,-5.7881,-5.7881,-5.7881,-5.7881,-5.7881,-5.7881,-5.7881,-5.7881,-5.7881,-5.7881,-5.7881,-5.7881,-5.7808,-5.7735,-5.7735,-5.7662,-5.7588,-5.7588,-5.7662,-5.7594,-5.7566,-5.7594,-5.7588,-5.7662,-5.7662,-5.7808,-5.7954,-5.8099,-5.8277,-5.8348,-5.8348,-5.8456,-5.8667,-5.8771,-5.8978,-5.9149,-5.9217,-5.9217,-5.9284,-5.9351,-5.9551,-5.9849,-6.0008,-6.0199,-6.045,-6.0635,-6.0818,-6.1058,-6.1292,-6.1523,-6.1748,-6.1932,-6.2767,-6.4512,-6.4858,-6.5823,-6.721,-6.7915,-6.8121,-6.8284,-6.8575,-6.867,-6.8754,-6.8763,-6.89,-6.9072,-6.9289,-6.9419,-6.9582,-6.9739,-7.0001,-7.0281,-7.0675,-7.1183,-7.2755,-7.3909,-7.5113,-7.6183,-7.6458,-7.6721,-7.6801,-7.6871,-7.6972,-7.7053,-7.709,-7.7082,-7.7062,-7.7101,-7.7146,-7.7167,-7.7179,-7.7208,-7.7225,-7.722,-7.7195,-7.7146,-7.7101,-7.7101,-5.2694,-5.2764,-5.2903,-5.3008,-5.3043,-5.3008,-5.3008,-5.3347,-5.4563,-5.5272,-5.5639,-5.693,-5.7679,-5.7848,-5.7881,-5.7881,-5.7881,-5.7881,-5.7954,-5.7954,-5.7954,-5.7954,-5.7988,-5.8061,-5.8061,-5.8095,-5.8027,-5.7954,-5.7881,-5.7881,-5.7881,-5.7881,-5.7881,-5.7881,-5.7881,-5.7808,-5.7881,-5.792,-5.7954,-5.7954,-5.8027,-5.8171,-5.8243,-5.8243,-5.8419,-5.849,-5.8597,-5.8631,-5.884,-5.9012,-5.9149,-5.9386,-5.9652,-5.9814,-5.9879,-5.9849,-5.9879,-6.0008,-6.0199,-6.0388,-6.0635,-6.0878,-6.1152,-6.127,-6.1466,-6.1692,-6.1969,-6.2185,-6.2328,-6.3089,-6.4741,-6.5279,-6.6279,-6.7539,-6.8321,-6.8613,-6.8717,-6.89,-6.9166,-6.9209,-6.9209,-6.9294,-6.946,-6.9622,-6.9778,-6.9965,-7.0109,-7.0276,-7.054,-7.0652,-7.1475,-7.3393,-7.4818,-7.5857,-7.6552,-7.6638,-7.6869,-7.6949,-7.6972,-7.7024,-7.7082,-7.7106,-7.7101,-7.7091,-7.7106,-7.7145,-7.7172,-7.7204,-7.7187,-7.7181,-7.7195,-7.7179,-7.7128,-7.7121,-7.7082,-5.2972,-5.311,-5.3348,-5.3416,-5.3416,-5.3416,-5.3416,-5.3518,-5.4364,-5.511,-5.5579,-5.6528,-5.7378,-5.7819,-5.7881,-5.7881,-5.7954,-5.7954,-5.8027,-5.8133,-5.8205,-5.8239,-5.8379,-5.8453,-5.8348,-5.8382,-5.8348,-5.8205,-5.8027,-5.7954,-5.7954,-5.7954,-5.7954,-5.7881,-5.7988,-5.7954,-5.7959,-5.814,-5.8137,-5.8243,-5.8419,-5.8419,-5.849,-5.849,-5.8561,-5.8701,-5.8944,-5.8944,-5.9149,-5.9453,-5.9617,-5.9814,-6.0008,-6.0199,-6.0352,-6.0477,-6.0477,-6.0388,-6.0696,-6.0878,-6.1093,-6.1292,-6.1501,-6.1728,-6.1914,-6.2132,-6.2397,-6.2552,-6.2654,-6.3429,-6.483,-6.5558,-6.6679,-6.7725,-6.8586,-6.8863,-6.9034,-6.9209,-6.9498,-6.97,-6.9701,-6.9778,-6.9891,-6.9965,-7.0109,-7.0281,-7.0477,-7.0631,-7.0882,-7.112,-7.1733,-7.3643,-7.5061,-7.6099,-7.6723,-7.6833,-7.6948,-7.7022,-7.7034,-7.7067,-7.7089,-7.7112,-7.713,-7.7106,-7.7147,-7.7142,-7.7148,-7.7147,-7.7133,-7.7161,-7.714,-7.7128,-7.7114,-7.7098,-7.709,-5.311,-5.3179,-5.3416,-5.3518,-5.3518,-5.3518,-5.3518,-5.3653,-5.4262,-5.477,-5.5243,-5.6292,-5.7243,-5.7891,-5.8027,-5.8099,-5.8205,-5.8205,-5.8277,-5.8348,-5.8419,-5.8453,-5.8453,-5.8524,-5.849,-5.8528,-5.8526,-5.8419,-5.8243,-5.8243,-5.8277,-5.8205,-5.8205,-5.8239,-5.8167,-5.8205,-5.828,-5.8388,-5.8351,-5.8419,-5.8561,-5.8701,-5.884,-5.884,-5.8978,-5.9183,-5.9319,-5.9418,-5.9551,-5.9849,-6.0008,-6.0262,-6.045,-6.0635,-6.0878,-6.0998,-6.1058,-6.1058,-6.1117,-6.1386,-6.1559,-6.1692,-6.1914,-6.2132,-6.2397,-6.2603,-6.2805,-6.2953,-6.3051,-6.3785,-6.4927,-6.5719,-6.6797,-6.7755,-6.8765,-6.9128,-6.9378,-6.962,-6.9777,-7.0003,-7.0179,-7.0213,-7.0281,-7.0342,-7.0439,-7.0501,-7.0748,-7.094,-7.1386,-7.1855,-7.2696,-7.389,-7.5113,-7.6157,-7.6637,-7.6955,-7.6985,-7.7051,-7.7056,-7.7078,-7.7094,-7.7103,-7.7109,-7.7106,-7.7126,-7.7117,-7.7083,-7.7083,-7.7112,-7.7101,-7.7089,-7.7075,-7.7051,-7.7014,-7.6983,-5.3247,-5.328,-5.3416,-5.3518,-5.3518,-5.3518,-5.3518,-5.3585,-5.4059,-5.4397,-5.5007,-5.6229,-5.7318,-5.7936,-5.814,-5.8348,-5.849,-5.849,-5.8561,-5.8561,-5.8631,-5.8665,-5.8735,-5.8805,-5.8806,-5.877,-5.8909,-5.884,-5.884,-5.8771,-5.8701,-5.849,-5.8419,-5.8453,-5.8487,-5.8453,-5.8526,-5.8632,-5.8806,-5.884,-5.8909,-5.9047,-5.9081,-5.9251,-5.9453,-5.9652,-5.9718,-5.9884,-6.0013,-6.0262,-6.045,-6.0635,-6.0878,-6.1093,-6.1292,-6.1466,-6.1523,-6.1615,-6.1672,-6.1748,-6.195,-6.2078,-6.2291,-6.25,-6.2805,-6.3002,-6.3147,-6.3242,-6.3428,-6.3973,-6.4853,-6.5895,-6.693,-6.7964,-6.8884,-6.9313,-6.9661,-6.9891,-7.0073,-7.0281,-7.0477,-7.0631,-7.069,-7.0738,-7.0766,-7.0805,-7.0966,-7.1163,-7.1647,-7.2228,-7.2912,-7.3819,-7.495,-7.5986,-7.6702,-7.7004,-7.7067,-7.7101,-7.7091,-7.7105,-7.7109,-7.7106,-7.7094,-7.7107,-7.7082,-7.7075,-7.7036,-7.7082,-7.7082,-7.7075,-7.7067,-7.7043,-7.7014,-7.696,-7.691,-5.3518,-5.3518,-5.3518,-5.3518,-5.3518,-5.3518,-5.3518,-5.3518,-5.3585,-5.4127,-5.4975,-5.6371,-5.7123,-5.7568,-5.808,-5.8458,-5.8561,-5.849,-5.8665,-5.884,-5.8909,-5.9047,-5.915,-5.932,-5.9418,-5.9415,-5.9418,-5.9453,-5.9453,-5.9386,-5.9047,-5.8631,-5.8701,-5.8597,-5.8597,-5.8701,-5.8806,-5.9012,-5.9251,-5.9386,-5.9453,-5.952,-5.9586,-5.9586,-5.9683,-5.9879,-6.0043,-6.0241,-6.0431,-6.0696,-6.0903,-6.1058,-6.1292,-6.1501,-6.1672,-6.1859,-6.1969,-6.2078,-6.2185,-6.2132,-6.2132,-6.2344,-6.2603,-6.2904,-6.3147,-6.3289,-6.3428,-6.3565,-6.3742,-6.4289,-6.5245,-6.6237,-6.7228,-6.822,-6.9133,-6.9701,-7.0038,-7.0179,-7.0381,-7.0532,-7.071,-7.0887,-7.1042,-7.1077,-7.1053,-7.1053,-7.1175,-7.1417,-7.1681,-7.222,-7.2705,-7.3508,-7.4689,-7.5746,-7.6739,-7.6965,-7.6839,-7.698,-7.7109,-7.7108,-7.71,-7.7083,-7.7089,-7.7075,-7.7082,-7.7024,-7.7004,-7.7014,-7.7024,-7.6995,-7.6985,-7.6994,-7.6897,-7.683,-7.677,-5.3518,-5.3518,-5.3518,-5.3518,-5.3518,-5.3518,-5.3551,-5.3584,-5.3618,-5.4159,-5.4974,-5.5689,-5.6542,-5.733,-5.7844,-5.8497,-5.8909,-5.9115,-5.9218,-5.932,-5.9388,-5.939,-5.9559,-5.9656,-5.9709,-5.9797,-5.9838,-5.9914,-5.9914,-5.9914,-5.9783,-5.9485,-5.9319,-5.9183,-5.9183,-5.9149,-5.9251,-5.9386,-5.9551,-5.9683,-5.9783,-5.9943,-6.0008,-6.0008,-6.0234,-6.0388,-6.0547,-6.0689,-6.0864,-6.1093,-6.1336,-6.1544,-6.1692,-6.1859,-6.206,-6.2275,-6.2291,-6.2449,-6.2603,-6.2552,-6.2603,-6.2855,-6.3099,-6.3373,-6.3465,-6.3654,-6.3786,-6.3958,-6.4083,-6.4622,-6.5572,-6.6558,-6.7581,-6.8526,-6.9353,-7.0023,-7.0348,-7.0508,-7.0661,-7.0794,-7.0953,-7.1116,-7.1253,-7.1378,-7.1358,-7.1337,-7.149,-7.1661,-7.1887,-7.2094,-7.2518,-7.2959,-7.4021,-7.5038,-7.6014,-7.6345,-7.6514,-7.6836,-7.7058,-7.7009,-7.699,-7.7082,-7.7082,-7.7063,-7.7043,-7.6972,-7.6948,-7.6975,-7.6936,-7.6921,-7.6909,-7.691,-7.6801,-7.6704,-7.6651,-5.3518,-5.3551,-5.3551,-5.3551,-5.3551,-5.3551,-5.3685,-5.3783,-5.3783,-5.4188,-5.4932,-5.5238,-5.5953,-5.7015,-5.7872,-5.8383,-5.9036,-5.9412,-5.9621,-5.9722,-5.9757,-5.9826,-5.9826,-5.9953,-6.0093,-6.007,-6.0149,-6.0234,-6.0234,-6.0297,-6.0262,-6.0199,-6.0171,-6.0043,-5.9718,-5.9783,-5.9783,-5.9849,-5.9978,-6.0008,-6.0072,-6.0325,-6.0415,-6.0512,-6.0635,-6.0854,-6.0998,-6.1188,-6.1364,-6.1544,-6.1787,-6.1969,-6.2095,-6.2238,-6.2397,-6.25,-6.2654,-6.2805,-6.2904,-6.3002,-6.3051,-6.3279,-6.3511,-6.3647,-6.3823,-6.3958,-6.4083,-6.4247,-6.4443,-6.4974,-6.5879,-6.6895,-6.7908,-6.8845,-6.978,-7.0445,-7.0601,-7.0748,-7.0914,-7.1067,-7.1186,-7.1296,-7.1436,-7.1542,-7.1591,-7.1575,-7.1651,-7.177,-7.1844,-7.2043,-7.2218,-7.265,-7.3186,-7.4189,-7.5108,-7.535,-7.5703,-7.6707,-7.6873,-7.6848,-7.6856,-7.6936,-7.6994,-7.6972,-7.6948,-7.691,-7.6869,-7.6825,-7.684,-7.6869,-7.6801,-7.677,-7.6687,-7.6594,-7.6534,-5.3618,-5.3717,-5.3717,-5.3717,-5.3717,-5.3717,-5.3783,-5.398,-5.4045,-5.4244,-5.4736,-5.5381,-5.5917,-5.653,-5.7538,-5.8392,-5.891,-5.9464,-5.9879,-6.0083,-6.0206,-6.0241,-6.0333,-6.045,-6.0564,-6.0564,-6.0661,-6.0671,-6.0609,-6.0757,-6.0818,-6.0818,-6.0818,-6.0671,-6.0171,-6.0199,-6.0262,-6.0325,-6.0485,-6.0547,-6.0609,-6.0757,-6.0818,-6.0938,-6.1117,-6.127,-6.1408,-6.1579,-6.1804,-6.1969,-6.2109,-6.2303,-6.2449,-6.2552,-6.2654,-6.2805,-6.2953,-6.3147,-6.3336,-6.3382,-6.3474,-6.3602,-6.378,-6.391,-6.4042,-6.4206,-6.4366,-6.4558,-6.4745,-6.5376,-6.6273,-6.7245,-6.8209,-6.9291,-7.0226,-7.0719,-7.086,-7.1017,-7.1163,-7.1274,-7.1378,-7.1454,-7.1575,-7.1679,-7.1782,-7.1817,-7.1838,-7.1897,-7.1915,-7.1995,-7.2093,-7.2266,-7.2678,-7.2967,-7.3788,-7.4331,-7.4943,-7.6041,-7.6513,-7.6292,-7.642,-7.661,-7.6702,-7.6833,-7.6869,-7.6809,-7.6704,-7.6651,-7.6669,-7.6669,-7.6669,-7.6614,-7.6573,-7.651,-7.6444,-5.3849,-5.3915,-5.3915,-5.398,-5.4045,-5.3915,-5.398,-5.4175,-5.4367,-5.4655,-5.4842,-5.5305,-5.5811,-5.6396,-5.7035,-5.8,-5.894,-5.9241,-5.9761,-6.0501,-6.0574,-6.0725,-6.0808,-6.095,-6.1045,-6.1091,-6.1163,-6.1211,-6.127,-6.1292,-6.1328,-6.1386,-6.1386,-6.1152,-6.0914,-6.0854,-6.0818,-6.0818,-6.0938,-6.1058,-6.1093,-6.1211,-6.1386,-6.1408,-6.1559,-6.1728,-6.1895,-6.2024,-6.2168,-6.2397,-6.2522,-6.2658,-6.2768,-6.2904,-6.3051,-6.3194,-6.3336,-6.3557,-6.3786,-6.3915,-6.3995,-6.3995,-6.4079,-6.4166,-6.4366,-6.4558,-6.4707,-6.485,-6.5061,-6.5874,-6.7153,-6.7653,-6.8578,-7.0018,-7.086,-7.0992,-7.1154,-7.1253,-7.1358,-7.1472,-7.1542,-7.1637,-7.177,-7.1806,-7.1858,-7.1893,-7.1909,-7.194,-7.1948,-7.1967,-7.2025,-7.2064,-7.2226,-7.2181,-7.2475,-7.3247,-7.3381,-7.3844,-7.4743,-7.5307,-7.5585,-7.604,-7.6349,-7.6459,-7.6588,-7.6651,-7.6594,-7.6534,-7.6493,-7.6471,-7.6493,-7.6471,-7.6427,-7.6397,-7.6326,-5.4045,-5.4175,-5.4175,-5.4303,-5.4431,-5.4239,-5.4303,-5.446,-5.4807,-5.4992,-5.5174,-5.5354,-5.5624,-5.6234,-5.6835,-5.7423,-5.8662,-5.9124,-5.9739,-6.0544,-6.0677,-6.0884,-6.1184,-6.142,-6.1451,-6.1528,-6.162,-6.1728,-6.1728,-6.1784,-6.184,-6.1895,-6.184,-6.1784,-6.1559,-6.1444,-6.127,-6.127,-6.1386,-6.1444,-6.1559,-6.1672,-6.184,-6.1895,-6.2005,-6.2114,-6.2275,-6.2381,-6.2522,-6.2718,-6.288,-6.2988,-6.311,-6.3242,-6.3382,-6.3557,-6.378,-6.3953,-6.4125,-6.4326,-6.4366,-6.4443,-6.4443,-6.4482,-6.467,-6.4815,-6.4989,-6.5161,-6.5321,-6.6391,-6.7553,-6.8004,-6.8987,-7.0427,-7.1091,-7.1208,-7.1296,-7.1397,-7.149,-7.1591,-7.1718,-7.1806,-7.1906,-7.1924,-7.1948,-7.1976,-7.1997,-7.1993,-7.1987,-7.1986,-7.199,-7.1988,-7.2025,-7.2041,-7.2132,-7.2424,-7.2353,-7.1866,-7.2846,-7.4146,-7.4909,-7.5393,-7.5772,-7.6146,-7.6323,-7.6457,-7.645,-7.6421,-7.6374,-7.6374,-7.6374,-7.635,-7.6326,-7.6301,-7.6225,-5.4239,-5.4494,-5.4494,-5.4683,-5.493,-5.4683,-5.4745,-5.5053,-5.5139,-5.5354,-5.5507,-5.5648,-5.5892,-5.6113,-5.6887,-5.7391,-5.7846,-5.853,-5.9388,-6.0174,-6.0511,-6.0954,-6.1389,-6.1715,-6.1823,-6.1895,-6.195,-6.2005,-6.2024,-6.2078,-6.2185,-6.2291,-6.2275,-6.2222,-6.206,-6.195,-6.1728,-6.1728,-6.1784,-6.184,-6.1895,-6.206,-6.2222,-6.2275,-6.2344,-6.25,-6.2654,-6.2792,-6.2892,-6.3051,-6.3147,-6.3289,-6.3382,-6.3557,-6.3647,-6.3867,-6.4121,-6.4287,-6.4444,-6.4633,-6.4743,-6.4817,-6.4815,-6.4815,-6.492,-6.509,-6.5252,-6.5375,-6.5561,-6.6765,-6.7833,-6.8539,-6.9239,-7.0258,-7.1158,-7.1358,-7.1436,-7.1525,-7.1606,-7.1718,-7.1794,-7.1858,-7.1963,-7.1982,-7.2002,-7.1981,-7.199,-7.1992,-7.1992,-7.1992,-7.1978,-7.1997,-7.1987,-7.2002,-7.2088,-7.2149,-7.1983,-7.168,-7.216,-7.3222,-7.3962,-7.4593,-7.4809,-7.5216,-7.5929,-7.625,-7.6297,-7.6301,-7.6225,-7.6225,-7.6225,-7.6225,-7.6225,-7.6198,-7.6145,-5.4717,-5.4869,-5.4869,-5.4992,-5.5139,-5.5294,-5.5354,-5.5354,-5.5472,-5.5742,-5.6028,-5.6106,-5.6273,-5.6437,-5.6796,-5.7334,-5.7837,-5.8287,-5.8988,-5.9619,-6.0305,-6.0897,-6.1402,-6.1838,-6.2076,-6.2238,-6.2238,-6.2291,-6.2291,-6.2344,-6.2381,-6.2381,-6.2449,-6.2449,-6.2397,-6.2344,-6.2238,-6.2222,-6.2185,-6.2185,-6.2238,-6.2397,-6.25,-6.2603,-6.2755,-6.2855,-6.3002,-6.3147,-6.3279,-6.3419,-6.3557,-6.3691,-6.3742,-6.3898,-6.4016,-6.42,-6.4443,-6.4633,-6.4781,-6.492,-6.5057,-6.5194,-6.522,-6.5252,-6.5283,-6.5375,-6.5523,-6.5635,-6.5781,-6.6704,-6.761,-6.8381,-6.9224,-7.0215,-7.0989,-7.137,-7.1474,-7.1651,-7.1758,-7.1806,-7.1897,-7.193,-7.2006,-7.1984,-7.199,-7.1991,-7.1984,-7.2006,-7.1997,-7.1963,-7.1997,-7.1969,-7.1948,-7.1924,-7.1897,-7.1944,-7.1758,-7.169,-7.2049,-7.2375,-7.2965,-7.3472,-7.378,-7.4337,-7.5044,-7.5707,-7.6173,-7.6095,-7.5848,-7.6052,-7.6118,-7.6118,-7.609,-7.609,-7.6062,-5.5053,-5.5174,-5.5234,-5.5413,-5.5613,-5.5879,-5.5936,-5.5936,-5.5936,-5.6106,-5.6328,-5.6492,-5.6653,-5.6724,-5.6953,-5.7273,-5.7686,-5.7913,-5.8464,-5.9256,-5.9961,-6.0522,-6.1098,-6.1784,-6.2186,-6.2406,-6.2654,-6.2755,-6.2705,-6.2705,-6.2705,-6.2792,-6.2705,-6.2705,-6.2755,-6.2805,-6.2805,-6.2705,-6.2654,-6.2654,-6.2705,-6.2755,-6.2855,-6.2953,-6.3099,-6.3194,-6.3336,-6.3511,-6.3647,-6.378,-6.391,-6.3958,-6.4083,-6.4241,-6.4439,-6.4596,-6.4743,-6.492,-6.5061,-6.5161,-6.5321,-6.5444,-6.5552,-6.5635,-6.5635,-6.569,-6.5705,-6.582,-6.6044,-6.6428,-6.7248,-6.8065,-6.9109,-7.0166,-7.0736,-7.1315,-7.155,-7.1794,-7.1877,-7.1954,-7.1969,-7.1975,-7.199,-7.1991,-7.1981,-7.2006,-7.1993,-7.1976,-7.1955,-7.1955,-7.1955,-7.1932,-7.1906,-7.1848,-7.1856,-7.1797,-7.1651,-7.1536,-7.1624,-7.1901,-7.223,-7.2633,-7.3148,-7.3659,-7.4166,-7.4771,-7.5374,-7.5512,-7.5456,-7.5649,-7.5813,-7.588,-7.5957,-7.6072,-7.6005,-5.5284,-5.5566,-5.5706,-5.5936,-5.6253,-5.6328,-5.6492,-5.6653,-5.6492,-5.6546,-5.6707,-5.6776,-5.6881,-5.7087,-5.7224,-5.7289,-5.752,-5.7704,-5.8069,-5.8773,-5.9152,-5.9822,-6.0726,-6.1471,-6.2071,-6.261,-6.3002,-6.3051,-6.3147,-6.3184,-6.3184,-6.3231,-6.3194,-6.3147,-6.3147,-6.3194,-6.3194,-6.3194,-6.3147,-6.3099,-6.3051,-6.3147,-6.3279,-6.3279,-6.3382,-6.3474,-6.3647,-6.378,-6.391,-6.4042,-6.4166,-6.4247,-6.4443,-6.4596,-6.4815,-6.4955,-6.5052,-6.5188,-6.5283,-6.5413,-6.5523,-6.5635,-6.5731,-6.5856,-6.5919,-6.5919,-6.5943,-6.5997,-6.6204,-6.64,-6.7113,-6.7765,-6.8645,-6.942,-6.9967,-7.0497,-7.0814,-7.0979,-7.1026,-7.1089,-7.1069,-7.117,-7.1558,-7.1542,-7.1719,-7.1852,-7.194,-7.1924,-7.1858,-7.1848,-7.1887,-7.1877,-7.1856,-7.1782,-7.1771,-7.1714,-7.1559,-7.1472,-7.1436,-7.1394,-7.164,-7.2113,-7.2645,-7.3035,-7.3408,-7.3894,-7.4368,-7.4504,-7.4716,-7.5024,-7.5187,-7.5524,-7.5639,-7.5562,-7.5861,-5.5235,-5.6049,-5.6273,-5.6437,-5.6546,-5.6653,-5.6865,-5.7036,-5.7036,-5.6984,-5.7036,-5.7087,-5.7239,-5.7388,-5.7486,-5.7534,-5.7583,-5.7763,-5.793,-5.8437,-5.8804,-5.9328,-6.0204,-6.1134,-6.1882,-6.2324,-6.2741,-6.3289,-6.3382,-6.3465,-6.3511,-6.3511,-6.3511,-6.3519,-6.3519,-6.3565,-6.361,-6.361,-6.361,-6.3519,-6.3428,-6.3465,-6.3557,-6.3647,-6.378,-6.383,-6.3995,-6.4121,-6.4206,-6.4326,-6.4482,-6.4671,-6.4857,-6.4958,-6.5085,-6.5213,-6.5337,-6.5435,-6.5552,-6.5663,-6.5769,-6.5895,-6.599,-6.6102,-6.6144,-6.6123,-6.6165,-6.6206,-6.6358,-6.6561,-6.6858,-6.7461,-6.806,-6.8643,-6.9195,-6.9626,-7.006,-7.0147,-7.0139,-7.0152,-7.0116,-7.0425,-7.087,-7.1156,-7.1402,-7.1612,-7.178,-7.1827,-7.1704,-7.1641,-7.1719,-7.1706,-7.1718,-7.1714,-7.1708,-7.1603,-7.1474,-7.1378,-7.1296,-7.1208,-7.1178,-7.1491,-7.1904,-7.2264,-7.2673,-7.3042,-7.3332,-7.3572,-7.3821,-7.4205,-7.429,-7.4512,-7.4328,-7.4175,-7.4926,-5.5237,-5.5883,-5.6456,-5.676,-5.6865,-5.6933,-5.7174,-5.7338,-5.7388,-5.7388,-5.7437,-5.7437,-5.7486,-5.7679,-5.7763,-5.7857,-5.7857,-5.7997,-5.8125,-5.8399,-5.8666,-5.9153,-5.9907,-6.0663,-6.1522,-6.2077,-6.3029,-6.3565,-6.361,-6.378,-6.3823,-6.3823,-6.383,-6.3873,-6.3873,-6.3958,-6.3958,-6.3958,-6.4042,-6.3958,-6.3786,-6.383,-6.3867,-6.3953,-6.4079,-6.4166,-6.4287,-6.4405,-6.4521,-6.467,-6.485,-6.5023,-6.5194,-6.5252,-6.5337,-6.5456,-6.5569,-6.569,-6.5795,-6.5881,-6.5974,-6.6123,-6.6148,-6.6242,-6.6355,-6.6338,-6.6355,-6.6422,-6.6454,-6.6645,-6.6698,-6.7136,-6.7686,-6.8222,-6.86,-6.8944,-6.9416,-6.9716,-6.9726,-6.971,-6.9703,-6.9772,-7.0089,-7.0075,-7.0277,-7.0289,-7.0609,-7.0966,-7.1004,-7.114,-7.1295,-7.142,-7.1403,-7.1547,-7.1591,-7.1494,-7.1376,-7.1253,-7.1186,-7.1116,-7.1081,-7.0979,-7.1129,-7.1552,-7.1832,-7.2006,-7.2293,-7.2609,-7.307,-7.353,-7.3461,-7.3423,-7.3162,-7.2977,-7.3653,-5.515,-5.5594,-5.6397,-5.6964,-5.7239,-5.7239,-5.7388,-5.7583,-5.7631,-5.7726,-5.7857,-5.7763,-5.7763,-5.7857,-5.7997,-5.8088,-5.8215,-5.826,-5.8349,-5.8437,-5.8474,-5.8931,-5.9387,-5.9993,-6.1156,-6.2247,-6.3195,-6.3691,-6.3958,-6.4083,-6.4166,-6.4166,-6.4206,-6.4249,-6.4249,-6.4249,-6.4249,-6.4289,-6.4328,-6.4328,-6.4326,-6.4247,-6.4206,-6.4247,-6.4366,-6.4482,-6.4558,-6.4669,-6.4813,-6.5023,-6.5188,-6.5345,-6.5465,-6.5523,-6.5635,-6.5705,-6.5782,-6.5881,-6.5997,-6.6084,-6.6167,-6.6263,-6.6306,-6.6368,-6.65,-6.6528,-6.6542,-6.6555,-6.6581,-6.6657,-6.6702,-6.6819,-6.736,-6.7702,-6.7988,-6.8176,-6.8629,-6.8984,-6.9,-6.9022,-6.9014,-6.9014,-6.9155,-6.9167,-6.9177,-6.9145,-6.9292,-6.9614,-6.9888,-7.0132,-7.0329,-7.0641,-7.0893,-7.1046,-7.139,-7.1347,-7.1247,-7.1139,-7.1067,-7.0992,-7.0979,-7.0871,-7.0825,-7.0825,-7.1074,-7.1313,-7.1444,-7.1681,-7.2179,-7.2639,-7.2308,-7.2051,-7.2161,-7.2051,-7.2384,-5.4575,-5.5894,-5.6224,-5.677,-5.7413,-5.7486,-5.7583,-5.7763,-5.7904,-5.7997,-5.8125,-5.8207,-5.8207,-5.8133,-5.8223,-5.8349,-5.8393,-5.8437,-5.8566,-5.8651,-5.8656,-5.8888,-5.9309,-5.995,-6.1226,-6.2245,-6.3078,-6.3648,-6.3988,-6.4254,-6.4482,-6.4482,-6.452,-6.452,-6.4519,-6.452,-6.4558,-6.4595,-6.4632,-6.4707,-6.4707,-6.4633,-6.4558,-6.4596,-6.4745,-6.4853,-6.492,-6.4951,-6.509,-6.522,-6.5405,-6.558,-6.569,-6.5769,-6.587,-6.5905,-6.6013,-6.6102,-6.6167,-6.6244,-6.6355,-6.6439,-6.6436,-6.6478,-6.6581,-6.663,-6.6641,-6.6652,-6.6673,-6.6732,-6.6767,-6.6791,-6.7091,-6.7107,-6.7277,-6.7304,-6.7516,-6.7581,-6.7553,-6.7555,-6.7539,-6.7803,-6.8242,-6.8288,-6.8423,-6.8461,-6.8676,-6.8946,-6.8992,-6.9188,-6.936,-6.9783,-7.0165,-7.0783,-7.1147,-7.1193,-7.1106,-7.0992,-7.0914,-7.086,-7.0815,-7.0758,-7.0737,-7.0639,-7.0639,-7.08,-7.0891,-7.1019,-7.0921,-7.1154,-7.0819,-7.0671,-7.0896,-7.1086,-7.135]}]]